[[[{"header":{"parameterUnit":"kt","parameterCategory":2,"dx":1,"dy":1,"la1":29.46422004699707,"la2":30.564109802246094,"lo1":-89.4342041015625,"lo2":-87.934326171875,"nx":46,"ny":34,"refTime":"2022-11-01T00:00:00:Z","depth":"0","parameterNumber":2,"parameterNumberName":"U-component_of_CURRENTS"},"data":[-0.0961,-0.0966,-0.103,-0.1078,-0.1068,-0.0886,-0.0737,0,-0.0299,-0.1233,-0.2109,-0.2242,-0.2168,-0.2088,-0.1831,-0.1628,-0.1602,-0.1655,-0.1559,-0.1329,-0.1207,-0.1095,-0.0641,-0.0032,0.0582,0.1351,0.1714,0.1356,0.1025,0.0998,0.0657,0.0299,0.039,0.0502,0.0331,0.0011,-0.0187,-0.0299,-0.0406,-0.0395,-0.0299,-0.0166,-0.0075,-0.0107,-0.0171,-0.0096,-0.0689,-0.0774,-0.0838,-0.0844,-0.0769,-0.0523,-0.0043,0.0256,0,-0.0982,-0.2798,-0.2573,-0.166,-0.1831,-0.1692,-0.1345,-0.1068,-0.0913,-0.0833,-0.0731,-0.0518,-0.0304,-0.0384,-0.0828,-0.0427,0.0603,0.0876,0.0929,0.1111,0.1249,0.1255,0.0988,0.0614,0.0342,0.0128,-0.0123,-0.0214,-0.0053,0.0112,0.0144,0.0171,0.024,0.0331,0.0395,0.0411,0.0438,-0.0529,-0.0609,-0.0662,-0.0678,-0.0657,-0.0625,-0.0662,-0.1084,-0.2109,-0.2034,-0.1313,0,-0.0747,-0.1655,-0.1687,-0.1303,-0.0844,-0.0502,-0.0283,-0.0139,0.0005,0.0117,0.0144,-0.0064,-0.0566,-0.0288,0.0828,0.0988,0.0662,0.0833,0.103,0.103,0.0774,0.0497,0.0432,0.0432,0.0475,0.0555,0.0507,0.0374,0.0182,-0.0059,-0.0187,-0.0214,-0.023,-0.032,-0.0363,-0.0416,-0.0475,-0.0507,-0.0518,-0.0566,-0.0737,-0.1159,-0.1762,-0.1714,-0.1212,-0.2178,-0.2936,-0.2573,-0.2216,-0.1474,-0.078,-0.0294,0.0032,0.023,0.0331,0.0384,0.0432,0.0432,0.0326,-0.0037,0.0336,0.1308,0.1527,0.1329,0.1276,0.1329,0.1281,0.118,0.1201,0.1169,0.0902,0.0513,0.0139,-0.0091,-0.0123,-0.0326,-0.0753,-0.1089,-0.1292,-0.1522,-0.0331,-0.0288,-0.0299,-0.031,-0.0315,-0.0363,-0.0502,-0.0769,-0.1105,-0.1276,-0.1404,-0.2056,-0.2819,-0.3721,-0.3385,-0.1644,-0.0593,-0.008,0.0256,0.047,0.0603,0.0667,0.0683,0.0667,0.0651,0.0635,0.0529,0.1175,0.1837,0.1842,0.1922,0.1901,0.1879,0.1853,0.1773,0.149,0.0956,0.0497,0.0171,-0.0059,-0.0192,-0.0304,-0.0363,-0.0534,-0.0785,-0.0961,-0.0545,-0.0358,-0.0187,-0.0085,-0.0043,-0.0037,-0.0123,-0.0299,-0.0497,-0.0641,-0.0715,-0.078,-0.0657,-0.0497,0,0.0048,0.0182,0.0374,0.0561,0.0683,0.0785,0.0865,0.0908,0.0918,0.0908,0.0924,0.0758,0.1041,0.1522,0.1644,0.1842,0.1981,0.205,0.197,0.1714,0.1329,0.095,0.0662,0.0448,0.0379,0.0347,0.024,0.0085,-0.0064,0.0011,0.0139,-0.0678,-0.0518,-0.0304,0.0005,0.0267,0.0411,0.0363,0.0171,-0.0005,-0.0096,-0.0064,0.0139,0.0598,0.1383,0.1858,0,0.0534,0.1009,0.094,0.0924,0.0929,0.0966,0.1014,0.1046,0.1041,0.103,0.0881,0.0769,0.1249,0.134,0.1207,0.1575,0.1735,0.1666,0.1511,0.1367,0.1239,0.1009,0.0822,0.0796,0.0737,0.0667,0.0593,0.0502,0.0416,0.0256,0,-0.039,-0.0523,-0.0037,0.0561,0.1308,0.1244,0.0593,0.031,0.0219,0.0262,0.0438,0.0753,0.1175,0.1388,0.1367,0,0.0785,0.1377,0.1116,0.1025,0.102,0.1036,0.1036,0.0988,0.0934,0.0822,0.0555,0.0988,0.1372,0.1233,0.1458,0.1666,0.1762,0.1853,0.1842,0.1602,0.1281,0.1111,0.1025,0.0924,0.087,0.0844,0.0817,0.0769,0.0699,0,-0.0801,0,-0.0091,-0.0182,0,0.0075,0.0187,0.024,0.0278,0.0326,0.0422,0.0577,0.0817,0.0993,0.0977,0.0924,0,0.0315,0.0763,0.094,0.0982,0.0972,0.0929,0.0844,0.0742,0.0705,0.0507,0.0769,0.1516,0.1735,0.181,0.212,0.2413,0.2509,0.2184,0.1628,0.1351,0.1207,0.1041,0.0972,0.0945,0.095,0.0961,0.0961,0.0924,0,-0.0198,-0.0187,-0.0117,0,-0.0368,-0.0416,0.0005,0.0171,0.0256,0.0283,0.0262,0.0101,0.0582,0.0988,0.0614,0.0448,0,0.0699,0.1223,0.0977,0.0865,0.0796,0.0726,0.0641,0.0539,0.0507,0.0486,0.0705,0.1329,0.1954,0.2349,0.2621,0.2755,0.2445,0.1735,0.1239,0.1068,0.0982,0.0988,0.1009,0.103,0.1046,0.1073,0.1095,0.1084,0,0,0,0,0,0.0251,0.0379,0.0224,0.0214,0.0251,0.0256,0.023,0.0208,0,0.0005,-0.0021,-0.0053,0,0,0.0171,0.0432,0.0529,0.0507,0.0464,0.0411,0.0352,0.032,0.0443,0.0678,0.1062,0.1586,0.1965,0.213,0.197,0.1452,0.1025,0.087,0.0844,0.0902,0.0988,0.1073,0.1143,0.1185,0.1196,0.1201,0.1191,0,0,0,0,0,0,0.0085,0.0166,0.0176,0.0198,0.0198,0.0187,0.0352,0.0075,-0.0374,-0.063,-0.087,0,0,0.0059,0.0187,0.0256,0.024,0.0219,0.0208,0.0203,0.0208,0.0272,0.0486,0.0785,0.102,0.1228,0.1287,0.1148,0.0972,0.087,0.0854,0.0892,0.0945,0.103,0.1132,0.1228,0.1276,0.1276,0.1265,0.1244,0,0,0,0,0,0,0.0064,0.0246,0.0304,0.0144,-0.0021,-0.0053,0.0091,0.0021,-0.0043,0.0064,0,0,0,0.0,0.0021,0.0037,0.0016,0.0011,0.0027,0.0075,0.0133,0.0198,0.0294,0.0491,0.0747,0.0913,0.0902,0.0844,0.086,0.0918,0.0972,0.102,0.1062,0.1127,0.1201,0.1271,0.1287,0.1287,0.1281,0.1255,0,0,0,0,0,0,0.047,0.0897,0.063,0.0037,-0.0464,-0.0587,-0.0507,-0.04,-0.0278,0.0117,0.024,0.0043,0,-0.0043,-0.0107,-0.0149,-0.0192,-0.0198,-0.0155,-0.0059,0.0059,0.0166,0.0251,0.0374,0.0577,0.079,0.095,0.1041,0.1084,0.11,0.1121,0.1148,0.118,0.1217,0.1239,0.1244,0.1244,0.1265,0.1265,0.1228,0,0,0,0,0,0,0,0.0432,0.0235,-0.0683,-0.1052,-0.1121,-0.0998,-0.0806,-0.0619,-0.039,-0.0475,-0.0678,0,-0.0085,-0.0235,-0.0342,-0.04,-0.0411,-0.0352,-0.023,-0.008,0.0069,0.0187,0.032,0.0518,0.0747,0.0934,0.1057,0.1127,0.1143,0.1132,0.1111,0.1078,0.1041,0.1004,0.1004,0.1057,0.1132,0.1164,0.1143,0,0,0,-0.0144,-0.0288,0,0,0,-0.1393,-0.2638,-0.1991,-0.1329,-0.1078,-0.0908,-0.0625,-0.0208,0.0107,0.0198,0,-0.016,-0.0427,-0.0587,-0.0646,-0.0641,-0.0577,-0.0459,-0.0315,-0.0139,0.0064,0.0294,0.0518,0.0699,0.0849,0.0972,0.1057,0.1078,0.1036,0.094,0.0833,0.0769,0.0753,0.0806,0.0902,0.0982,0.103,0.1052,0,0,0.0571,0.0694,-0.1484,-0.4116,-0.473,-0.4474,-0.2109,0.1127,0.1388,0.0454,-0.0027,-0.0219,-0.0133,0.0166,0.055,0.079,0,-0.0358,-0.0822,-0.0945,-0.0956,-0.0934,-0.0924,-0.094,-0.0956,-0.0945,-0.086,-0.0646,-0.0342,0.0005,0.0395,0.0715,0.0854,0.0838,0.0753,0.0662,0.0603,0.0603,0.0657,0.0747,0.0833,0.0892,0.0934,0.0961,0,0,-0.118,-0.1986,-0.0694,0.0224,0,0,0.0411,0.1351,0.1692,0.118,0.0699,0.0358,0.0171,-0.0256,-0.0683,0,-0.1303,-0.2173,-0.1623,-0.1468,-0.1415,-0.142,-0.1511,-0.1719,-0.189,-0.1933,-0.1911,-0.1837,-0.1698,-0.1404,-0.0897,-0.0208,0.039,0.0635,0.0625,0.0571,0.0571,0.0641,0.0763,0.0892,0.0961,0.0956,0.0918,0.0892,-0.1447,-0.2451,-0.2007,0,0,0,0,0,0.0139,0.0475,0.0176,-0.047,-0.0598,-0.0657,-0.1169,-0.2787,-0.4421,-0.4554,-0.3625,-0.2776,-0.2435,-0.2205,-0.2002,-0.1917,-0.2002,-0.2093,-0.1986,-0.181,-0.1746,-0.1858,-0.2013,-0.1837,-0.126,-0.0518,0.0214,0.0662,0.0747,0.0662,0.0646,0.078,0.0961,0.0934,0.0694,0.0731,0.0854,0.0828,-0.3764,-0.0854,0.086,0.1415,0.1249,0,0,0,-0.1233,-0.2536,-0.275,-0.284,-0.2728,-0.2659,-0.2776,-0.3107,-0.3518,-0.3908,-0.394,-0.378,-0.355,-0.3033,-0.2509,-0.2264,-0.2258,-0.2146,-0.1762,-0.1313,-0.1105,-0.1372,-0.1676,-0.1399,-0.063,0.0176,0.0609,0.0294,-0.0214,-0.0219,0.0043,-0.0021,-0.0822,-0.1538,-0.1084,-0.0021,0.0614,0.079,0,-0.0731,-0.1506,-0.1404,-0.0593,0.0075,0,0,-0.1575,-0.3155,-0.292,-0.2686,-0.3177,-0.4074,-0.4287,-0.3812,-0.3524,-0.3807,-0.4378,-0.4725,-0.4512,-0.3753,-0.2936,-0.2429,-0.2264,-0.2306,-0.2216,-0.1511,-0.0822,-0.0993,-0.1361,-0.0918,0.0133,0.0785,-0.0043,-0.1522,-0.165,-0.0977,-0.0924,-0.1735,-0.2557,-0.2317,-0.134,-0.0443,0.0123,0.0448,-0.378,-0.0982,-0.0326,-0.0876,-0.1511,-0.212,-0.2536,-0.2867,-0.26,-0.1703,-0.1596,-0.1634,-0.2349,-0.4479,-0.5323,-0.4677,-0.3849,-0.3593,-0.4186,-0.4811,-0.4821,-0.3988,-0.3107,-0.2531,-0.2194,-0.2312,-0.2541,-0.204,-0.1757,-0.1991,-0.1591,-0.0972,0.0064,0.0715,-0.0886,-0.228,-0.1709,-0.0731,-0.0721,-0.1943,-0.2851,-0.158,0.0139,0.0956,0.1239,0.055,-0.0886,-0.1062,-0.031,-0.0801,-0.1757,-0.1847,-0.1415,-0.173,-0.2718,-0.2552,-0.1618,-0.0929,-0.0368,-0.0304,0,0,-0.0737,-0.2141,-0.3508,-0.5045,-0.5184,-0.4031,-0.3198,-0.2477,-0.204,-0.2072,-0.1703,-0.1196,0,0,0,-0.063,-0.0731,-0.1276,-0.2483,-0.1863,-0.0037,0.1185,0.086,0.0272,0.0166,0,0.0096,0.0432,0.0246,-0.0262,0,-0.0395,-0.0699,-0.0865,-0.1447,-0.1805,-0.1789,-0.1548,-0.1356,0,0,0,-0.0956,-0.1709,-0.1137,-0.0763,0,-0.0844,-0.1687,-0.1682,0,0,0,0,0,0,0,-0.1287,-0.2194,-0.204,-0.1874,-0.1111,-0.0299,0.0128,0,0,-0.0603,-0.1949,-0.141,0.0988,0.3081,0.5227,0.6402,0,0,0,0,0,-0.0539,-0.103,-0.1442,-0.2242,-0.284,-0.3412,-0.3358,-0.2696,-0.2568,-0.3011,-0.307,-0.2696,-0.2883,-0.37,-0.4063,-0.3262,-0.2525,-0.2403,-0.2461,-0.2381,-0.1837,-0.1687,-0.2648,-0.346,-0.3396,-0.2098,-0.0593,-0.0886,-0.1751,-0.1714,-0.1586,-0.1538,0.0059,0.2499,0.2424,0.1287,0,0,0,0.2072,0.3534,0.0758,-0.1292,0,0,0,0,-0.0657,-0.1564,-0.2066,-0.2573,-0.3268,-0.3257,-0.315,-0.378,-0.3988,-0.3753,-0.3593,-0.3764,-0.4229,-0.4592,-0.4282,-0.3732,-0.3209,-0.2798,-0.2664,-0.2557,-0.2883,-0.3396,-0.3401,-0.3663,-0.37,-0.33,-0.3065,-0.2173,-0.1201,-0.0822,-0.04,-0.0411,-0.1143,-0.0865,0.039,0.0929,0.0667,0.1511,0.3129,0.4068,0.3705,0.1751,0,0,0,0,0,0,0,0,0,-0.1191,-0.2899,-0.3716,-0.3561,-0.3177,-0.3364,-0.3636,-0.3956,-0.4148,-0.4031,-0.3801,-0.3641,-0.2835,-0.1436,-0.0918,-0.1869,-0.2824,-0.2979,0,0,0,0,-0.0667,-0.0993,-0.0443,-0.0331,-0.0427,0,0,0,0,0,0.0902,0.2237,0.2381,0.1404,0.0363,0,0,0,0,0,0,0,0,0,0,0,0,-0.1046,-0.2296,-0.2734,-0.3038,-0.3123,-0.3118,-0.284,-0.2082,-0.1575,0,0,0,0,0,0,0,0,0,0,0,0,-0.0368,-0.0662,-0.0582,0,0,0,0,0,0.0107,-0.079,-0.181,-0.1618,-0.0998,0,0,0,0,0,0,0,0,0,0,0,0,0,0,0,0,0,0,0,0,0,0,0,0,0,0,0,0,0,0,0,0,0,0,0,0,0,0,0,0,0,-0.0123,-0.1351,-0.2194,-0.1538,-0.0806,0,0,0,0,0,0,0,0,0,0,0,0,0,0,0,0,0,0,0,0,0,0,0,0,0,0,0,0,0,0,0,0,0,0,0,0,0,0,0,0,0,0.0043,-0.0769,-0.1436,-0.0924,-0.0571,0,0,0,0,0,0,0,0,0,0,0,0,0,0,0,0,0,0,0,0,0,0,0,0,0,0,0,0,0,0,0,0,0,0,0,0,0,0,0,0,0,0,-0.0742,-0.0988,-0.1175,-0.0988,0,0,0,0,0,0,0,0,0,0,0,0,0,0,0,0,0,0,0,0,0,0,0,0,0,0,0,0,0,0,0,0,0,0,0,0,0,0,0,0,0,0,-0.0176,-0.0966,-0.157,-0.149,0,0,0,0,0,0,0,0,0,0,0,0,0,0,0,0,0,0,0,0,0,0,0,0,0,0,0,0,0,0,0,0,0,0,0,0,0,0,0,0,0,0,-0.0112,-0.11,-0.1799,-0.1479,0,0,0,0,0,0,0,0,0,0,0,0,0,0,0,0,0,0,0,0,0,0,0,0,0,0,0,0,0,0,0,0,0,0,0,0,0,0,0,0,0,0,-0.039,-0.0913,-0.1169,-0.1095,0]}],[{"header":{"parameterUnit":"kt","parameterCategory":2,"dx":1,"dy":1,"la1":29.46422004699707,"la2":30.564109802246094,"lo1":-89.4342041015625,"lo2":-87.934326171875,"nx":46,"ny":34,"refTime":"2022-11-01T00:00:00:Z","depth":"0","parameterNumber":3,"parameterNumberName":"V-component_of_CURRENTS"},"data":[0.0625,0.0694,0.0908,0.1159,0.1527,0.2066,0.2461,0,-0.0422,0.2616,0.275,0.2573,0.3054,0.315,0.3059,0.2862,0.268,0.2675,0.2985,0.3182,0.3049,0.2963,0.3011,0.3182,0.3956,0.4106,0.3278,0.221,0.1922,0.2904,0.3833,0.323,0.1858,0.0753,0.0475,0.0817,0.0998,0.0865,0.0625,0.0406,0.0176,0.0048,-0.0016,0.0032,0.0112,0.0069,0.0539,0.0673,0.0849,0.1057,0.1308,0.1564,0.157,0.0128,0,0.4453,0.393,0.2413,0.3118,0.3257,0.3225,0.3086,0.2953,0.2808,0.2792,0.2936,0.2963,0.2776,0.2419,0.2157,0.3027,0.4159,0.4111,0.3647,0.291,0.3145,0.4127,0.41,0.2787,0.1217,0.0379,0.0443,0.0598,0.0566,0.0443,0.0235,-0.0016,-0.0112,-0.0133,-0.0171,-0.0342,-0.0539,0.0518,0.0646,0.0785,0.094,0.1105,0.1233,0.1153,0.0641,0.0667,0.465,0.4026,0,0.409,0.3476,0.3161,0.3006,0.2947,0.2904,0.284,0.2792,0.275,0.267,0.2488,0.2184,0.2173,0.2953,0.3727,0.3401,0.2979,0.2771,0.3235,0.3518,0.2659,0.1244,0.0246,0.0155,0.0566,0.0747,0.0806,0.0641,0.0198,-0.0096,-0.0101,-0.0048,-0.0123,-0.0267,0.0475,0.0609,0.0737,0.0849,0.0988,0.1143,0.1239,0.1276,0.1634,0.3246,0.3006,0.118,0.4538,0.3631,0.2691,0.2488,0.2638,0.276,0.2824,0.2803,0.2734,0.2691,0.2605,0.2451,0.2221,0.229,0.3561,0.3113,0.2739,0.2371,0.2226,0.2483,0.2237,0.1377,0.0609,0.0416,0.0753,0.0897,0.1014,0.0876,0.0539,0.0267,0.0101,0.0037,-0.0016,-0.0091,0.0443,0.0593,0.0715,0.078,0.0902,0.1105,0.134,0.1628,0.2056,0.2723,0.2942,0.291,0.4293,0.4309,0.2301,0.1164,0.2061,0.2424,0.2654,0.2755,0.2766,0.2718,0.2659,0.2616,0.2456,0.2242,0.3219,0.3951,0.3246,0.2936,0.2509,0.2392,0.2365,0.1917,0.1345,0.103,0.0998,0.1073,0.1121,0.0801,0.0625,0.0758,0.0657,0.0384,0.0112,-0.0059,0.0416,0.0582,0.0721,0.0726,0.0801,0.1046,0.1388,0.1751,0.2178,0.2643,0.3038,0.3438,0.4207,0.4634,0,0.0246,0.1532,0.2088,0.244,0.2643,0.2723,0.2707,0.2664,0.2616,0.2515,0.2349,0.284,0.4474,0.3652,0.37,0.3444,0.3054,0.2851,0.2504,0.1938,0.1431,0.1201,0.1244,0.1095,0.0689,0.0513,0.0737,0.094,0.0806,0.0459,0.0246,0.039,0.0475,0.0747,0.0662,0.0635,0.0929,0.1479,0.1842,0.2178,0.2531,0.2862,0.3171,0.3465,0.3572,0.0977,0,0.1351,0.1954,0.2317,0.2552,0.2654,0.2664,0.26,0.2509,0.2419,0.229,0.2808,0.4736,0.4079,0.3545,0.3695,0.3449,0.3123,0.2723,0.2109,0.1559,0.1345,0.1351,0.1014,0.0694,0.0603,0.0577,0.0699,0.0699,0.0497,0.0448,0,0.0379,0.0769,0.0427,0.0208,0.0849,0.2088,0.2098,0.2184,0.236,0.2552,0.268,0.268,0.2493,0.1885,0.071,0,0.1949,0.2461,0.2552,0.2589,0.2579,0.2488,0.2349,0.2253,0.2146,0.2664,0.4762,0.4997,0.3492,0.3492,0.3401,0.3118,0.2718,0.2173,0.1698,0.1468,0.1308,0.0993,0.0769,0.071,0.063,0.0566,0.0475,0.0347,0.0347,0,0.0246,0,0.0075,-0.0112,0,0.2557,0.2173,0.2098,0.2152,0.2248,0.2264,0.2152,0.1842,0.1682,0.1399,0.0459,0,0.2194,0.2376,0.2445,0.244,0.2339,0.2194,0.2104,0.2034,0.2328,0.4223,0.5558,0.4474,0.3882,0.3599,0.3273,0.283,0.2301,0.1794,0.141,0.1175,0.0982,0.0865,0.0833,0.0715,0.0593,0.0475,0.0379,0.0336,0,0.0101,0.0,-0.0085,0,0.0347,0.2056,0.1842,0.1858,0.1922,0.1997,0.2013,0.2029,0.1575,0.1741,0.1479,0.1127,0,0.1751,0.2312,0.2355,0.2296,0.2189,0.2072,0.2002,0.197,0.2072,0.3198,0.4928,0.5158,0.4629,0.4111,0.354,0.2851,0.22,0.158,0.1132,0.1009,0.0934,0.0924,0.0934,0.0828,0.0651,0.0507,0.0411,0.0384,0,0,0,0,0,0.0694,0.1751,0.1602,0.1612,0.1709,0.181,0.1874,0.2194,0,0.1895,0.1522,0.1233,0,0,0.221,0.22,0.2136,0.2056,0.1981,0.1943,0.1938,0.1981,0.2344,0.3529,0.4426,0.4415,0.394,0.3225,0.2413,0.1767,0.1239,0.0945,0.0876,0.0865,0.0897,0.0945,0.0897,0.0726,0.055,0.0427,0.0411,0,0,0,0,0,0,0.1778,0.1511,0.1436,0.1532,0.1671,0.1751,0.1986,0.0432,0.1757,0.1666,0.1143,0,0,0.1826,0.1901,0.1949,0.1938,0.1906,0.1885,0.189,0.1922,0.1991,0.2424,0.3054,0.3278,0.3075,0.2461,0.181,0.1393,0.1089,0.0934,0.086,0.0812,0.0833,0.0886,0.0886,0.0769,0.0582,0.0432,0.0422,0,0,0,0,0,0,0.1463,0.1356,0.1383,0.1495,0.1602,0.1559,0.1463,0.0993,0.1447,0.1837,0,0,0,0.1607,0.1692,0.1815,0.1853,0.1831,0.1805,0.1794,0.1831,0.1863,0.1975,0.2194,0.2376,0.236,0.1981,0.1543,0.1297,0.1111,0.0977,0.0892,0.0828,0.0812,0.0833,0.0849,0.0769,0.0598,0.0443,0.0432,0,0,0,0,0,0,0.1249,0.1479,0.1687,0.1853,0.1591,0.1297,0.1095,0.0977,0.0977,0.1159,-0.0117,0.0139,0,0.1522,0.1602,0.1757,0.1799,0.1767,0.1698,0.1655,0.1687,0.1757,0.1815,0.1901,0.1991,0.2013,0.1874,0.1618,0.1388,0.1185,0.103,0.094,0.0881,0.0844,0.0844,0.0838,0.0758,0.0614,0.0475,0.0448,0,0,0,0,0,0,0,0.1709,0.2403,0.2595,0.1986,0.1164,0.0758,0.0582,0.04,0.0112,-0.0555,-0.0214,0,0.157,0.1634,0.1767,0.1794,0.1719,0.158,0.149,0.1516,0.1618,0.1692,0.1741,0.1778,0.181,0.1783,0.1666,0.1474,0.1255,0.1073,0.0977,0.0929,0.0881,0.0849,0.079,0.0689,0.0598,0.0502,0.0464,0,0,0,0.0155,0.0027,0,0,0,0.2429,0.1111,0.1778,0.1276,0.0593,0.0176,-0.0182,-0.0507,-0.1116,-0.0299,0,0.1783,0.1789,0.1842,0.1821,0.1687,0.1495,0.1361,0.1356,0.1442,0.1548,0.165,0.1655,0.1687,0.1676,0.1623,0.149,0.134,0.1185,0.1095,0.102,0.0934,0.0838,0.0705,0.0587,0.0513,0.047,0.0443,0,0,-0.0256,0.1783,0.1527,0.1009,0.0,0.0,0.1511,0.0481,0.1922,0.1735,0.087,0.0347,-0.0416,-0.0881,-0.141,0.0107,0,0.2429,0.2018,0.1959,0.1885,0.1714,0.1527,0.1345,0.1239,0.1217,0.1319,0.1479,0.15,0.1543,0.1564,0.1559,0.1474,0.1393,0.1297,0.1217,0.1121,0.0993,0.0844,0.0667,0.0513,0.0443,0.0416,0.0395,0,0,0.0908,0.3262,0.3006,0.2018,0,0,0.1612,0.2803,0.3022,0.204,0.118,0.0801,-0.0208,-0.1036,-0.1276,0,0.1447,0.2605,0.2146,0.2109,0.2045,0.1885,0.173,0.1538,0.1265,0.11,0.1153,0.1303,0.1313,0.1175,0.1084,0.1127,0.1287,0.1377,0.1335,0.1308,0.1217,0.1036,0.0828,0.0651,0.0513,0.0555,0.0454,0.0395,0.0224,-0.1757,0.0299,0,0,0,0,0,0.1415,0.3652,0.2403,0.1287,0.087,0.0876,0.0395,-0.0267,-0.0432,0.0144,0.2269,0.2189,0.2248,0.2296,0.2264,0.2157,0.2061,0.1906,0.1511,0.1228,0.1244,0.1474,0.1484,0.1046,0.0529,0.039,0.0812,0.1351,0.1586,0.1618,0.1436,0.1244,0.1164,0.1025,0.0753,0.0812,0.0603,0.0432,0.0448,-0.2707,-0.1858,-0.0064,0.0491,0,0,0,0.0913,0.2248,0.1148,0.0288,0.0005,0.0422,0.0833,0.0571,0.031,0.0518,0.1591,0.2066,0.2226,0.229,0.2317,0.2349,0.236,0.2253,0.1885,0.1511,0.1591,0.1981,0.2109,0.1436,0.0507,-0.0016,0.0358,0.149,0.1927,0.1858,0.1655,0.1575,0.1596,0.1169,0.0416,0.0272,0.0625,0.0422,0,-0.2605,-0.2803,-0.1431,0.0117,-0.0299,0,0,0.1639,0.0454,0.0774,0.0427,0.0101,0.0267,0.0491,0.0427,0.0406,0.1068,0.1709,0.1938,0.1799,0.189,0.2045,0.2269,0.2499,0.2525,0.2088,0.1495,0.1863,0.2355,0.2605,0.2146,0.0806,-0.0005,0.0577,0.1698,0.1794,0.1666,0.1901,0.2114,0.189,0.087,-0.0075,-0.071,-0.0112,0.0117,-0.0774,-0.1949,-0.2595,-0.2477,-0.1089,-0.032,-0.0059,0.0166,0.1639,0.0347,0.0678,0.0929,0.1249,0.1217,0.0155,0.0214,-0.0198,0.1805,0.2296,0.2226,0.1532,0.1468,0.157,0.1762,0.2237,0.2798,0.2403,0.1431,0.1895,0.2403,0.2702,0.2547,0.1356,0.0395,0.1313,0.2007,0.1479,0.1431,0.2333,0.3155,0.291,0.0806,0.0112,0.0064,0.0085,-0.0032,-0.1554,-0.0828,-0.1484,-0.1975,-0.1372,-0.0187,-0.0374,0.0139,0.1255,0.0833,0.0694,0.1009,0.1586,0.1426,0,0,-0.0796,0.3219,0.3711,0.3753,0.157,0.1335,0.1324,0.1388,0.1938,0.2942,0.2707,0.1826,0,0,0,0.3006,0.1981,0.0977,0.1687,0.2269,0.1121,0.1196,0.1853,0.2771,0.3454,0,-0.0395,0.1169,0.094,0.0096,0,-0.1062,-0.141,-0.1676,-0.1351,-0.0747,-0.1057,-0.086,0.0091,0,0,0,0.1068,0.0251,-0.0192,-0.0011,0,0.5093,0.4853,0.4303,0,0,0,0,0,0,0,0.1927,-0.1004,-0.0192,0.0801,0.3278,0.1933,0.0411,0,0,0.1789,0.2643,0.1121,0.1741,0.3193,-0.0438,0.1137,0,0,0,0,0,-0.1426,-0.1458,-0.1201,-0.1345,-0.1794,-0.2061,-0.2018,-0.1057,-0.0699,-0.0507,0.0187,-0.055,-0.0662,-0.0176,0.0571,0.4853,0.4293,0.3348,0.0945,0.0598,0.0497,0.0796,0.0886,0.0694,0.0731,0.1468,-0.0283,0.0593,0.1474,0.2563,0.1757,0.0128,-0.0085,0.0117,0.2387,0.3631,0,0,0,-0.2419,0.1895,0.0294,0.0587,0,0,0,0,-0.1292,-0.1009,-0.1532,-0.2109,-0.2461,-0.2611,-0.1634,-0.134,-0.1372,-0.0838,-0.0801,-0.0881,-0.0374,0.0849,0.2686,0.2686,0.2098,0.1052,0.0443,0.0368,0.1559,0.166,0.0203,0.1468,0.1191,0.1436,0.157,0.0523,0.1799,0.1682,0.0747,-0.0304,0.023,0.2056,0.299,0.0,0.0,-0.0726,-0.2461,0.0005,0.0491,0.1543,0,0,0,0,0,0,0,0,0,-0.2274,-0.1159,-0.1281,-0.1879,-0.1036,-0.0833,-0.0673,-0.0315,0.0422,0.1313,0.1634,0.1372,0.0208,-0.0304,-0.0262,0.1527,0.1548,-0.0982,0,0,0,0,-0.031,0.1532,0.0998,0.0747,-0.0998,0,0,0,0,0,-0.2595,-0.1223,-0.0246,0.0379,0.1692,0,0,0,0,0,0,0,0,0,0,0,0,-0.2034,-0.0801,-0.0726,-0.0529,-0.0214,0.0288,0.1004,0.149,0.1522,0,0,0,0,0,0,0,0,0,0,0,0,0.047,0.0635,-0.1559,0,0,0,0,0,-0.2744,-0.0892,0.0096,-0.0059,0.0662,0,0,0,0,0,0,0,0,0,0,0,0,0,0,0,0,0,0,0,0,0,0,0,0,0,0,0,0,0,0,0,0,0,0,0,0,0,0,0,0,0,-0.1111,0.04,0.0283,-0.0673,-0.0587,0,0,0,0,0,0,0,0,0,0,0,0,0,0,0,0,0,0,0,0,0,0,0,0,0,0,0,0,0,0,0,0,0,0,0,0,0,0,0,0,0,-0.0619,0.1618,0.0566,-0.0881,-0.1458,0,0,0,0,0,0,0,0,0,0,0,0,0,0,0,0,0,0,0,0,0,0,0,0,0,0,0,0,0,0,0,0,0,0,0,0,0,0,0,0,0,0,0.0998,0.1105,-0.0993,-0.2435,0,0,0,0,0,0,0,0,0,0,0,0,0,0,0,0,0,0,0,0,0,0,0,0,0,0,0,0,0,0,0,0,0,0,0,0,0,0,0,0,0,0,-0.0705,0.1543,-0.1111,-0.331,0,0,0,0,0,0,0,0,0,0,0,0,0,0,0,0,0,0,0,0,0,0,0,0,0,0,0,0,0,0,0,0,0,0,0,0,0,0,0,0,0,0,-0.1372,0.1687,-0.1223,-0.3828,0,0,0,0,0,0,0,0,0,0,0,0,0,0,0,0,0,0,0,0,0,0,0,0,0,0,0,0,0,0,0,0,0,0,0,0,0,0,0,0,0,0,-0.1474,0.0881,-0.1084,-0.4031,0]}]],[[{"header":{"parameterUnit":"kt","parameterCategory":2,"dx":1,"dy":1,"la1":29.46422004699707,"la2":30.564109802246094,"lo1":-89.4342041015625,"lo2":-87.934326171875,"nx":46,"ny":34,"refTime":"2022-11-01T00:00:00:Z","depth":"2","parameterNumber":2,"parameterNumberName":"U-component_of_CURRENTS"},"data":[-0.0913,-0.0913,-0.0972,-0.102,-0.1004,-0.0822,-0.0678,0,-0.0262,-0.1153,-0.2024,-0.2157,-0.2082,-0.2002,-0.1757,-0.1554,-0.1527,-0.158,-0.1479,-0.1249,-0.1132,-0.102,-0.0561,0.0053,0.0673,0.1436,0.1794,0.1426,0.1095,0.1078,0.0747,0.039,0.047,0.0571,0.0395,0.0075,-0.0117,-0.0224,-0.0326,-0.0315,-0.0219,-0.0091,0.0,-0.0032,-0.0091,-0.0016,-0.0646,-0.0726,-0.078,-0.079,-0.071,-0.047,0.0011,0.031,0,-0.094,-0.2691,-0.2477,-0.1586,-0.1757,-0.1623,-0.1281,-0.0998,-0.0849,-0.0769,-0.0662,-0.0454,-0.0235,-0.032,-0.0753,-0.0347,0.0683,0.0956,0.0998,0.1175,0.1313,0.1329,0.1073,0.0694,0.0411,0.0182,-0.0064,-0.0149,0.0016,0.0187,0.0219,0.024,0.031,0.04,0.0464,0.0481,0.0507,-0.0491,-0.0561,-0.0614,-0.0625,-0.0609,-0.0577,-0.0609,-0.1025,-0.2029,-0.1954,-0.1244,0,-0.0715,-0.1586,-0.1618,-0.1244,-0.0785,-0.0443,-0.0224,-0.0085,0.0059,0.0176,0.0198,0.0,-0.0497,-0.0214,0.0902,0.1057,0.0726,0.0892,0.1095,0.1095,0.0844,0.0561,0.0486,0.0481,0.0523,0.0614,0.0566,0.0438,0.024,0.0005,-0.0123,-0.0155,-0.0171,-0.0256,-0.0326,-0.0374,-0.0427,-0.0464,-0.0481,-0.0529,-0.0694,-0.11,-0.1687,-0.1644,-0.1159,-0.2104,-0.2846,-0.2488,-0.2141,-0.1415,-0.0726,-0.024,0.0085,0.0278,0.0374,0.0427,0.0475,0.0481,0.0379,0.0027,0.0406,0.1377,0.1591,0.1388,0.1329,0.1388,0.1345,0.1239,0.1244,0.1207,0.0945,0.0561,0.0192,-0.0032,-0.0069,-0.0272,-0.0699,-0.103,-0.1233,-0.1452,-0.0299,-0.0256,-0.0262,-0.0278,-0.0288,-0.0331,-0.0464,-0.0726,-0.1052,-0.1217,-0.1345,-0.1986,-0.2728,-0.3609,-0.3289,-0.158,-0.0545,-0.0037,0.0304,0.0513,0.0641,0.0705,0.0715,0.0699,0.0689,0.0683,0.0587,0.1239,0.1901,0.1901,0.1975,0.1954,0.1927,0.1901,0.181,0.1522,0.0993,0.0534,0.0214,-0.0011,-0.0139,-0.0251,-0.031,-0.0481,-0.0726,-0.0897,-0.0497,-0.0315,-0.0155,-0.0053,-0.0016,-0.0016,-0.0101,-0.0272,-0.0464,-0.0598,-0.0673,-0.0742,-0.0619,-0.0464,0,0.0069,0.0219,0.0411,0.0593,0.0721,0.0817,0.0897,0.0934,0.0945,0.0934,0.095,0.0806,0.11,0.158,0.1698,0.1895,0.2029,0.2093,0.2007,0.1746,0.1356,0.0977,0.0694,0.0486,0.0422,0.039,0.0283,0.0133,-0.0016,0.0059,0.0192,-0.0603,-0.0464,-0.0272,0.0032,0.0288,0.0427,0.0374,0.0182,0.0011,-0.0075,-0.0037,0.0155,0.0603,0.1383,0.1853,0,0.0545,0.103,0.0961,0.095,0.0961,0.0993,0.1036,0.1068,0.1062,0.1057,0.0924,0.0828,0.1308,0.1393,0.1255,0.1612,0.1773,0.1692,0.1538,0.1388,0.1265,0.1036,0.0854,0.0828,0.0769,0.0705,0.063,0.0545,0.0459,0.0299,0,-0.0379,-0.0491,0.0,0.0587,0.1313,0.1239,0.0587,0.031,0.0224,0.0272,0.0448,0.0758,0.118,0.1393,0.1377,0,0.0785,0.1388,0.1132,0.1046,0.1041,0.1057,0.1057,0.1009,0.0956,0.086,0.0603,0.1036,0.1415,0.1276,0.1495,0.1692,0.1789,0.1874,0.1858,0.1623,0.1303,0.1137,0.1052,0.095,0.0902,0.0876,0.0854,0.0806,0.0737,0,-0.0763,0,-0.0064,-0.0123,0,0.0075,0.0182,0.0235,0.0272,0.0331,0.0427,0.0587,0.0822,0.0998,0.0988,0.0934,0,0.032,0.078,0.0956,0.0998,0.0988,0.0945,0.0865,0.0763,0.0731,0.055,0.0812,0.1559,0.1767,0.1842,0.2146,0.2435,0.2525,0.2194,0.1644,0.1372,0.1228,0.1062,0.0998,0.0972,0.0977,0.0988,0.0988,0.0956,0,-0.0128,-0.0085,-0.0043,0,-0.0363,-0.0411,0.0,0.016,0.0246,0.0278,0.0262,0.0107,0.0587,0.0993,0.0619,0.0459,0,0.0699,0.1228,0.0988,0.0876,0.0812,0.0742,0.0657,0.0561,0.0529,0.0518,0.0742,0.1367,0.1986,0.2371,0.2638,0.2766,0.2461,0.1746,0.1255,0.1089,0.0998,0.1009,0.1036,0.1052,0.1068,0.1095,0.1116,0.1111,0,0,0,0,0,0.0251,0.0374,0.0219,0.0203,0.024,0.0251,0.0224,0.0208,0,0.0005,-0.0011,-0.0037,0,0,0.0176,0.0443,0.0539,0.0523,0.0481,0.0427,0.0368,0.0336,0.0459,0.0699,0.1089,0.1612,0.1986,0.2146,0.1986,0.1468,0.1036,0.0881,0.086,0.0918,0.1004,0.1089,0.1159,0.1201,0.1212,0.1223,0.1212,0,0,0,0,0,0,0.008,0.0155,0.016,0.0187,0.0187,0.0182,0.0358,0.008,-0.0374,-0.0619,-0.0854,0,0,0.0064,0.0198,0.0267,0.0256,0.0235,0.0219,0.0214,0.0219,0.0283,0.0502,0.0801,0.1041,0.1249,0.1303,0.1164,0.0988,0.0881,0.087,0.0902,0.0961,0.1041,0.1143,0.1244,0.1292,0.1292,0.1281,0.126,0,0,0,0,0,0,0.0069,0.0251,0.0299,0.0133,-0.0027,-0.0053,0.0091,0.0021,-0.0048,0.0059,0,0,0,0.0005,0.0032,0.0048,0.0027,0.0016,0.0037,0.008,0.0144,0.0208,0.0304,0.0502,0.0758,0.0924,0.0913,0.0849,0.0865,0.0924,0.0977,0.1025,0.1073,0.1132,0.1212,0.1276,0.1297,0.1297,0.1297,0.1276,0,0,0,0,0,0,0.0486,0.0913,0.0625,0.0037,-0.0464,-0.0587,-0.0513,-0.0406,-0.0283,0.0117,0.0299,0.0149,0,-0.0037,-0.0096,-0.0144,-0.0182,-0.0187,-0.0149,-0.0059,0.0064,0.0171,0.0256,0.0384,0.0582,0.0796,0.0961,0.1052,0.1089,0.1105,0.1127,0.1153,0.1185,0.1217,0.1244,0.1255,0.1255,0.1276,0.1281,0.1244,0,0,0,0,0,0,0,0.0475,0.0326,-0.0625,-0.1046,-0.1121,-0.0998,-0.0812,-0.0625,-0.0395,-0.0443,-0.0609,0,-0.008,-0.023,-0.0331,-0.0395,-0.0406,-0.0347,-0.0224,-0.008,0.0069,0.0192,0.0326,0.0523,0.0753,0.094,0.1062,0.1132,0.1143,0.1132,0.1111,0.1084,0.1052,0.1014,0.1014,0.1073,0.1148,0.118,0.1159,0,0,0,-0.0144,-0.0288,0,0,0,-0.102,-0.1975,-0.1682,-0.1308,-0.1084,-0.0913,-0.063,-0.0219,0.0107,0.0208,0,-0.0155,-0.0422,-0.0577,-0.0641,-0.0635,-0.0577,-0.0464,-0.0315,-0.0139,0.0064,0.0294,0.0513,0.0699,0.0849,0.0972,0.1057,0.1078,0.1041,0.095,0.0844,0.078,0.0763,0.0817,0.0918,0.0998,0.1041,0.1062,0,0,0.0491,0.0507,-0.1591,-0.4015,-0.4773,-0.5035,-0.3081,-0.0251,0.032,0.0192,-0.0048,-0.023,-0.0144,0.0155,0.0523,0.0737,0,-0.0352,-0.0812,-0.0934,-0.0945,-0.0929,-0.0918,-0.0934,-0.0956,-0.094,-0.0849,-0.0635,-0.0331,0.0016,0.0406,0.0721,0.086,0.0844,0.0763,0.0673,0.0614,0.0619,0.0667,0.0758,0.0844,0.0902,0.0945,0.0972,0,0,-0.1265,-0.2093,-0.0737,0.0187,0,0,0.008,0.0149,0.0454,0.0737,0.0577,0.0283,0.0096,-0.0299,-0.0689,0,-0.1271,-0.213,-0.1607,-0.1452,-0.1393,-0.1404,-0.15,-0.1709,-0.1874,-0.1917,-0.1895,-0.1821,-0.1682,-0.1393,-0.0881,-0.0198,0.04,0.0646,0.0635,0.0587,0.0587,0.0651,0.0774,0.0897,0.0961,0.0956,0.0924,0.0902,-0.1388,-0.2435,-0.2098,0,0,0,0,0,-0.0043,-0.0133,-0.0438,-0.0694,-0.0651,-0.0689,-0.1201,-0.2734,-0.4218,-0.4373,-0.3556,-0.2744,-0.2408,-0.2178,-0.1981,-0.1901,-0.1986,-0.2077,-0.197,-0.1794,-0.173,-0.1837,-0.1986,-0.181,-0.1244,-0.0513,0.0219,0.0662,0.0753,0.0673,0.0657,0.079,0.0966,0.0945,0.071,0.0742,0.086,0.0833,-0.4517,-0.1975,-0.0208,0.0774,0.0929,0,0,0,-0.1265,-0.2584,-0.2771,-0.2846,-0.2739,-0.268,-0.276,-0.3006,-0.3364,-0.3748,-0.3807,-0.362,-0.3412,-0.2974,-0.2488,-0.2242,-0.2242,-0.213,-0.1751,-0.1303,-0.1089,-0.1345,-0.1623,-0.1356,-0.0614,0.0176,0.0609,0.0299,-0.0198,-0.0203,0.0053,0.0032,-0.0641,-0.1276,-0.0924,0.0016,0.0619,0.0796,0,-0.087,-0.1837,-0.1634,-0.071,-0.0085,0,0,-0.1436,-0.2985,-0.2904,-0.2707,-0.3161,-0.3849,-0.3833,-0.346,-0.3369,-0.3668,-0.417,-0.4437,-0.4266,-0.3668,-0.292,-0.2413,-0.2221,-0.2178,-0.2045,-0.1426,-0.0801,-0.0913,-0.1212,-0.0817,0.0155,0.078,-0.0027,-0.142,-0.1538,-0.0918,-0.0796,-0.1308,-0.1778,-0.1538,-0.0982,-0.0395,0.0133,0.0454,-0.4949,-0.2157,-0.1452,-0.1831,-0.2189,-0.275,-0.3358,-0.3919,-0.3545,-0.213,-0.1698,-0.1853,-0.2477,-0.3849,-0.4309,-0.402,-0.3572,-0.3396,-0.3914,-0.4415,-0.4506,-0.3876,-0.3075,-0.2488,-0.2082,-0.1821,-0.1628,-0.1554,-0.1719,-0.1885,-0.1436,-0.0844,0.0075,0.0715,-0.0721,-0.1906,-0.1399,-0.0609,-0.0438,-0.1073,-0.141,-0.0545,0.079,0.1164,0.1233,0.0566,-0.1351,-0.2098,-0.1484,-0.1853,-0.2504,-0.2648,-0.2552,-0.2985,-0.3513,-0.292,-0.1735,-0.1046,-0.0614,-0.0395,0,0,-0.0625,-0.1847,-0.3017,-0.4282,-0.4629,-0.3876,-0.3027,-0.2317,-0.1885,-0.1511,-0.0101,0.1041,0,0,0,-0.0545,-0.0625,-0.1041,-0.2072,-0.1255,0.0497,0.1436,0.149,0.1506,0.1858,0,0.0059,0.039,0.0246,-0.0166,0,-0.0838,-0.1676,-0.1805,-0.213,-0.2317,-0.2242,-0.1714,-0.1265,0,0,0,-0.0966,-0.1698,-0.1014,-0.0561,0,-0.0662,-0.1212,-0.1105,0,0,0,0,0,0,0,-0.0945,-0.1853,-0.1853,-0.165,-0.103,-0.0021,0.0619,0,0,-0.0224,-0.0828,-0.0427,0.1623,0.4661,0.6049,0.567,0,0,0,0,0,-0.0817,-0.1634,-0.1799,-0.2173,-0.2643,-0.3187,-0.3198,-0.2643,-0.2445,-0.2787,-0.283,-0.2531,-0.2712,-0.3305,-0.3615,-0.2894,-0.1965,-0.1559,-0.1773,-0.2018,-0.1596,-0.141,-0.212,-0.2851,-0.2766,-0.1532,-0.0609,-0.1249,-0.1853,-0.1575,-0.1111,-0.0913,0.0043,0.1703,0.228,0.2034,0,0,0,0.1783,0.339,0.157,-0.0133,0,0,0,0,-0.0673,-0.158,-0.2194,-0.3038,-0.3849,-0.3625,-0.3177,-0.3524,-0.3636,-0.3428,-0.3332,-0.3497,-0.3801,-0.4052,-0.3775,-0.3225,-0.2739,-0.2429,-0.2408,-0.2403,-0.2403,-0.2627,-0.3268,-0.4004,-0.3775,-0.3102,-0.2819,-0.205,-0.1116,-0.0625,-0.0187,-0.0187,-0.0721,0.0085,0.2136,0.2835,0.229,0.2419,0.3241,0.4058,0.3946,0.2365,0,0,0,0,0,0,0,0,0,-0.094,-0.2296,-0.3081,-0.3118,-0.2883,-0.3097,-0.3268,-0.3401,-0.3486,-0.338,-0.3187,-0.3011,-0.2424,-0.1415,-0.0812,-0.1223,-0.1356,-0.1004,0,0,0,0,-0.0491,-0.071,-0.0256,0.0032,0.0133,0,0,0,0,0,0.0908,0.2189,0.2435,0.1676,0.0758,0,0,0,0,0,0,0,0,0,0,0,0,-0.0833,-0.1895,-0.2237,-0.2456,-0.2648,-0.2664,-0.2317,-0.1596,-0.1148,0,0,0,0,0,0,0,0,0,0,0,0,-0.0288,-0.0304,-0.0032,0,0,0,0,0,0.0214,-0.047,-0.1335,-0.1164,-0.0635,0,0,0,0,0,0,0,0,0,0,0,0,0,0,0,0,0,0,0,0,0,0,0,0,0,0,0,0,0,0,0,0,0,0,0,0,0,0,0,0,0,0.0112,-0.0774,-0.1452,-0.0892,-0.0294,0,0,0,0,0,0,0,0,0,0,0,0,0,0,0,0,0,0,0,0,0,0,0,0,0,0,0,0,0,0,0,0,0,0,0,0,0,0,0,0,0,0.024,-0.0128,-0.0598,-0.0251,0.0176,0,0,0,0,0,0,0,0,0,0,0,0,0,0,0,0,0,0,0,0,0,0,0,0,0,0,0,0,0,0,0,0,0,0,0,0,0,0,0,0,0,0,-0.0368,-0.0374,-0.0545,-0.0262,0,0,0,0,0,0,0,0,0,0,0,0,0,0,0,0,0,0,0,0,0,0,0,0,0,0,0,0,0,0,0,0,0,0,0,0,0,0,0,0,0,0,0.0037,-0.0363,-0.078,-0.0609,0,0,0,0,0,0,0,0,0,0,0,0,0,0,0,0,0,0,0,0,0,0,0,0,0,0,0,0,0,0,0,0,0,0,0,0,0,0,0,0,0,0,0.0037,-0.0406,-0.0753,-0.0459,0,0,0,0,0,0,0,0,0,0,0,0,0,0,0,0,0,0,0,0,0,0,0,0,0,0,0,0,0,0,0,0,0,0,0,0,0,0,0,0,0,0,-0.0144,-0.008,0.024,0.0304,0]}],[{"header":{"parameterUnit":"kt","parameterCategory":2,"dx":1,"dy":1,"la1":29.46422004699707,"la2":30.564109802246094,"lo1":-89.4342041015625,"lo2":-87.934326171875,"nx":46,"ny":34,"refTime":"2022-11-01T00:00:00:Z","depth":"2","parameterNumber":3,"parameterNumberName":"V-component_of_CURRENTS"},"data":[0.063,0.0694,0.0913,0.1159,0.1522,0.205,0.2445,0,-0.0406,0.26,0.2728,0.2563,0.3038,0.3145,0.3065,0.2883,0.2718,0.2723,0.3038,0.3241,0.3107,0.3027,0.307,0.3241,0.4015,0.417,0.3353,0.2301,0.2018,0.3001,0.3919,0.3316,0.1954,0.0849,0.0577,0.0918,0.11,0.0972,0.0737,0.0523,0.0294,0.0166,0.0107,0.0149,0.023,0.0187,0.0539,0.0673,0.0849,0.1057,0.1303,0.1554,0.1564,0.0133,0,0.4378,0.3876,0.2397,0.3097,0.3235,0.3214,0.3091,0.2969,0.2835,0.2835,0.2985,0.3017,0.2835,0.2483,0.2221,0.3081,0.4213,0.4175,0.3721,0.2995,0.3235,0.4213,0.418,0.2872,0.1313,0.0481,0.0539,0.0694,0.0667,0.0545,0.0336,0.0091,-0.0005,-0.0021,-0.0053,-0.0224,-0.0422,0.0518,0.0646,0.0785,0.0934,0.11,0.1223,0.1148,0.0635,0.0657,0.456,0.3967,0,0.4036,0.3433,0.3139,0.3001,0.2953,0.292,0.2862,0.283,0.2792,0.2723,0.2547,0.2248,0.2237,0.3006,0.3785,0.3465,0.3049,0.2851,0.3321,0.3599,0.2739,0.1329,0.0336,0.0251,0.0657,0.0838,0.0897,0.0731,0.0294,0.0005,0.0,0.0059,-0.0011,-0.0155,0.0475,0.0609,0.0737,0.0844,0.0988,0.1132,0.1228,0.126,0.1612,0.3187,0.2963,0.1164,0.4437,0.3561,0.2659,0.2472,0.2632,0.276,0.283,0.2819,0.2766,0.2728,0.2654,0.2504,0.228,0.2349,0.3615,0.3166,0.2803,0.2435,0.2301,0.2563,0.2317,0.1452,0.0689,0.0502,0.0838,0.0977,0.11,0.0961,0.063,0.0363,0.0203,0.0144,0.0096,0.0027,0.0438,0.0587,0.0715,0.078,0.0902,0.11,0.1329,0.1612,0.2018,0.2675,0.2894,0.2862,0.4191,0.4213,0.2264,0.1164,0.2056,0.2419,0.2654,0.276,0.2776,0.2739,0.2691,0.2654,0.2504,0.2296,0.3268,0.3999,0.33,0.2995,0.2573,0.2461,0.2435,0.1991,0.1415,0.1111,0.1084,0.1153,0.1201,0.0881,0.071,0.0844,0.0747,0.0486,0.0219,0.0053,0.0411,0.0582,0.0715,0.0726,0.0801,0.1046,0.1383,0.1735,0.2152,0.2595,0.2985,0.3374,0.4122,0.4538,0,0.0256,0.1532,0.2082,0.2435,0.2643,0.2728,0.2718,0.268,0.2643,0.2541,0.2381,0.2883,0.4517,0.37,0.3748,0.3502,0.3113,0.292,0.2573,0.2007,0.1506,0.1276,0.1319,0.1169,0.0769,0.0593,0.0817,0.102,0.0886,0.055,0.0342,0.039,0.0475,0.0742,0.0662,0.0635,0.0929,0.1474,0.1831,0.2152,0.2493,0.2814,0.3113,0.3401,0.3508,0.0972,0,0.1356,0.1943,0.2312,0.2541,0.2648,0.2664,0.2605,0.2525,0.244,0.2312,0.284,0.4778,0.4122,0.3593,0.3743,0.3502,0.3182,0.2782,0.2168,0.1623,0.1415,0.142,0.1089,0.0763,0.0678,0.0657,0.078,0.0774,0.0582,0.0534,0,0.0384,0.0763,0.0427,0.0203,0.0849,0.2066,0.2082,0.2162,0.2328,0.2515,0.2638,0.2643,0.2461,0.1869,0.0705,0,0.1943,0.2445,0.2536,0.2579,0.2573,0.2488,0.236,0.2269,0.2168,0.2691,0.4794,0.5029,0.3534,0.3534,0.3449,0.3166,0.2771,0.2226,0.1751,0.1522,0.1367,0.1057,0.0833,0.078,0.0705,0.0641,0.055,0.0427,0.0427,0,0.0246,0,0.0064,-0.0117,0,0.2515,0.2146,0.2077,0.213,0.2216,0.2232,0.2125,0.1826,0.1666,0.1388,0.0459,0,0.2178,0.236,0.2435,0.2435,0.2339,0.2205,0.2114,0.205,0.2349,0.4245,0.5579,0.4506,0.3914,0.3636,0.3316,0.2872,0.2349,0.1842,0.1458,0.1228,0.1041,0.0924,0.0892,0.0785,0.0662,0.055,0.0459,0.0416,0,0.0101,0.0,-0.0096,0,0.0352,0.2018,0.1821,0.1837,0.1906,0.1975,0.1986,0.2007,0.1559,0.1725,0.1468,0.1121,0,0.1746,0.229,0.2344,0.229,0.2189,0.2082,0.2013,0.1986,0.2093,0.3219,0.4949,0.5184,0.4656,0.4143,0.3572,0.2888,0.2237,0.1623,0.118,0.1057,0.0988,0.0977,0.0988,0.0886,0.0721,0.0577,0.0486,0.0464,0,0,0,0,0,0.071,0.1719,0.1586,0.1602,0.1692,0.1794,0.1858,0.2173,0,0.1879,0.1511,0.1223,0,0,0.2189,0.2184,0.213,0.2061,0.1991,0.1954,0.1954,0.1997,0.2365,0.3545,0.4447,0.4442,0.3967,0.3251,0.2445,0.1805,0.1281,0.0993,0.0924,0.0913,0.0945,0.0993,0.095,0.0785,0.0609,0.0491,0.0486,0,0,0,0,0,0,0.1751,0.1495,0.1426,0.1522,0.166,0.1741,0.1975,0.0438,0.1746,0.165,0.1132,0,0,0.181,0.189,0.1949,0.1943,0.1911,0.189,0.1901,0.1933,0.2007,0.244,0.3075,0.33,0.3102,0.2488,0.1842,0.1431,0.1132,0.0977,0.0902,0.086,0.0881,0.0934,0.0934,0.0822,0.0641,0.0497,0.0491,0,0,0,0,0,0,0.1458,0.1351,0.1377,0.1495,0.1602,0.1564,0.1468,0.0998,0.1442,0.1826,0,0,0,0.1596,0.1682,0.1815,0.1853,0.1837,0.181,0.1805,0.1842,0.1879,0.1986,0.221,0.2392,0.2381,0.2002,0.157,0.1329,0.1148,0.1014,0.0929,0.087,0.0854,0.0881,0.0897,0.0817,0.0651,0.0502,0.0497,0,0,0,0,0,0,0.1255,0.1479,0.1682,0.1858,0.1607,0.1303,0.1105,0.0982,0.0982,0.1159,-0.0117,0.0182,0,0.1511,0.1596,0.1751,0.1799,0.1773,0.1703,0.1666,0.1703,0.1773,0.1831,0.1911,0.2007,0.2029,0.1895,0.1639,0.1415,0.1212,0.1062,0.0972,0.0918,0.0886,0.0886,0.0881,0.0806,0.0667,0.0534,0.0507,0,0,0,0,0,0,0,0.1698,0.2451,0.2611,0.1991,0.1169,0.0763,0.0593,0.0416,0.0123,-0.0545,-0.0069,0,0.1554,0.1623,0.1762,0.1794,0.1725,0.1586,0.15,0.1527,0.1628,0.1703,0.1751,0.1794,0.1826,0.1799,0.1682,0.1495,0.1276,0.11,0.1009,0.0961,0.0924,0.0892,0.0838,0.0742,0.0651,0.0561,0.0523,0,0,0,0.0091,0.0016,0,0,0,0.3775,0.2285,0.205,0.1297,0.0598,0.0187,-0.0176,-0.0502,-0.11,-0.0155,0,0.1767,0.1773,0.1837,0.1821,0.1687,0.15,0.1372,0.1367,0.1452,0.1554,0.166,0.1666,0.1698,0.1687,0.1639,0.1511,0.1361,0.1212,0.1121,0.1057,0.0977,0.0886,0.0758,0.0641,0.0571,0.0529,0.0502,0,0,-0.0358,0.1532,0.1404,0.0908,0.0,0.0,0.1826,0.1292,0.1922,0.1548,0.0849,0.0331,-0.0422,-0.0886,-0.141,0.0203,0,0.2387,0.1997,0.1949,0.1879,0.1714,0.1532,0.1356,0.126,0.1233,0.1335,0.149,0.1516,0.1559,0.1586,0.1575,0.1495,0.1415,0.1329,0.1249,0.1159,0.1036,0.0892,0.0715,0.0561,0.0497,0.0475,0.0454,0,0,0.079,0.2883,0.2782,0.181,0,0,-0.0043,0.1548,0.2226,0.1634,0.1105,0.0747,-0.024,-0.1057,-0.1351,0,0.141,0.2547,0.212,0.2093,0.2034,0.1885,0.1741,0.1559,0.1287,0.1121,0.118,0.1329,0.134,0.1207,0.1116,0.1159,0.1313,0.1404,0.1361,0.134,0.1249,0.1073,0.087,0.0699,0.0555,0.0598,0.0502,0.0448,0.0582,-0.1591,0.0497,0,0,0,0,0,0.0689,0.2467,0.1831,0.1078,0.0817,0.0822,0.0347,-0.0336,-0.0587,0.0107,0.22,0.213,0.2205,0.2269,0.2253,0.2157,0.2072,0.1922,0.1532,0.1249,0.1271,0.1495,0.1511,0.1084,0.0566,0.0432,0.0844,0.1377,0.1607,0.1644,0.1468,0.1276,0.1201,0.1084,0.0817,0.086,0.0646,0.0481,0.1159,-0.291,-0.1805,-0.0635,0.0155,0,0,0,0.0966,0.2125,0.1127,0.0288,0.0005,0.0395,0.0763,0.0448,0.0203,0.0459,0.1522,0.1986,0.2173,0.2274,0.2312,0.2349,0.2365,0.2264,0.1901,0.1527,0.1607,0.2002,0.2141,0.1479,0.055,0.0027,0.039,0.1522,0.1954,0.1885,0.1692,0.1671,0.1773,0.1426,0.0758,0.0438,0.0673,0.047,0,-0.2744,-0.2728,-0.1917,-0.0529,-0.0699,0,0,0.2365,0.0961,0.0662,0.0422,0.0085,0.0352,0.0534,0.0331,0.0363,0.1025,0.1644,0.1874,0.1799,0.189,0.2045,0.2274,0.2499,0.2509,0.2114,0.1474,0.189,0.2376,0.2686,0.2216,0.0838,0.0032,0.0635,0.1821,0.1927,0.1735,0.1975,0.2322,0.2371,0.1676,0.0715,-0.0288,-0.0043,0.0176,-0.1495,-0.2104,-0.2472,-0.2349,-0.1575,-0.1057,-0.0331,-0.0021,0.2339,0.0763,0.0283,0.0646,0.1127,0.1191,0.0336,0.0155,-0.0203,0.173,0.2184,0.2114,0.1522,0.1458,0.1538,0.1746,0.2205,0.2659,0.2467,0.1879,0.1933,0.2424,0.2824,0.2643,0.1404,0.0427,0.1474,0.2306,0.1842,0.1628,0.2445,0.3198,0.33,0.2045,0.142,0.0694,0.016,0.0053,-0.2995,-0.1719,-0.1794,-0.1959,-0.1548,-0.0699,-0.0641,0.0021,0.1244,0.0956,0.0182,0.0464,0.1345,0.1233,0,0,-0.0774,0.3006,0.3337,0.3348,0.1458,0.1303,0.1239,0.1319,0.1858,0.2654,0.2691,0.3171,0,0,0,0.3075,0.1757,0.1297,0.197,0.2648,0.1634,0.1773,0.2419,0.2739,0.4116,0,0.1207,0.1751,0.1004,0.0256,0,-0.2077,-0.1954,-0.1746,-0.1287,-0.0918,-0.0897,-0.0609,0.0011,0,0,0,0.1014,0.0192,-0.0246,-0.0166,0,0.4597,0.425,0.4095,0,0,0,0,0,0,0,0.3486,-0.0518,-0.0171,0.0657,0.3198,0.1607,0.0998,0,0,0.1714,0.2872,0.2344,0.1991,0.4485,0.0619,0.2894,0,0,0,0,0,-0.2104,-0.1746,-0.1073,-0.1057,-0.1105,-0.1127,-0.1313,-0.0769,-0.0539,-0.0363,0.0363,-0.047,-0.0641,-0.0299,0.0438,0.4319,0.3919,0.3305,0.0651,0.0299,0.0219,0.0497,0.0737,0.0438,0.0529,0.229,-0.0251,0.0336,0.1308,0.244,0.1596,0.0368,-0.0283,0.0101,0.2429,0.3882,0,0,0,-0.0342,0.3438,0.0694,0.0582,0,0,0,0,-0.1778,-0.0892,-0.0977,-0.1025,-0.0945,-0.1837,-0.1057,-0.0838,-0.0977,-0.0555,-0.0635,-0.0683,-0.0224,0.0742,0.2477,0.2627,0.1986,0.0865,0.0326,0.0128,0.1057,0.1426,0.0128,0.1057,0.1383,0.0539,0.1025,0.0432,0.165,0.1532,0.0491,-0.0422,0.0208,0.2563,0.3956,0.0,0.0,-0.0432,-0.1159,0.1084,0.1089,0.1623,0,0,0,0,0,0,0,0,0,-0.2157,-0.0582,-0.0598,-0.1463,-0.0731,-0.0534,-0.0363,-0.0096,0.0481,0.1265,0.158,0.1404,0.0427,0.0053,-0.0176,0.1127,0.1372,-0.063,0,0,0,0,-0.0448,0.1319,0.0913,0.0566,-0.0529,0,0,0,0,0,-0.1858,-0.0673,0.0331,0.079,0.1954,0,0,0,0,0,0,0,0,0,0,0,0,-0.1709,-0.0571,-0.0336,-0.0155,-0.0016,0.0352,0.0918,0.1372,0.1538,0,0,0,0,0,0,0,0,0,0,0,0,0.0486,0.055,-0.078,0,0,0,0,0,-0.2024,-0.0438,0.0625,0.0523,0.118,0,0,0,0,0,0,0,0,0,0,0,0,0,0,0,0,0,0,0,0,0,0,0,0,0,0,0,0,0,0,0,0,0,0,0,0,0,0,0,0,0,-0.0582,0.0747,0.0828,0.0053,0.0144,0,0,0,0,0,0,0,0,0,0,0,0,0,0,0,0,0,0,0,0,0,0,0,0,0,0,0,0,0,0,0,0,0,0,0,0,0,0,0,0,0,-0.0144,0.1885,0.0993,-0.0203,-0.0614,0,0,0,0,0,0,0,0,0,0,0,0,0,0,0,0,0,0,0,0,0,0,0,0,0,0,0,0,0,0,0,0,0,0,0,0,0,0,0,0,0,0,0.1308,0.1452,-0.0283,-0.1233,0,0,0,0,0,0,0,0,0,0,0,0,0,0,0,0,0,0,0,0,0,0,0,0,0,0,0,0,0,0,0,0,0,0,0,0,0,0,0,0,0,0,-0.0304,0.189,-0.0272,-0.1725,0,0,0,0,0,0,0,0,0,0,0,0,0,0,0,0,0,0,0,0,0,0,0,0,0,0,0,0,0,0,0,0,0,0,0,0,0,0,0,0,0,0,-0.094,0.2066,-0.0326,-0.2136,0,0,0,0,0,0,0,0,0,0,0,0,0,0,0,0,0,0,0,0,0,0,0,0,0,0,0,0,0,0,0,0,0,0,0,0,0,0,0,0,0,0,-0.1014,0.158,-0.0112,-0.2173,0]}]],[[{"header":{"parameterUnit":"kt","parameterCategory":2,"dx":1,"dy":1,"la1":29.46422004699707,"la2":30.564109802246094,"lo1":-89.4342041015625,"lo2":-87.934326171875,"nx":46,"ny":34,"refTime":"2022-11-01T00:00:00:Z","depth":"4","parameterNumber":2,"parameterNumberName":"U-component_of_CURRENTS"},"data":[-0.0881,-0.0881,-0.094,-0.0972,-0.0956,-0.0785,-0.0641,0,-0.024,-0.11,-0.1954,-0.2093,-0.2018,-0.1949,-0.1719,-0.1522,-0.1495,-0.1548,-0.1452,-0.1223,-0.1105,-0.0993,-0.0529,0.0112,0.0747,0.1495,0.1826,0.1442,0.1105,0.11,0.079,0.0438,0.0507,0.0593,0.0411,0.0091,-0.0096,-0.0198,-0.0294,-0.0283,-0.0192,-0.0069,0.0021,-0.0011,-0.0069,0.0011,-0.0619,-0.0694,-0.0747,-0.0753,-0.0673,-0.0438,0.0027,0.0326,0,-0.0897,-0.2589,-0.2392,-0.1532,-0.1698,-0.1586,-0.1255,-0.0972,-0.0828,-0.0747,-0.0641,-0.0432,-0.0219,-0.0299,-0.0715,-0.0256,0.0812,0.103,0.1036,0.1191,0.1329,0.1361,0.1111,0.0726,0.0432,0.0198,-0.0053,-0.0128,0.0037,0.0208,0.024,0.0267,0.0336,0.0416,0.0486,0.0502,0.0529,-0.047,-0.0534,-0.0582,-0.0598,-0.0582,-0.055,-0.0582,-0.0988,-0.1954,-0.1874,-0.1191,0,-0.0689,-0.1532,-0.1575,-0.1217,-0.0763,-0.0422,-0.0208,-0.0075,0.0069,0.0187,0.0214,0.0021,-0.0443,-0.0075,0.1046,0.1116,0.0758,0.0913,0.1111,0.1121,0.0876,0.0587,0.0497,0.0486,0.0539,0.063,0.0587,0.0454,0.0262,0.0021,-0.0107,-0.0139,-0.0155,-0.024,-0.031,-0.0347,-0.04,-0.0438,-0.0459,-0.0513,-0.0667,-0.1052,-0.1612,-0.157,-0.1121,-0.2034,-0.2739,-0.2397,-0.2072,-0.1377,-0.071,-0.0219,0.0101,0.0288,0.0374,0.0427,0.0481,0.0486,0.0395,0.0117,0.0555,0.1474,0.1639,0.142,0.1351,0.141,0.1372,0.1265,0.1255,0.1212,0.095,0.0571,0.0208,-0.0016,-0.0048,-0.0251,-0.0683,-0.1014,-0.1212,-0.142,-0.0251,-0.023,-0.0235,-0.0256,-0.0278,-0.0326,-0.0454,-0.0694,-0.0998,-0.1153,-0.1292,-0.1911,-0.2611,-0.3449,-0.3161,-0.1538,-0.0523,-0.0021,0.0315,0.0523,0.0641,0.0699,0.071,0.0694,0.0689,0.0694,0.0705,0.1351,0.197,0.1943,0.2002,0.1975,0.1949,0.1917,0.1815,0.1522,0.0993,0.0539,0.0224,0.0005,-0.0123,-0.0235,-0.0288,-0.0459,-0.0699,-0.087,-0.0208,-0.0203,-0.0123,-0.0037,-0.0011,-0.0021,-0.0107,-0.0267,-0.0443,-0.0566,-0.0641,-0.0715,-0.0603,-0.0448,0,0.0069,0.023,0.0416,0.0598,0.0726,0.0822,0.0892,0.0924,0.0934,0.0929,0.095,0.0854,0.1217,0.1709,0.1783,0.1927,0.205,0.2109,0.2018,0.1746,0.1351,0.0972,0.0699,0.0497,0.0438,0.0406,0.0299,0.0155,0.0005,0.008,0.0208,-0.0107,-0.0149,-0.0075,0.0107,0.0299,0.0422,0.0358,0.016,0.0,-0.0069,-0.0032,0.0144,0.0566,0.1324,0.1794,0,0.0539,0.102,0.0956,0.095,0.0961,0.0988,0.1025,0.1057,0.1057,0.1046,0.0956,0.0961,0.1468,0.149,0.1287,0.1634,0.1783,0.1698,0.1532,0.1383,0.126,0.1036,0.086,0.0838,0.078,0.0715,0.0646,0.0561,0.0475,0.0315,0,-0.0149,-0.0096,0.024,0.0667,0.1297,0.1196,0.055,0.0278,0.0208,0.0262,0.0432,0.0731,0.1137,0.1356,0.1351,0,0.0769,0.1361,0.1116,0.1041,0.1036,0.1046,0.1046,0.1004,0.095,0.0876,0.0721,0.1191,0.1516,0.1313,0.1511,0.1703,0.1794,0.1869,0.1853,0.1618,0.1303,0.1143,0.1062,0.0961,0.0908,0.0886,0.0865,0.0817,0.0747,0,0.016,0,0.0085,0.0166,0,0.0059,0.0155,0.0208,0.0246,0.031,0.0411,0.0566,0.0801,0.0977,0.0972,0.0924,0,0.031,0.0763,0.0945,0.0988,0.0977,0.094,0.086,0.0763,0.0742,0.0619,0.0934,0.1666,0.1821,0.1863,0.2152,0.2429,0.2515,0.2189,0.1639,0.1372,0.1233,0.1068,0.1004,0.0982,0.0982,0.0998,0.0998,0.0966,0,0.0203,0.0208,0.0192,0,-0.0331,-0.0395,-0.0021,0.0133,0.0214,0.0256,0.0246,0.0101,0.0577,0.0972,0.0609,0.0454,0,0.0678,0.1201,0.0966,0.087,0.0806,0.0742,0.0657,0.0561,0.0529,0.0539,0.0806,0.1452,0.2045,0.2392,0.2638,0.276,0.2451,0.1741,0.1255,0.1089,0.1004,0.1014,0.1041,0.1057,0.1073,0.11,0.1121,0.1116,0,0,0,0,0,0.0219,0.032,0.0182,0.0176,0.0208,0.0224,0.0208,0.0198,0,0.0,-0.0016,-0.0037,0,0,0.0171,0.0432,0.0534,0.0523,0.0475,0.0422,0.0363,0.0336,0.0464,0.0721,0.1121,0.1634,0.1997,0.2152,0.1986,0.1468,0.1041,0.0881,0.086,0.0918,0.1009,0.1095,0.1164,0.1201,0.1217,0.1223,0.1217,0,0,0,0,0,0,0.0043,0.0107,0.0139,0.016,0.0166,0.0166,0.0347,0.0064,-0.0395,-0.0619,-0.0838,0,0,0.0064,0.0192,0.0267,0.0256,0.023,0.0214,0.0208,0.0219,0.0283,0.0507,0.0812,0.1052,0.1255,0.1308,0.1164,0.0988,0.0881,0.0865,0.0902,0.0961,0.1041,0.1143,0.1244,0.1292,0.1292,0.1281,0.1265,0,0,0,0,0,0,0.0101,0.0256,0.0251,0.0117,-0.0032,-0.0064,0.0075,0.0,-0.0075,0.0032,0,0,0,0.0005,0.0032,0.0048,0.0027,0.0016,0.0032,0.0075,0.0139,0.0203,0.0299,0.0502,0.0763,0.0929,0.0913,0.0849,0.0865,0.0918,0.0972,0.102,0.1068,0.1127,0.1207,0.1276,0.1297,0.1303,0.1297,0.1276,0,0,0,0,0,0,0.0416,0.0822,0.0598,0.0032,-0.0464,-0.0587,-0.0523,-0.0427,-0.0304,0.0107,0.0491,0.0545,0,-0.0037,-0.0096,-0.0144,-0.0182,-0.0192,-0.0155,-0.0064,0.0053,0.016,0.0251,0.0379,0.0577,0.079,0.0956,0.1046,0.1084,0.11,0.1116,0.1143,0.118,0.1212,0.1239,0.1249,0.1255,0.1281,0.1281,0.1249,0,0,0,0,0,0,0,0.0763,0.1052,-0.0011,-0.0833,-0.1111,-0.1009,-0.0828,-0.0635,-0.0411,-0.0192,-0.0096,0,-0.008,-0.023,-0.0331,-0.039,-0.0406,-0.0352,-0.0235,-0.0085,0.0059,0.0187,0.032,0.0518,0.0747,0.094,0.1062,0.1121,0.1132,0.1121,0.1105,0.1084,0.1052,0.102,0.102,0.1078,0.1153,0.1185,0.1169,0,0,0,0.0005,0.0011,0,0,0,-0.0315,-0.0667,-0.0758,-0.0897,-0.1014,-0.0961,-0.0689,-0.0283,0.0075,0.0235,0,-0.0155,-0.0422,-0.0577,-0.0635,-0.0635,-0.0582,-0.0475,-0.0326,-0.0149,0.0053,0.0283,0.0502,0.0689,0.0838,0.0961,0.1046,0.1068,0.1036,0.095,0.0849,0.0785,0.0774,0.0828,0.0924,0.1004,0.1052,0.1068,0,0,0.0075,-0.0448,-0.2333,-0.4837,-0.6167,-0.606,-0.3054,-0.0411,-0.0315,-0.031,-0.039,-0.0491,-0.0539,-0.0278,0.0149,0.0326,0,-0.0352,-0.0806,-0.0929,-0.094,-0.0924,-0.0918,-0.0945,-0.0956,-0.094,-0.0849,-0.063,-0.0326,0.0021,0.0406,0.0721,0.0854,0.0844,0.0769,0.0683,0.063,0.063,0.0683,0.0769,0.0849,0.0908,0.095,0.0972,0,0,-0.204,-0.3182,-0.1506,-0.071,0,0,-0.0454,-0.1116,-0.102,-0.0464,-0.0251,-0.0432,-0.086,-0.0854,-0.0566,0,-0.1127,-0.1975,-0.1591,-0.1436,-0.1377,-0.1388,-0.149,-0.1698,-0.1858,-0.1895,-0.1863,-0.1767,-0.1618,-0.1329,-0.0849,-0.0187,0.0406,0.0651,0.0646,0.0598,0.0603,0.0662,0.0785,0.0897,0.0961,0.0956,0.0918,0.0897,-0.1351,-0.2413,-0.212,0,0,0,0,0,-0.0454,-0.1223,-0.15,-0.142,-0.1377,-0.1548,-0.213,-0.2712,-0.3444,-0.3908,-0.3337,-0.2616,-0.2301,-0.2088,-0.1922,-0.1863,-0.1959,-0.205,-0.1943,-0.1773,-0.1682,-0.1687,-0.1714,-0.1538,-0.1089,-0.047,0.0219,0.0662,0.0753,0.0689,0.0678,0.0812,0.1009,0.1078,0.0908,0.0849,0.087,0.0828,-0.5414,-0.3428,-0.165,-0.0358,0.0059,0,0,0,-0.0956,-0.1975,-0.2242,-0.2547,-0.2611,-0.2493,-0.2285,-0.236,-0.2867,-0.3412,-0.3524,-0.33,-0.3049,-0.268,-0.2322,-0.2141,-0.212,-0.1943,-0.1543,-0.1159,-0.0988,-0.1041,-0.1073,-0.0753,-0.0278,0.0198,0.0571,0.04,0.0053,0.0053,0.0272,0.04,0.0107,-0.024,-0.0037,0.0432,0.0683,0.079,0,-0.1137,-0.2322,-0.2178,-0.158,-0.1175,0,0,-0.0913,-0.1938,-0.204,-0.2312,-0.2782,-0.2963,-0.2942,-0.2963,-0.307,-0.3358,-0.3711,-0.3801,-0.3636,-0.3251,-0.275,-0.2296,-0.1938,-0.1639,-0.1463,-0.1255,-0.0785,-0.0459,-0.0448,-0.0176,0.0432,0.0678,0.0133,-0.0699,-0.0662,-0.0219,-0.0139,-0.0214,-0.0149,0.0363,0.0358,0.0037,0.0208,0.0459,-0.5222,-0.3657,-0.3059,-0.3161,-0.3593,-0.4613,-0.527,-0.5045,-0.346,-0.1853,-0.1607,-0.2045,-0.2707,-0.3043,-0.3225,-0.3284,-0.2958,-0.2883,-0.3369,-0.3673,-0.3652,-0.3305,-0.283,-0.229,-0.1725,-0.1164,-0.0945,-0.1463,-0.1591,-0.1244,-0.0598,-0.0005,-0.0117,0.0347,0.008,-0.0422,-0.0021,0.0262,0.0251,0.0272,0.0459,0.0908,0.1495,0.1281,0.0982,0.0571,-0.2082,-0.3785,-0.3241,-0.307,-0.3198,-0.3604,-0.4159,-0.4405,-0.4341,-0.3652,-0.283,-0.2018,-0.1078,-0.0566,0,0,-0.0336,-0.1329,-0.2547,-0.362,-0.3673,-0.2995,-0.2413,-0.1767,-0.1068,-0.0331,0.1233,0.2253,0,0,0,-0.0267,-0.0603,-0.0886,-0.0742,0.031,0.1372,0.1506,0.1757,0.2531,0.3139,0,-0.0491,-0.0523,0.0139,0.0304,0,-0.1538,-0.2915,-0.275,-0.2824,-0.3065,-0.3193,-0.2499,-0.181,0,0,0,-0.0662,-0.0966,-0.0294,0.0021,0,-0.0443,-0.079,-0.0694,0,0,0,0,0,0,0,0.0037,-0.071,-0.1313,-0.126,-0.0945,-0.0011,0.0507,0,0,-0.0214,-0.071,-0.0427,0.1196,0.3801,0.3545,0.1767,0,0,0,0,0,-0.1127,-0.2232,-0.2397,-0.2723,-0.2974,-0.3198,-0.3225,-0.3049,-0.291,-0.2787,-0.2104,-0.166,-0.1954,-0.2269,-0.2686,-0.2312,-0.1196,-0.0416,-0.0689,-0.1383,-0.1522,-0.166,-0.1853,-0.2104,-0.2477,-0.1628,-0.0763,-0.1506,-0.1959,-0.1506,-0.0662,-0.0011,0.0294,0.0235,0.1217,0.2322,0,0,0,0.0464,0.1564,0.2141,0.1735,0,0,0,0,-0.0694,-0.197,-0.2654,-0.2771,-0.3011,-0.2872,-0.2584,-0.2728,-0.275,-0.252,-0.2349,-0.244,-0.267,-0.2947,-0.2659,-0.1922,-0.1372,-0.1169,-0.142,-0.1986,-0.2301,-0.2595,-0.3647,-0.3609,-0.2467,-0.2007,-0.1981,-0.1655,-0.0972,-0.0497,-0.0246,-0.0214,-0.0614,0.0187,0.2963,0.4693,0.4992,0.4506,0.3065,0.2718,0.3438,0.2862,0,0,0,0,0,0,0,0,0,-0.0822,-0.1938,-0.244,-0.2344,-0.2056,-0.2104,-0.2221,-0.2376,-0.2456,-0.2312,-0.2018,-0.1858,-0.1676,-0.1575,-0.1511,-0.0833,-0.0187,-0.0064,0,0,0,0,-0.0272,-0.0326,-0.0128,0.0128,0.04,0,0,0,0,0,0.0384,0.1132,0.2007,0.2429,0.2045,0,0,0,0,0,0,0,0,0,0,0,0,-0.0651,-0.1495,-0.1773,-0.1927,-0.2024,-0.1954,-0.165,-0.1105,-0.0763,0,0,0,0,0,0,0,0,0,0,0,0,0.0075,0.023,0.0304,0,0,0,0,0,0.0059,0.0149,0.0502,0.0881,0.102,0,0,0,0,0,0,0,0,0,0,0,0,0,0,0,0,0,0,0,0,0,0,0,0,0,0,0,0,0,0,0,0,0,0,0,0,0,0,0,0,0,0.0144,0.0283,0.0053,-0.008,0.0064,0,0,0,0,0,0,0,0,0,0,0,0,0,0,0,0,0,0,0,0,0,0,0,0,0,0,0,0,0,0,0,0,0,0,0,0,0,0,0,0,0,0.0448,0.0945,0.0358,-0.0529,-0.0464,0,0,0,0,0,0,0,0,0,0,0,0,0,0,0,0,0,0,0,0,0,0,0,0,0,0,0,0,0,0,0,0,0,0,0,0,0,0,0,0,0,0,0.0966,0.0982,0.0032,-0.0096,0,0,0,0,0,0,0,0,0,0,0,0,0,0,0,0,0,0,0,0,0,0,0,0,0,0,0,0,0,0,0,0,0,0,0,0,0,0,0,0,0,0,0.0459,0.0966,0.0427,0.0037,0,0,0,0,0,0,0,0,0,0,0,0,0,0,0,0,0,0,0,0,0,0,0,0,0,0,0,0,0,0,0,0,0,0,0,0,0,0,0,0,0,0,0.0358,0.1111,0.0972,0.0406,0,0,0,0,0,0,0,0,0,0,0,0,0,0,0,0,0,0,0,0,0,0,0,0,0,0,0,0,0,0,0,0,0,0,0,0,0,0,0,0,0,0,0.0422,0.157,0.1805,0.0924,0]}],[{"header":{"parameterUnit":"kt","parameterCategory":2,"dx":1,"dy":1,"la1":29.46422004699707,"la2":30.564109802246094,"lo1":-89.4342041015625,"lo2":-87.934326171875,"nx":46,"ny":34,"refTime":"2022-11-01T00:00:00:Z","depth":"4","parameterNumber":3,"parameterNumberName":"V-component_of_CURRENTS"},"data":[0.0609,0.0683,0.0897,0.1137,0.149,0.1997,0.2376,0,-0.0411,0.2531,0.2648,0.2493,0.2958,0.3075,0.3027,0.2867,0.2712,0.2734,0.3059,0.3262,0.3129,0.3043,0.3086,0.3251,0.402,0.4164,0.338,0.2339,0.2061,0.3038,0.3946,0.3342,0.1986,0.0886,0.0619,0.0956,0.1137,0.1014,0.0785,0.0566,0.0342,0.0219,0.0155,0.0198,0.0272,0.023,0.0529,0.0662,0.0833,0.1036,0.1271,0.1516,0.1527,0.0128,0,0.4197,0.3727,0.2333,0.3017,0.3155,0.3155,0.3054,0.2947,0.283,0.284,0.3001,0.3038,0.2856,0.2509,0.2242,0.3086,0.4164,0.418,0.3753,0.3033,0.3278,0.4245,0.4202,0.2899,0.1345,0.0523,0.0582,0.0731,0.0699,0.0577,0.0374,0.0133,0.0037,0.0027,-0.0011,-0.0182,-0.0379,0.0513,0.063,0.0769,0.0918,0.1073,0.1191,0.1116,0.0614,0.0635,0.4341,0.3812,0,0.3882,0.3321,0.3054,0.2947,0.2915,0.2894,0.2851,0.283,0.2803,0.2744,0.2573,0.2274,0.2269,0.299,0.3764,0.3497,0.3081,0.2894,0.3364,0.3631,0.276,0.1361,0.0379,0.0288,0.0689,0.087,0.0924,0.0758,0.032,0.0037,0.0037,0.0096,0.0032,-0.0112,0.047,0.0598,0.0726,0.0833,0.0966,0.1105,0.1191,0.1217,0.1543,0.3033,0.2851,0.1121,0.4218,0.3401,0.2563,0.2408,0.2589,0.2723,0.2803,0.2808,0.276,0.2739,0.2664,0.2525,0.2301,0.2376,0.3609,0.3193,0.2824,0.2467,0.2339,0.2595,0.2344,0.1484,0.0721,0.0539,0.087,0.1004,0.1127,0.0982,0.0657,0.0395,0.024,0.0187,0.0139,0.008,0.0422,0.0582,0.0705,0.0769,0.0892,0.1078,0.1303,0.1564,0.1938,0.2541,0.2766,0.2739,0.3967,0.3999,0.2168,0.1132,0.2013,0.2381,0.2616,0.2734,0.276,0.2734,0.2691,0.2659,0.2509,0.2312,0.3278,0.3962,0.3316,0.3017,0.26,0.2493,0.2467,0.2018,0.1447,0.1137,0.1111,0.118,0.1228,0.0908,0.0731,0.087,0.078,0.0518,0.0262,0.0096,0.0358,0.0555,0.071,0.0715,0.0796,0.1036,0.1367,0.1698,0.2077,0.2477,0.284,0.3214,0.3914,0.4319,0,0.0251,0.1506,0.205,0.2397,0.2605,0.2696,0.2696,0.267,0.2632,0.2536,0.2387,0.2888,0.4463,0.3657,0.3769,0.3518,0.3139,0.2947,0.2595,0.2034,0.1532,0.1303,0.1345,0.1196,0.0796,0.0619,0.0838,0.1041,0.0913,0.0577,0.0374,0.031,0.0464,0.0667,0.0635,0.0635,0.0924,0.1463,0.1799,0.2098,0.2397,0.2691,0.2974,0.3246,0.3353,0.095,0,0.134,0.1911,0.2269,0.2499,0.2611,0.2632,0.2589,0.2509,0.2429,0.2312,0.2846,0.473,0.4031,0.362,0.3753,0.3524,0.3203,0.2803,0.2189,0.1644,0.1436,0.1447,0.1111,0.079,0.0699,0.0678,0.0801,0.0796,0.0603,0.0555,0,0.0571,0.0619,0.0395,0.0192,0.0844,0.2013,0.2045,0.2114,0.2258,0.2424,0.2536,0.2547,0.2376,0.1826,0.0694,0,0.1906,0.2392,0.2493,0.2536,0.2541,0.2461,0.2344,0.2258,0.2162,0.2691,0.4752,0.4928,0.3545,0.3545,0.3465,0.3182,0.2787,0.2242,0.1773,0.1543,0.1383,0.1078,0.0854,0.0801,0.0726,0.0667,0.0577,0.0448,0.0454,0,0.0454,0,0.0032,-0.0139,0,0.236,0.2109,0.2034,0.2082,0.2157,0.2168,0.2066,0.1778,0.1628,0.1367,0.0454,0,0.213,0.2312,0.2397,0.2403,0.2317,0.2189,0.2109,0.2045,0.2349,0.4223,0.5473,0.4442,0.3903,0.3641,0.3321,0.2883,0.236,0.1853,0.1468,0.1239,0.1052,0.094,0.0908,0.0801,0.0683,0.0577,0.0481,0.0443,0,0.0155,0.0,-0.0149,0,0.031,0.1826,0.1794,0.1805,0.1869,0.1933,0.1943,0.1959,0.1527,0.1687,0.1436,0.11,0,0.1714,0.2242,0.2306,0.2264,0.2173,0.2072,0.2013,0.1986,0.2093,0.3219,0.4885,0.5093,0.4602,0.4138,0.3572,0.2894,0.2242,0.1634,0.1191,0.1068,0.0998,0.0988,0.0993,0.0897,0.0731,0.0593,0.0502,0.0481,0,0,0,0,0,0.0619,0.1511,0.1559,0.1575,0.1666,0.1762,0.1826,0.2114,0,0.1831,0.1484,0.1201,0,0,0.2141,0.2152,0.2109,0.205,0.1986,0.1949,0.1954,0.1997,0.2365,0.3534,0.441,0.4399,0.3956,0.3251,0.2451,0.1815,0.1292,0.1004,0.094,0.0929,0.0956,0.0998,0.0956,0.0796,0.0625,0.0507,0.0502,0,0,0,0,0,0,0.1479,0.1431,0.1415,0.1506,0.1639,0.1719,0.1938,0.0459,0.1709,0.1618,0.1111,0,0,0.1773,0.1863,0.1933,0.1933,0.1906,0.189,0.1901,0.1938,0.2013,0.2435,0.3065,0.3294,0.3097,0.2488,0.1847,0.1436,0.1143,0.0988,0.0913,0.087,0.0886,0.094,0.094,0.0828,0.0651,0.0507,0.0507,0,0,0,0,0,0,0.1191,0.1361,0.1372,0.15,0.1612,0.157,0.1474,0.103,0.1431,0.1783,0,0,0,0.157,0.1666,0.1799,0.1842,0.1831,0.181,0.181,0.1842,0.1879,0.1986,0.2205,0.2392,0.2376,0.2002,0.1575,0.1329,0.1153,0.1025,0.0934,0.0876,0.086,0.0886,0.0902,0.0822,0.0662,0.0513,0.0507,0,0,0,0,0,0,0.1014,0.142,0.1639,0.1869,0.1676,0.1345,0.1137,0.1004,0.0993,0.1143,-0.0123,0.0246,0,0.149,0.1575,0.1741,0.1794,0.1767,0.1703,0.1666,0.1703,0.1773,0.1831,0.1911,0.2002,0.2024,0.189,0.1639,0.1415,0.1217,0.1068,0.0977,0.0918,0.0892,0.0892,0.0892,0.0812,0.0678,0.0545,0.0523,0,0,0,0,0,0,0,0.1452,0.2408,0.26,0.2013,0.126,0.0838,0.0619,0.0443,0.0144,-0.0475,0.0342,0,0.1532,0.1602,0.1751,0.1789,0.1719,0.1586,0.1506,0.1532,0.1628,0.1703,0.1746,0.1789,0.1821,0.1794,0.1682,0.1495,0.1281,0.1105,0.1014,0.0966,0.0929,0.0902,0.0849,0.0753,0.0662,0.0577,0.0539,0,0,0,-0.0005,-0.0534,0,0,0,0.4415,0.3385,0.204,0.1201,0.0726,0.032,-0.0085,-0.0464,-0.0956,0.0016,0,0.173,0.1751,0.1821,0.181,0.1687,0.15,0.1372,0.1372,0.1452,0.1554,0.1655,0.166,0.1692,0.1682,0.1634,0.1506,0.1361,0.1212,0.1127,0.1062,0.0988,0.0897,0.0774,0.0657,0.0587,0.055,0.0518,0,0,-0.0048,0.031,0.0203,0.0539,0.0,0.0,0.2953,0.292,0.1741,0.0934,0.0603,0.0139,-0.0507,-0.102,-0.1324,-0.0166,0,0.2258,0.1975,0.1933,0.1869,0.1709,0.1538,0.1367,0.1276,0.1249,0.134,0.1495,0.1522,0.1564,0.1586,0.1575,0.149,0.1415,0.1329,0.1255,0.1169,0.1046,0.0908,0.0731,0.0582,0.0513,0.0491,0.047,0,0,0.1596,0.063,0.1474,0.1078,0,0,-0.0256,0.1393,0.1351,0.0731,0.0443,0.0032,-0.0731,-0.1468,-0.1458,0,0.1265,0.2349,0.2082,0.2056,0.2007,0.1879,0.1746,0.1575,0.1313,0.1153,0.1212,0.1361,0.1388,0.1276,0.1175,0.1185,0.1319,0.141,0.1367,0.1345,0.1255,0.1078,0.0886,0.071,0.0566,0.0598,0.0513,0.0459,0.1725,-0.0336,0.1917,0,0,0,0,0,-0.0053,0.1356,0.1046,0.0657,0.0347,0.0176,-0.0288,-0.0886,-0.0902,0.0037,0.1981,0.1927,0.2082,0.2168,0.2189,0.2141,0.2077,0.1938,0.1559,0.1287,0.1308,0.1564,0.1623,0.1308,0.0822,0.0582,0.087,0.1388,0.1586,0.1628,0.1463,0.1255,0.1137,0.1111,0.0918,0.0892,0.0651,0.0486,0.3454,-0.1655,-0.0427,-0.0876,-0.0481,0,0,0,0.1639,0.2157,0.1191,0.0662,0.0315,0.0395,0.0224,-0.0027,-0.0053,0.0347,0.1372,0.1762,0.1981,0.2098,0.221,0.2317,0.2339,0.2232,0.1863,0.1522,0.1623,0.1981,0.2125,0.1671,0.0956,0.0342,0.0454,0.157,0.1954,0.1874,0.1671,0.1634,0.1735,0.1639,0.134,0.0838,0.0715,0.0481,0,-0.141,-0.1442,-0.1548,-0.1303,-0.087,0,0,0.4672,0.267,0.1095,0.0486,0.0529,0.0902,0.0283,0.0133,0.0267,0.0924,0.1495,0.1698,0.1666,0.1735,0.1943,0.2205,0.2339,0.2205,0.1698,0.1191,0.1538,0.2168,0.2461,0.2024,0.102,0.0529,0.086,0.1949,0.2066,0.1821,0.1901,0.2125,0.2296,0.1879,0.1399,0.086,0.0331,0.0198,-0.1933,-0.0929,-0.1431,-0.1313,-0.1196,-0.1025,0.0,0.0481,0.4666,0.2803,0.1361,0.0609,0.0785,0.1911,0.0299,0.0112,-0.0203,0.15,0.1986,0.189,0.1313,0.1164,0.1377,0.15,0.1666,0.1805,0.1468,0.1452,0.11,0.2077,0.2488,0.2029,0.134,0.1057,0.1676,0.2264,0.1981,0.1596,0.1965,0.2413,0.2205,0.15,0.0753,0.134,0.0545,0.0171,-0.3865,-0.2253,-0.1511,-0.1228,-0.0721,-0.0278,0.0182,0.1175,0.26,0.2568,0.1815,0.094,0.0416,0.165,0,0,-0.0699,0.2461,0.2936,0.2883,0.0966,0.0801,0.0913,0.0902,0.0956,0.1297,0.1159,0.2963,0,0,0,0.2648,0.1591,0.1591,0.1938,0.2301,0.1121,0.1655,0.1981,0.1345,0.2798,0,0.1078,0.0988,0.0753,0.0448,0,-0.2824,-0.1895,-0.1164,-0.0598,-0.0208,0.0176,0.0646,0.1046,0,0,0,0.0918,0.0448,-0.0475,-0.0411,0,0.362,0.3438,0.331,0,0,0,0,0,0,0,0.473,0.031,-0.0256,0.008,0.2536,0.1078,0.1821,0,0,0.102,0.1794,0.2547,0.0609,0.3657,0.1367,0.292,0,0,0,0,0,-0.2141,-0.1271,-0.039,0.0005,0.0133,-0.0011,-0.0304,0.0011,0.0059,0.0059,0.1297,0.0224,-0.0502,-0.0464,0.0192,0.3289,0.2936,0.2371,-0.008,-0.0208,-0.0283,-0.0101,0.0192,0.0139,0.0171,0.323,0.0432,-0.0208,0.0272,0.1564,0.0785,0.0774,-0.0513,-0.0246,0.1596,0.268,0,0,0,0.2504,0.4261,0.0892,-0.0443,0,0,0,0,-0.1377,-0.0272,0.0182,0.0283,0.0101,-0.1089,-0.0192,0.0016,-0.0101,0.0379,0.0214,0.0032,0.0043,0.0481,0.1943,0.2077,0.1554,0.0278,0.0112,-0.0075,-0.0203,0.0406,0.0577,0.0336,0.1068,0.0246,0.008,-0.04,0.0662,0.0566,-0.0267,-0.0838,-0.0497,0.1687,0.3561,0.0,0.0,0.0075,0.2098,0.3518,0.1586,0.0101,0,0,0,0,0,0,0,0,0,-0.1799,-0.0395,-0.0085,-0.087,-0.0043,0.0107,0.0123,0.0187,0.047,0.1025,0.1308,0.1201,0.0726,0.0651,0.0411,-0.0203,0.0427,0.0886,0,0,0,0,-0.1143,0.0149,-0.0016,-0.0443,-0.0358,0,0,0,0,0,-0.0005,0.1249,0.2082,0.1532,0.1367,0,0,0,0,0,0,0,0,0,0,0,0,-0.1404,-0.0166,0.0027,0.0128,0.0187,0.0358,0.0646,0.1009,0.1089,0,0,0,0,0,0,0,0,0,0,0,0,-0.0262,-0.0475,-0.0064,0,0,0,0,0,-0.032,0.0534,0.094,0.1329,0.1329,0,0,0,0,0,0,0,0,0,0,0,0,0,0,0,0,0,0,0,0,0,0,0,0,0,0,0,0,0,0,0,0,0,0,0,0,0,0,0,0,0,-0.0246,0.0683,0.0155,0.0523,0.0758,0,0,0,0,0,0,0,0,0,0,0,0,0,0,0,0,0,0,0,0,0,0,0,0,0,0,0,0,0,0,0,0,0,0,0,0,0,0,0,0,0,0.0085,0.103,-0.0101,-0.0166,0.0251,0,0,0,0,0,0,0,0,0,0,0,0,0,0,0,0,0,0,0,0,0,0,0,0,0,0,0,0,0,0,0,0,0,0,0,0,0,0,0,0,0,0,0.0913,0.0342,-0.0262,-0.031,0,0,0,0,0,0,0,0,0,0,0,0,0,0,0,0,0,0,0,0,0,0,0,0,0,0,0,0,0,0,0,0,0,0,0,0,0,0,0,0,0,0,0.0561,0.0881,-0.016,-0.0812,0,0,0,0,0,0,0,0,0,0,0,0,0,0,0,0,0,0,0,0,0,0,0,0,0,0,0,0,0,0,0,0,0,0,0,0,0,0,0,0,0,0,0.0459,0.1191,-0.0182,-0.103,0,0,0,0,0,0,0,0,0,0,0,0,0,0,0,0,0,0,0,0,0,0,0,0,0,0,0,0,0,0,0,0,0,0,0,0,0,0,0,0,0,0,0.04,0.1377,-0.016,-0.0817,0]}]],[[{"header":{"parameterUnit":"kt","parameterCategory":2,"dx":1,"dy":1,"la1":29.46422004699707,"la2":30.564109802246094,"lo1":-89.4342041015625,"lo2":-87.934326171875,"nx":46,"ny":34,"refTime":"2022-11-01T00:00:00:Z","depth":"6","parameterNumber":2,"parameterNumberName":"U-component_of_CURRENTS"},"data":[-0.078,-0.0838,-0.0897,-0.0924,-0.0902,-0.0737,-0.0598,0,-0.0219,-0.1036,-0.1863,-0.2002,-0.1933,-0.1874,-0.1682,-0.1495,-0.1474,-0.1522,-0.1426,-0.1201,-0.1089,-0.0977,-0.0481,0.023,0.0934,0.166,0.1879,0.1447,0.1111,0.1116,0.0828,0.0481,0.0534,0.0603,0.0411,0.0096,-0.0085,-0.0187,-0.0278,-0.0262,-0.0176,-0.0053,0.0032,0.0,-0.0059,0.0021,-0.0598,-0.0662,-0.0705,-0.071,-0.0635,-0.0411,0.0043,0.0331,0,-0.0849,-0.244,-0.2269,-0.1468,-0.1623,-0.1532,-0.1228,-0.095,-0.0812,-0.0731,-0.0625,-0.0416,-0.0208,-0.0283,-0.0657,-0.0085,0.1041,0.1239,0.11,0.1201,0.134,0.1377,0.1137,0.0747,0.0443,0.0198,-0.0053,-0.0123,0.0053,0.0224,0.0256,0.0283,0.0347,0.0427,0.0497,0.0513,0.0539,-0.0443,-0.0502,-0.0545,-0.0566,-0.055,-0.0523,-0.0555,-0.094,-0.1853,-0.1773,-0.1127,0,-0.0657,-0.1463,-0.1511,-0.1185,-0.0742,-0.0406,-0.0203,-0.0069,0.0075,0.0192,0.0214,0.0032,-0.0283,0.0219,0.1383,0.142,0.0876,0.0934,0.1127,0.1143,0.0902,0.0609,0.0502,0.0486,0.0539,0.0635,0.0598,0.047,0.0272,0.0027,-0.0101,-0.0133,-0.0144,-0.023,-0.0299,-0.0331,-0.0379,-0.0416,-0.0443,-0.0497,-0.0641,-0.0988,-0.15,-0.1474,-0.1073,-0.1933,-0.2584,-0.2269,-0.197,-0.1324,-0.0689,-0.0208,0.0107,0.0283,0.0368,0.0422,0.0475,0.0486,0.04,0.039,0.0849,0.1778,0.1991,0.1564,0.1367,0.142,0.1393,0.1281,0.1255,0.1201,0.0945,0.0571,0.0214,-0.0005,-0.0037,-0.0246,-0.0673,-0.1004,-0.1196,-0.1399,-0.0149,-0.0187,-0.0208,-0.024,-0.0272,-0.0326,-0.0443,-0.0651,-0.0924,-0.1073,-0.1217,-0.1805,-0.2451,-0.323,-0.2979,-0.1468,-0.0502,-0.0016,0.032,0.0523,0.0635,0.0683,0.0694,0.0683,0.0678,0.0694,0.094,0.1628,0.2328,0.2173,0.205,0.1991,0.1965,0.1922,0.181,0.1511,0.0982,0.0539,0.023,0.0016,-0.0112,-0.0224,-0.0278,-0.0443,-0.0683,-0.0849,0.0123,0.0032,0.0005,-0.0016,-0.0011,-0.0027,-0.0112,-0.0262,-0.0416,-0.0529,-0.0603,-0.0689,-0.0582,-0.0438,0,0.0069,0.023,0.0411,0.0593,0.0721,0.0812,0.0876,0.0902,0.0913,0.0918,0.094,0.0982,0.1351,0.1975,0.2013,0.1997,0.2066,0.212,0.2018,0.1735,0.134,0.0966,0.0694,0.0502,0.0443,0.0411,0.031,0.0166,0.0016,0.0091,0.0224,0.0374,0.0379,0.0262,0.0214,0.031,0.0406,0.0336,0.0133,-0.0016,-0.0075,-0.0043,0.0117,0.0507,0.1233,0.1687,0,0.0523,0.0988,0.0929,0.0929,0.0945,0.0972,0.1004,0.1036,0.1041,0.1036,0.1025,0.1137,0.1773,0.1735,0.1372,0.165,0.1794,0.1698,0.1527,0.1372,0.1255,0.1036,0.086,0.0844,0.0785,0.0715,0.0651,0.0571,0.0481,0.0326,0,0.0149,0.0352,0.0427,0.0694,0.1249,0.1121,0.0491,0.023,0.0171,0.023,0.039,0.0673,0.1062,0.1287,0.1292,0,0.0737,0.1303,0.1078,0.102,0.1014,0.1025,0.1025,0.0993,0.094,0.0908,0.0945,0.1447,0.1794,0.1474,0.1532,0.1714,0.1789,0.1858,0.1842,0.1607,0.1297,0.1143,0.1062,0.0966,0.0913,0.0886,0.087,0.0822,0.0758,0,0.0187,0,0.0133,0.0262,0,0.0037,0.0107,0.016,0.0203,0.0272,0.0379,0.0534,0.0758,0.0934,0.0934,0.0897,0,0.0294,0.0731,0.0913,0.0966,0.0961,0.0924,0.0849,0.0758,0.0742,0.0796,0.1127,0.1821,0.1997,0.1938,0.2162,0.2419,0.2499,0.2173,0.1634,0.1372,0.1228,0.1068,0.1009,0.0988,0.0988,0.0998,0.1004,0.0966,0,0.0315,0.0326,0.0267,0,-0.0326,-0.04,-0.0053,0.0096,0.0171,0.0219,0.0224,0.0091,0.055,0.0934,0.0587,0.0443,0,0.0651,0.1148,0.0934,0.0849,0.0796,0.0731,0.0651,0.0555,0.0523,0.0603,0.095,0.1548,0.2061,0.2339,0.2525,0.2691,0.2429,0.173,0.1249,0.1089,0.1004,0.1014,0.1041,0.1062,0.1078,0.11,0.1121,0.1121,0,0,0,0,0,0.0203,0.0278,0.0139,0.0139,0.0171,0.0198,0.0187,0.0171,0,-0.0005,-0.0027,-0.0037,0,0,0.016,0.0416,0.0523,0.0518,0.047,0.0416,0.0358,0.0331,0.0464,0.0774,0.1212,0.1687,0.1997,0.2136,0.1975,0.1463,0.1036,0.0881,0.086,0.0918,0.1009,0.1095,0.1164,0.1201,0.1212,0.1223,0.1217,0,0,0,0,0,0,0.0016,0.0064,0.0107,0.0128,0.0139,0.0144,0.032,0.0011,-0.0432,-0.0614,-0.0822,0,0,0.0059,0.0182,0.0262,0.0251,0.0224,0.0208,0.0203,0.0214,0.0278,0.0502,0.0822,0.1073,0.1265,0.1308,0.1164,0.0988,0.0881,0.0865,0.0897,0.0956,0.1036,0.1143,0.1239,0.1287,0.1292,0.1281,0.1265,0,0,0,0,0,0,0.0085,0.0133,0.0117,0.0064,-0.0064,-0.0085,0.0043,-0.0043,-0.0123,-0.0021,0,0,0,0.0,0.0027,0.0043,0.0027,0.0011,0.0021,0.0069,0.0133,0.0198,0.0299,0.0497,0.0758,0.0929,0.0913,0.0844,0.086,0.0913,0.0966,0.1014,0.1062,0.1121,0.1201,0.1271,0.1297,0.1297,0.1292,0.1276,0,0,0,0,0,0,0.0368,0.0571,0.0374,0.0139,-0.023,-0.047,-0.0534,-0.0507,-0.04,0.008,0.0571,0.0667,0,-0.0037,-0.0101,-0.0144,-0.0182,-0.0198,-0.016,-0.0069,0.0048,0.0155,0.0246,0.0374,0.0571,0.0785,0.095,0.1041,0.1078,0.1089,0.1105,0.1137,0.1169,0.1207,0.1233,0.1249,0.1255,0.1281,0.1281,0.1249,0,0,0,0,0,0,0,0.0518,0.0844,0.0518,0.0064,-0.04,-0.0683,-0.0769,-0.0662,-0.0448,0.0,0.031,0,-0.008,-0.023,-0.0331,-0.039,-0.0411,-0.0358,-0.0246,-0.0096,0.0048,0.0176,0.0315,0.0513,0.0742,0.0934,0.1052,0.1116,0.1121,0.1111,0.11,0.1078,0.1052,0.102,0.1025,0.1084,0.1159,0.1191,0.1169,0,0,0,-0.0182,-0.0363,0,0,0,-0.0214,0.0043,0.047,0.0288,0.0048,-0.0149,-0.0069,-0.0021,0.0037,0.0198,0,-0.0155,-0.0422,-0.0571,-0.0635,-0.0641,-0.0587,-0.0486,-0.0342,-0.0166,0.0043,0.0267,0.0491,0.0673,0.0822,0.0945,0.1036,0.1057,0.103,0.095,0.0854,0.0796,0.078,0.0838,0.0934,0.1014,0.1057,0.1073,0,0,-0.0144,-0.1265,-0.2728,-0.3401,-0.3583,-0.3764,-0.252,-0.0945,-0.0683,-0.047,-0.0224,-0.0064,-0.0198,-0.0224,-0.0256,-0.04,0,-0.0347,-0.0796,-0.0918,-0.0934,-0.0924,-0.0924,-0.095,-0.0961,-0.0934,-0.0838,-0.0619,-0.032,0.0027,0.0411,0.0721,0.0854,0.0844,0.0774,0.0689,0.0641,0.0646,0.0694,0.078,0.0854,0.0913,0.095,0.0972,0,0,-0.1612,-0.2819,-0.2296,-0.2114,0,0,-0.0956,-0.1927,-0.1821,-0.1522,-0.1223,-0.1004,-0.1057,-0.0731,-0.0256,0,-0.1014,-0.1842,-0.1559,-0.141,-0.1351,-0.1367,-0.1474,-0.1666,-0.1799,-0.181,-0.173,-0.1564,-0.1351,-0.1057,-0.0673,-0.0128,0.0411,0.0657,0.0651,0.0614,0.0625,0.0678,0.079,0.0902,0.0956,0.0945,0.0913,0.0897,-0.1207,-0.2178,-0.1938,0,0,0,0,0,-0.0657,-0.205,-0.2328,-0.1783,-0.1692,-0.1703,-0.1778,-0.1986,-0.2621,-0.3337,-0.3118,-0.2493,-0.2152,-0.1917,-0.1762,-0.1719,-0.1805,-0.1826,-0.1692,-0.1559,-0.1431,-0.1281,-0.1137,-0.0929,-0.0662,-0.031,0.0235,0.0657,0.0758,0.0758,0.0801,0.0897,0.1014,0.1143,0.1116,0.0966,0.087,0.0822,-0.4325,-0.3508,-0.2488,-0.1361,-0.0913,0,0,0,-0.0363,-0.0796,-0.1009,-0.1372,-0.1698,-0.1741,-0.1805,-0.2114,-0.2616,-0.3123,-0.3219,-0.2931,-0.2638,-0.2322,-0.204,-0.1874,-0.1783,-0.15,-0.1062,-0.0774,-0.0651,-0.0566,-0.0374,-0.0016,0.0267,0.0347,0.0491,0.0534,0.0384,0.0384,0.0555,0.071,0.0673,0.0582,0.0689,0.0753,0.0737,0.0785,0,-0.1367,-0.2707,-0.2536,-0.2269,-0.2146,0,0,-0.0085,-0.008,-0.0278,-0.0977,-0.157,-0.1949,-0.2306,-0.2595,-0.2776,-0.3027,-0.3246,-0.3182,-0.2931,-0.2584,-0.2264,-0.1933,-0.1548,-0.1196,-0.1036,-0.1084,-0.0865,-0.0171,0.0278,0.0171,-0.008,0.0,0.0155,0.0016,0.0053,0.0326,0.0411,0.0609,0.0993,0.1313,0.1191,0.0705,0.0454,0.0571,-0.4159,-0.3049,-0.2712,-0.2488,-0.2563,-0.3187,-0.3497,-0.3348,-0.2499,-0.1719,-0.1586,-0.1538,-0.1735,-0.2173,-0.2632,-0.2782,-0.2515,-0.2461,-0.2872,-0.3081,-0.2867,-0.2461,-0.2162,-0.1805,-0.1303,-0.0806,-0.0603,-0.1372,-0.1239,-0.023,0.039,0.0929,-0.0256,-0.0721,0.023,0.0721,0.0977,0.0924,0.0812,0.1078,0.1255,0.1185,0.0694,0.0443,0.0416,0.0432,-0.1297,-0.2579,-0.2493,-0.2328,-0.2274,-0.2493,-0.2824,-0.3038,-0.3145,-0.2888,-0.2237,-0.1687,-0.1169,-0.0817,0,0,-0.0171,-0.0993,-0.2184,-0.3171,-0.3123,-0.2274,-0.1794,-0.1367,-0.0699,0.0529,0.1538,0.1458,0,0,0,0.0278,-0.0374,-0.1185,-0.0005,0.1452,0.2317,0.1292,0.1078,0.1554,0.1618,0,-0.0352,-0.0566,-0.0037,0.0561,0,-0.1078,-0.2109,-0.2066,-0.2141,-0.2264,-0.2317,-0.2109,-0.1922,0,0,0,0.0032,0.0123,-0.0064,-0.0315,0,-0.0326,-0.0571,-0.0486,0,0,0,0,0,0,0,0.0358,0.0166,-0.0182,-0.055,-0.0315,0.0363,0.0187,0,0,-0.0128,-0.055,0.0155,0.1084,0.2178,0.1981,0.0635,0,0,0,0,0,-0.0844,-0.1714,-0.1831,-0.2002,-0.213,-0.2205,-0.2285,-0.2258,-0.2066,-0.2018,-0.15,-0.1052,-0.1217,-0.1463,-0.2098,-0.1885,-0.0774,0.039,0.0609,-0.0379,-0.1297,-0.1837,-0.1938,-0.2077,-0.2477,-0.1799,-0.0876,-0.0956,-0.11,-0.0801,-0.0112,0.0763,0.0806,-0.0037,-0.0032,0.0304,0,0,0,-0.0128,0.0555,0.1447,0.1281,0,0,0,0,-0.0646,-0.15,-0.1869,-0.22,-0.2525,-0.2376,-0.2056,-0.2002,-0.1842,-0.1548,-0.1393,-0.1538,-0.1837,-0.2146,-0.1799,-0.0924,-0.0368,-0.0406,-0.0662,-0.0934,-0.1559,-0.2317,-0.2643,-0.2531,-0.2104,-0.1612,-0.1212,-0.0753,-0.04,-0.0262,-0.0368,-0.0763,-0.0694,-0.0005,0.1655,0.2936,0.2899,0.2435,0.0977,0.071,0.1863,0.1853,0,0,0,0,0,0,0,0,0,-0.0774,-0.1773,-0.2109,-0.189,-0.1506,-0.1458,-0.1538,-0.1671,-0.1703,-0.1458,-0.1046,-0.0998,-0.1137,-0.1287,-0.1623,-0.1207,-0.0464,-0.0267,0,0,0,0,-0.0101,-0.0166,0.008,0.0368,0.047,0,0,0,0,0,-0.0021,-0.0069,0.0358,0.1212,0.1506,0,0,0,0,0,0,0,0,0,0,0,0,-0.0582,-0.1361,-0.1628,-0.1757,-0.1815,-0.1725,-0.1399,-0.0902,-0.063,0,0,0,0,0,0,0,0,0,0,0,0,0.016,0.0262,0.0192,0,0,0,0,0,-0.0561,-0.0635,-0.0171,0.0176,0.0374,0,0,0,0,0,0,0,0,0,0,0,0,0,0,0,0,0,0,0,0,0,0,0,0,0,0,0,0,0,0,0,0,0,0,0,0,0,0,0,0,0,-0.0689,-0.0828,-0.0523,-0.0651,-0.0582,0,0,0,0,0,0,0,0,0,0,0,0,0,0,0,0,0,0,0,0,0,0,0,0,0,0,0,0,0,0,0,0,0,0,0,0,0,0,0,0,0,-0.024,-0.0219,-0.0278,-0.0619,-0.0529,0,0,0,0,0,0,0,0,0,0,0,0,0,0,0,0,0,0,0,0,0,0,0,0,0,0,0,0,0,0,0,0,0,0,0,0,0,0,0,0,0,0,0.1495,0.0801,-0.0043,-0.0149,0,0,0,0,0,0,0,0,0,0,0,0,0,0,0,0,0,0,0,0,0,0,0,0,0,0,0,0,0,0,0,0,0,0,0,0,0,0,0,0,0,0,0.0219,0.0155,-0.0016,0.008,0,0,0,0,0,0,0,0,0,0,0,0,0,0,0,0,0,0,0,0,0,0,0,0,0,0,0,0,0,0,0,0,0,0,0,0,0,0,0,0,0,0,0.0112,0.0384,0.0448,0.0539,0,0,0,0,0,0,0,0,0,0,0,0,0,0,0,0,0,0,0,0,0,0,0,0,0,0,0,0,0,0,0,0,0,0,0,0,0,0,0,0,0,0,0.0529,0.1127,0.0892,0.0763,0]}],[{"header":{"parameterUnit":"kt","parameterCategory":2,"dx":1,"dy":1,"la1":29.46422004699707,"la2":30.564109802246094,"lo1":-89.4342041015625,"lo2":-87.934326171875,"nx":46,"ny":34,"refTime":"2022-11-01T00:00:00:Z","depth":"6","parameterNumber":3,"parameterNumberName":"V-component_of_CURRENTS"},"data":[0.0555,0.0662,0.0865,0.1095,0.1431,0.1906,0.2264,0,-0.0416,0.2408,0.2515,0.2376,0.2819,0.2947,0.2963,0.283,0.2702,0.2734,0.3075,0.3284,0.3139,0.3049,0.3059,0.3107,0.3812,0.3983,0.339,0.2371,0.2098,0.3065,0.3956,0.3353,0.2007,0.0913,0.0641,0.0977,0.1159,0.1041,0.0817,0.0598,0.0374,0.0251,0.0192,0.023,0.0299,0.0256,0.0513,0.0641,0.0806,0.0993,0.1223,0.1452,0.1463,0.0123,0,0.3924,0.3502,0.2221,0.2872,0.3006,0.3043,0.299,0.291,0.2808,0.284,0.3006,0.3049,0.2872,0.2525,0.2242,0.2915,0.3759,0.4015,0.3764,0.3065,0.331,0.4266,0.4207,0.291,0.1367,0.0555,0.0609,0.0753,0.0721,0.0598,0.0395,0.0155,0.0069,0.0053,0.0021,-0.0155,-0.0352,0.0497,0.0614,0.0747,0.0892,0.1036,0.1143,0.1068,0.0577,0.0587,0.4026,0.3577,0,0.3647,0.3134,0.2899,0.2851,0.2851,0.2851,0.283,0.2824,0.2803,0.2755,0.2589,0.2296,0.2269,0.2686,0.3241,0.3401,0.3107,0.2936,0.339,0.3647,0.2776,0.1383,0.0411,0.032,0.071,0.0886,0.0934,0.0774,0.0342,0.0053,0.0059,0.0117,0.0059,-0.0085,0.0459,0.0582,0.0705,0.0812,0.094,0.1068,0.1137,0.1143,0.1426,0.2808,0.267,0.1046,0.3908,0.3171,0.2403,0.2301,0.2515,0.2664,0.276,0.2782,0.275,0.2734,0.267,0.2536,0.2317,0.229,0.3022,0.2654,0.2728,0.2504,0.2365,0.2621,0.2365,0.1506,0.0742,0.0566,0.0892,0.102,0.1137,0.0998,0.0673,0.0411,0.0262,0.0214,0.0171,0.0117,0.0374,0.0555,0.0683,0.0753,0.087,0.1052,0.1255,0.1479,0.1783,0.2339,0.2557,0.2541,0.3663,0.3705,0.2018,0.1073,0.1943,0.2317,0.2557,0.2686,0.2728,0.2712,0.268,0.2654,0.2509,0.2322,0.3001,0.3342,0.2942,0.2953,0.2621,0.252,0.2488,0.204,0.1463,0.1159,0.1132,0.1196,0.1244,0.0918,0.0747,0.0886,0.0796,0.0545,0.0288,0.0133,0.024,0.0448,0.0641,0.0699,0.0785,0.102,0.1335,0.1628,0.1938,0.228,0.2605,0.2963,0.3615,0.4004,0,0.024,0.1463,0.1981,0.2333,0.2547,0.2648,0.2664,0.2648,0.2616,0.2525,0.2387,0.2824,0.3972,0.3241,0.3609,0.3524,0.3155,0.2963,0.2611,0.205,0.1548,0.1324,0.1367,0.1217,0.0806,0.0635,0.0849,0.1052,0.0924,0.0593,0.039,0.0155,0.0368,0.0464,0.0582,0.0619,0.0918,0.1431,0.1741,0.1991,0.2232,0.2483,0.2744,0.3011,0.3123,0.0908,0,0.1308,0.1842,0.2189,0.2429,0.2552,0.2584,0.2552,0.2488,0.2413,0.2301,0.2808,0.4335,0.3572,0.3438,0.3732,0.3534,0.3219,0.2814,0.2205,0.166,0.1452,0.1458,0.1127,0.0801,0.0715,0.0694,0.0806,0.0806,0.0614,0.0566,0,0.0331,0.032,0.0336,0.0176,0.0833,0.1927,0.1965,0.2024,0.2136,0.2269,0.2365,0.2381,0.2237,0.1746,0.0673,0,0.1842,0.229,0.2408,0.2472,0.2488,0.2424,0.2317,0.2242,0.2152,0.2664,0.4389,0.4383,0.3203,0.3449,0.347,0.3193,0.2798,0.2253,0.1778,0.1548,0.1393,0.1084,0.086,0.0812,0.0742,0.0678,0.0587,0.0459,0.0464,0,0.0267,0,0.0,-0.0149,0,0.2221,0.2024,0.1954,0.1991,0.2045,0.205,0.1959,0.1703,0.1559,0.1319,0.0443,0,0.204,0.2226,0.2333,0.2355,0.2285,0.2168,0.2093,0.204,0.2344,0.3994,0.4917,0.3876,0.3583,0.3534,0.33,0.2878,0.236,0.1853,0.1474,0.1244,0.1057,0.0945,0.0908,0.0806,0.0694,0.0587,0.0491,0.0454,0,0.023,0.0,-0.0176,0,0.0299,0.1719,0.173,0.1741,0.1799,0.1858,0.1869,0.1869,0.1479,0.1612,0.1393,0.1073,0,0.1655,0.2152,0.2242,0.2226,0.2152,0.2056,0.2002,0.1986,0.2093,0.3155,0.4517,0.4576,0.4122,0.3828,0.346,0.2872,0.2237,0.1634,0.1196,0.1073,0.1004,0.0988,0.0993,0.0897,0.0737,0.0603,0.0513,0.0491,0,0,0,0,0,0.0593,0.1399,0.15,0.1532,0.1612,0.1703,0.1783,0.1991,0,0.1719,0.1442,0.1169,0,0,0.2056,0.2098,0.2082,0.2034,0.1975,0.1943,0.1949,0.1997,0.2365,0.3428,0.4148,0.409,0.3732,0.3155,0.2435,0.1815,0.1297,0.1009,0.0945,0.0929,0.0956,0.0998,0.0956,0.0796,0.063,0.0518,0.0507,0,0,0,0,0,0,0.1319,0.1356,0.1383,0.1463,0.1586,0.1682,0.1826,0.0513,0.1596,0.1575,0.1073,0,0,0.1714,0.1826,0.1906,0.1917,0.1895,0.1885,0.1901,0.1933,0.2007,0.2429,0.3017,0.3219,0.3054,0.2477,0.1842,0.1442,0.1143,0.0993,0.0918,0.087,0.0886,0.0934,0.0934,0.0828,0.0651,0.0513,0.0507,0,0,0,0,0,0,0.1089,0.1159,0.1324,0.1484,0.165,0.1612,0.1516,0.1137,0.1383,0.1703,0,0,0,0.1527,0.1628,0.1783,0.1831,0.1826,0.1805,0.1805,0.1842,0.1879,0.1986,0.22,0.2381,0.2365,0.1997,0.157,0.1329,0.1153,0.1025,0.094,0.0876,0.086,0.0881,0.0897,0.0822,0.0662,0.0518,0.0513,0,0,0,0,0,0,0.0977,0.1046,0.1345,0.1815,0.1991,0.1714,0.142,0.1207,0.1111,0.1169,-0.0091,0.0144,0,0.1447,0.1543,0.1719,0.1783,0.1762,0.1703,0.1666,0.1703,0.1767,0.1826,0.1906,0.1991,0.2013,0.1885,0.1634,0.1415,0.1212,0.1062,0.0972,0.0918,0.0886,0.0886,0.0886,0.0812,0.0678,0.0545,0.0523,0,0,0,0,0,0,0,0.102,0.1725,0.2178,0.1933,0.1762,0.1458,0.1143,0.0902,0.0593,-0.0187,0.0336,0,0.149,0.157,0.173,0.1773,0.1714,0.1586,0.1506,0.1532,0.1623,0.1698,0.1741,0.1778,0.181,0.1783,0.1671,0.149,0.1276,0.11,0.1009,0.0966,0.0929,0.0902,0.0854,0.0758,0.0667,0.0577,0.0539,0,0,0,-0.0069,-0.0561,0,0,0,0.2568,0.2472,0.1735,0.1404,0.1185,0.0844,0.0443,0.0203,-0.0352,0.016,0,0.1676,0.1709,0.1799,0.1799,0.1676,0.15,0.1377,0.1372,0.1452,0.1548,0.1644,0.165,0.1682,0.1666,0.1618,0.1495,0.1351,0.1207,0.1121,0.1062,0.0988,0.0902,0.0785,0.0667,0.0598,0.0555,0.0523,0,0,0.008,0.0256,0.0043,0.0443,0.0,0.0,0.0913,0.1933,0.1874,0.1025,0.063,0.0256,-0.0075,-0.0464,-0.0497,-0.0069,0,0.2141,0.1933,0.1906,0.1853,0.1698,0.1543,0.1377,0.1292,0.126,0.1351,0.1506,0.1532,0.157,0.1586,0.1564,0.1484,0.1415,0.1324,0.1255,0.1169,0.1052,0.0913,0.0742,0.0587,0.0529,0.0497,0.0475,0,0,0.267,0.0651,0.1249,0.0892,0,0,-0.118,0.0865,0.1244,0.0598,0.0331,0.0027,-0.0117,-0.095,-0.0918,0,0.1153,0.2194,0.2024,0.1997,0.1959,0.1863,0.1757,0.1602,0.1377,0.1223,0.1281,0.1436,0.1474,0.1431,0.134,0.1271,0.1324,0.1415,0.1361,0.1335,0.1249,0.1078,0.0892,0.0715,0.0561,0.0539,0.0513,0.0464,0.1901,0.1062,0.4074,0,0,0,0,0,-0.0246,0.0555,0.0822,0.0432,0.0379,0.0246,-0.0053,-0.0689,-0.0902,-0.0011,0.1805,0.1762,0.1901,0.1991,0.2045,0.2072,0.2061,0.1959,0.1671,0.1442,0.142,0.1607,0.1676,0.1532,0.1265,0.0972,0.0972,0.1393,0.1447,0.1479,0.1329,0.1052,0.0865,0.079,0.0689,0.0625,0.0614,0.0486,0.3807,-0.0224,0.15,-0.0208,-0.0347,0,0,0,0.1842,0.1666,0.1351,0.0993,0.0833,0.0598,0.0,-0.0144,-0.0144,0.0262,0.1228,0.1527,0.1692,0.1794,0.1943,0.2125,0.2178,0.2034,0.1628,0.1404,0.1527,0.1725,0.1805,0.1404,0.1046,0.0961,0.0849,0.1479,0.1623,0.1543,0.1329,0.1143,0.1185,0.1078,0.0934,0.0801,0.0689,0.0481,0,-0.016,0.0336,-0.0395,-0.0945,-0.079,0,0,0.3364,0.2771,0.213,0.1484,0.1223,0.0673,0.0144,0.0069,0.0203,0.0822,0.1335,0.1468,0.1415,0.1388,0.1586,0.1858,0.1895,0.166,0.1121,0.0902,0.0913,0.1415,0.1719,0.1084,0.0758,0.103,0.1249,0.1714,0.1623,0.1479,0.1447,0.1495,0.1479,0.079,0.0438,0.1068,0.0737,0.0422,-0.1564,0.0352,-0.0155,-0.0571,-0.0988,-0.1068,-0.0053,0.008,0.2579,0.2045,0.1821,0.1746,0.1554,0.1164,0.0224,0.0085,-0.0187,0.1297,0.1783,0.1666,0.1014,0.0758,0.0865,0.1068,0.0956,0.0785,0.0454,0.118,0.031,0.0902,0.1559,0.1228,0.1009,0.1217,0.1757,0.1831,0.1324,0.1313,0.1212,0.1249,0.0251,-0.0171,-0.0315,0.0566,0.0662,0.0384,-0.3129,-0.197,-0.1207,-0.0844,-0.0737,-0.0539,-0.0096,0.04,0.1564,0.1303,0.0988,0.1847,0.1057,0.1586,0,0,-0.0614,0.2061,0.2573,0.2504,0.0742,0.0299,0.0422,0.0582,0.0368,-0.0021,-0.0272,0.2168,0,0,0,0.2184,0.1687,0.1906,0.1933,0.1554,0.0112,0.095,0.0625,0.094,0.1105,0,0.0534,-0.0128,0.0214,0.0192,0,-0.2349,-0.1596,-0.0972,-0.0587,-0.0352,-0.0037,0.0368,0.0774,0,0,0,0.1271,0.1191,-0.0069,-0.0342,0,0.2953,0.275,0.2627,0,0,0,0,0,0,0,0.3006,0.1143,0.0107,-0.0101,0.1847,0.173,0.3081,0,0,0.1175,0.1116,0.0865,0.1655,0.2349,0.1372,0.2007,0,0,0,0,0,-0.1725,-0.1164,-0.0395,-0.0053,0.0123,0.0128,-0.016,0.0048,0.0123,0.0155,0.1554,0.0801,0.0091,-0.0363,0.008,0.2536,0.1959,0.1703,0.0037,0.0075,-0.0085,-0.0384,-0.0256,-0.0224,-0.0187,0.2002,0.1244,0.0155,-0.0192,0.063,0.0502,0.1698,-0.0566,-0.0411,0.1239,0.1634,0,0,0,0.2264,0.315,0.071,-0.0683,0,0,0,0,-0.1308,-0.0315,0.0075,0.0235,0.0155,-0.0924,-0.0133,0.0128,0.0128,0.0593,0.0529,0.0331,0.0133,0.0331,0.1426,0.1361,0.1212,0.04,0.0416,0.0379,-0.0368,-0.0112,0.0972,-0.0379,0.0774,0.0208,0.0101,-0.0299,-0.0005,-0.023,-0.0363,-0.0518,-0.0817,0.0913,0.2429,0.0,0.0,0.0715,0.2104,0.315,0.1564,-0.0278,0,0,0,0,0,0,0,0,0,-0.166,-0.0358,0.0016,-0.0635,0.0112,0.0235,0.0246,0.0262,0.0416,0.0796,0.095,0.0998,0.0726,0.0683,0.0988,0.0048,0.0315,0.236,0,0,0,0,-0.0427,-0.024,-0.023,-0.0448,0.0304,0,0,0,0,0,0.1847,0.252,0.252,0.197,0.103,0,0,0,0,0,0,0,0,0,0,0,0,-0.1223,-0.0128,0.0075,0.0144,0.0208,0.0331,0.0534,0.0667,0.0929,0,0,0,0,0,0,0,0,0,0,0,0,-0.008,-0.016,0.0502,0,0,0,0,0,0.205,0.2322,0.134,0.1751,0.1244,0,0,0,0,0,0,0,0,0,0,0,0,0,0,0,0,0,0,0,0,0,0,0,0,0,0,0,0,0,0,0,0,0,0,0,0,0,0,0,0,0,0.1543,0.1591,0.0235,0.0902,0.1308,0,0,0,0,0,0,0,0,0,0,0,0,0,0,0,0,0,0,0,0,0,0,0,0,0,0,0,0,0,0,0,0,0,0,0,0,0,0,0,0,0,0.0961,0.0742,-0.0112,0.0246,0.1335,0,0,0,0,0,0,0,0,0,0,0,0,0,0,0,0,0,0,0,0,0,0,0,0,0,0,0,0,0,0,0,0,0,0,0,0,0,0,0,0,0,0,0.0998,0.0459,0.0043,0.1276,0,0,0,0,0,0,0,0,0,0,0,0,0,0,0,0,0,0,0,0,0,0,0,0,0,0,0,0,0,0,0,0,0,0,0,0,0,0,0,0,0,0,0.1906,0.1308,0.0133,0.1185,0,0,0,0,0,0,0,0,0,0,0,0,0,0,0,0,0,0,0,0,0,0,0,0,0,0,0,0,0,0,0,0,0,0,0,0,0,0,0,0,0,0,0.2104,0.1564,0.032,0.1078,0,0,0,0,0,0,0,0,0,0,0,0,0,0,0,0,0,0,0,0,0,0,0,0,0,0,0,0,0,0,0,0,0,0,0,0,0,0,0,0,0,0,0.1997,0.1148,0.0587,0.1004,0]}]],[[{"header":{"parameterUnit":"kt","parameterCategory":2,"dx":1,"dy":1,"la1":29.46422004699707,"la2":30.564109802246094,"lo1":-89.4342041015625,"lo2":-87.934326171875,"nx":46,"ny":34,"refTime":"2022-11-01T00:00:00:Z","depth":"8","parameterNumber":2,"parameterNumberName":"U-component_of_CURRENTS"},"data":[-0.0694,-0.0769,-0.0817,-0.0838,-0.0817,-0.0667,-0.0539,0,-0.0192,-0.0934,-0.1698,-0.1831,-0.1767,-0.1719,-0.1618,-0.1463,-0.1447,-0.1484,-0.1308,-0.1127,-0.1057,-0.0956,-0.0448,0.0294,0.0961,0.1719,0.1959,0.1452,0.1111,0.1127,0.0881,0.055,0.0566,0.0609,0.0411,0.0096,-0.0085,-0.0176,-0.0262,-0.0246,-0.0166,-0.0048,0.0037,0.0005,-0.0048,0.0032,-0.0561,-0.0614,-0.0646,-0.0641,-0.0577,-0.0374,0.0053,0.0326,0,-0.0763,-0.2194,-0.2061,-0.1345,-0.1484,-0.1436,-0.1185,-0.0929,-0.0796,-0.0721,-0.0603,-0.04,-0.0198,-0.0272,-0.0497,0.0021,0.1127,0.1452,0.1297,0.1217,0.134,0.1393,0.1164,0.0769,0.0454,0.0192,-0.0053,-0.0117,0.0059,0.0235,0.0267,0.0294,0.0352,0.0432,0.0502,0.0518,0.0545,-0.0416,-0.0464,-0.0502,-0.0518,-0.0507,-0.0486,-0.0513,-0.087,-0.1687,-0.1607,-0.1025,0,-0.0598,-0.1335,-0.1388,-0.1116,-0.0715,-0.039,-0.0198,-0.0069,0.0075,0.0192,0.0219,0.0037,-0.0064,0.0262,0.1276,0.1602,0.1265,0.1052,0.1132,0.1159,0.0929,0.063,0.0502,0.0475,0.0539,0.0641,0.0603,0.0475,0.0283,0.0032,-0.0101,-0.0128,-0.0144,-0.023,-0.0283,-0.0304,-0.0347,-0.0384,-0.0422,-0.0475,-0.0593,-0.0892,-0.134,-0.1324,-0.0988,-0.1757,-0.2328,-0.205,-0.1794,-0.1217,-0.0651,-0.0192,0.0112,0.0278,0.0358,0.0411,0.047,0.0481,0.0406,0.0486,0.0774,0.1383,0.1933,0.1869,0.1442,0.1436,0.1415,0.1297,0.1255,0.1191,0.0934,0.0571,0.0219,0.0005,-0.0032,-0.024,-0.0667,-0.0998,-0.1185,-0.1383,-0.0053,-0.0101,-0.016,-0.0214,-0.0262,-0.032,-0.0422,-0.0593,-0.0817,-0.0956,-0.11,-0.1628,-0.22,-0.2878,-0.2675,-0.1351,-0.0464,-0.0011,0.0315,0.0513,0.0619,0.0667,0.0673,0.0667,0.0667,0.0689,0.095,0.149,0.2136,0.2477,0.2322,0.2018,0.1975,0.1933,0.1805,0.1495,0.0972,0.0534,0.0235,0.0021,-0.0101,-0.0214,-0.0267,-0.0427,-0.0667,-0.0828,0.0278,0.0299,0.0171,0.0016,-0.0011,-0.0037,-0.0123,-0.0256,-0.0379,-0.0475,-0.055,-0.063,-0.0545,-0.0411,0,0.0069,0.0219,0.039,0.0571,0.0705,0.079,0.0849,0.087,0.0886,0.0897,0.0924,0.1084,0.1329,0.1965,0.2253,0.22,0.2098,0.2125,0.2018,0.1725,0.1329,0.0956,0.0689,0.0502,0.0448,0.0416,0.0315,0.0176,0.0032,0.0101,0.0235,0.04,0.0539,0.0497,0.0342,0.0326,0.0384,0.0294,0.0096,-0.0037,-0.008,-0.0048,0.0085,0.0427,0.1089,0.1506,0,0.0491,0.0913,0.087,0.0892,0.0913,0.0934,0.0961,0.0998,0.102,0.1025,0.1089,0.1185,0.181,0.1959,0.1596,0.1692,0.1799,0.1698,0.1516,0.1361,0.1244,0.103,0.086,0.0849,0.0785,0.0721,0.0657,0.0577,0.0491,0.0336,0,0.0214,0.0523,0.0635,0.0763,0.1153,0.1004,0.04,0.0171,0.0128,0.0187,0.0331,0.0582,0.094,0.1164,0.1185,0,0.0673,0.1196,0.1009,0.0972,0.0977,0.0988,0.0998,0.0977,0.0929,0.0945,0.1068,0.1351,0.1703,0.1725,0.1725,0.1735,0.1783,0.1842,0.1826,0.1596,0.1292,0.1137,0.1062,0.0966,0.0918,0.0892,0.0876,0.0828,0.0763,0,0.0133,0,0.0251,0.0502,0,0.0011,0.0053,0.0101,0.0144,0.0219,0.0326,0.047,0.0683,0.0849,0.0865,0.0838,0,0.0262,0.0673,0.086,0.0929,0.0934,0.0908,0.0838,0.0747,0.0737,0.0908,0.1159,0.1564,0.1805,0.189,0.2061,0.2322,0.2451,0.2152,0.1623,0.1367,0.1228,0.1068,0.1009,0.0988,0.0988,0.1004,0.1004,0.0972,0,0.0267,0.0358,0.0304,0,-0.0304,-0.0395,-0.0085,0.0043,0.0112,0.0166,0.0182,0.0069,0.0502,0.086,0.0539,0.0411,0,0.0587,0.1046,0.0876,0.0817,0.078,0.0721,0.0641,0.055,0.0513,0.0667,0.1046,0.1468,0.1831,0.2114,0.2312,0.2536,0.2371,0.1714,0.1244,0.1084,0.0998,0.1014,0.1046,0.1062,0.1078,0.11,0.1121,0.1116,0,0,0,0,0,0.0176,0.023,0.0091,0.0085,0.0117,0.0155,0.0155,0.0133,0,-0.0016,-0.0037,-0.0043,0,0,0.0139,0.0384,0.0507,0.0507,0.0464,0.0406,0.0352,0.0326,0.0459,0.0828,0.1249,0.1623,0.1837,0.197,0.1911,0.1452,0.103,0.0876,0.0854,0.0918,0.1009,0.1095,0.1164,0.1196,0.1212,0.1217,0.1212,0,0,0,0,0,0,0.0,0.0021,0.0059,0.0069,0.008,0.0085,0.0203,-0.0075,-0.0443,-0.0598,-0.0785,0,0,0.0048,0.0166,0.0251,0.0251,0.0219,0.0198,0.0192,0.0203,0.0272,0.0497,0.0838,0.1095,0.1265,0.1303,0.1164,0.0982,0.0876,0.086,0.0897,0.0956,0.1036,0.1137,0.1233,0.1281,0.1287,0.1276,0.126,0,0,0,0,0,0,0.0069,0.0064,-0.0069,-0.0149,-0.016,-0.0123,-0.0069,-0.0166,-0.0214,-0.0128,0,0,0,0.0,0.0016,0.0037,0.0021,0.0005,0.0016,0.0059,0.0123,0.0192,0.0294,0.0497,0.0758,0.0924,0.0908,0.0844,0.0854,0.0902,0.0961,0.1004,0.1052,0.1111,0.1191,0.1265,0.1292,0.1292,0.1292,0.1276,0,0,0,0,0,0,0.032,0.0427,0.0096,-0.008,-0.0187,-0.0187,-0.0176,-0.0283,-0.0299,0.0139,0.047,0.0422,0,-0.0037,-0.0101,-0.0144,-0.0182,-0.0203,-0.0166,-0.008,0.0037,0.0144,0.0235,0.0363,0.0561,0.0774,0.094,0.1036,0.1068,0.1078,0.1095,0.1127,0.1159,0.1196,0.1228,0.1244,0.1255,0.1276,0.1281,0.1249,0,0,0,0,0,0,0,0.0379,0.0438,-0.0027,-0.0283,-0.0384,-0.0384,-0.0315,-0.0155,0.0171,0.0326,0.024,0,-0.008,-0.023,-0.0331,-0.039,-0.0411,-0.0368,-0.0256,-0.0112,0.0037,0.0166,0.0304,0.0502,0.0731,0.0924,0.1041,0.11,0.1111,0.11,0.1089,0.1073,0.1052,0.1025,0.103,0.1089,0.1169,0.1196,0.1175,0,0,0,-0.0507,-0.1014,0,0,0,-0.0256,-0.0454,-0.0432,-0.0491,-0.0497,-0.0347,-0.0139,0.0059,0.0059,-0.0064,0,-0.0149,-0.0411,-0.0566,-0.063,-0.0641,-0.0598,-0.0497,-0.0358,-0.0176,0.0032,0.0256,0.0481,0.0662,0.0806,0.0934,0.102,0.1046,0.102,0.0945,0.086,0.0801,0.079,0.0849,0.0945,0.102,0.1062,0.1078,0,0,-0.0812,-0.1516,-0.1735,-0.2349,-0.2686,-0.2862,-0.2007,-0.0934,-0.0876,-0.0806,-0.0683,-0.0593,-0.0454,-0.0149,-0.0304,-0.0689,0,-0.0326,-0.078,-0.0908,-0.0924,-0.0918,-0.0924,-0.0961,-0.0966,-0.0924,-0.0817,-0.0587,-0.0278,0.0059,0.0427,0.0715,0.0844,0.0844,0.078,0.0705,0.0667,0.0673,0.0721,0.0796,0.0865,0.0918,0.095,0.0972,0,0,-0.0913,-0.1676,-0.134,-0.1153,0,0,-0.0486,-0.1041,-0.1143,-0.1036,-0.086,-0.0796,-0.0699,-0.0352,-0.008,0,-0.0876,-0.166,-0.1506,-0.1372,-0.1297,-0.1313,-0.1426,-0.1559,-0.1623,-0.1596,-0.1479,-0.1249,-0.0977,-0.0667,-0.0326,0.0037,0.0427,0.0657,0.0667,0.0651,0.0683,0.0726,0.0806,0.0902,0.095,0.094,0.0908,0.0897,-0.0481,-0.134,-0.173,0,0,0,0,0,-0.0448,-0.1052,-0.1111,-0.0977,-0.094,-0.0961,-0.103,-0.1223,-0.1847,-0.2718,-0.2766,-0.2339,-0.1997,-0.1741,-0.158,-0.1516,-0.1543,-0.1463,-0.1228,-0.1095,-0.1004,-0.0796,-0.0529,-0.024,-0.0021,0.0075,0.0336,0.0646,0.0742,0.0796,0.0865,0.0918,0.095,0.1014,0.1025,0.0945,0.0854,0.0817,-0.3193,-0.2312,-0.1735,-0.1287,-0.0988,0,0,0,-0.031,-0.0753,-0.0865,-0.086,-0.0918,-0.1169,-0.1559,-0.1933,-0.2355,-0.2776,-0.2894,-0.2584,-0.2264,-0.1997,-0.1751,-0.1564,-0.1399,-0.1078,-0.0753,-0.0523,-0.0336,-0.0144,0.0176,0.032,0.0224,0.0171,0.0267,0.0459,0.0561,0.0587,0.0662,0.0769,0.0908,0.103,0.0998,0.0817,0.0737,0.0769,0,-0.0705,-0.1452,-0.1468,-0.1329,-0.1223,0,0,-0.0182,-0.0502,-0.0753,-0.0908,-0.1014,-0.1393,-0.1927,-0.2253,-0.244,-0.2648,-0.2814,-0.2659,-0.2397,-0.2088,-0.1778,-0.1474,-0.1148,-0.094,-0.0699,-0.0566,-0.0726,-0.0224,0.0491,0.0454,-0.0342,-0.0844,-0.0224,0.0347,0.0555,0.0673,0.0705,0.0918,0.1191,0.1116,0.118,0.1153,0.0817,0.0635,-0.3337,-0.2349,-0.2024,-0.1943,-0.1885,-0.2173,-0.2312,-0.2371,-0.1981,-0.1404,-0.1303,-0.1159,-0.1228,-0.1741,-0.2226,-0.2355,-0.212,-0.2072,-0.2408,-0.26,-0.2403,-0.1986,-0.1548,-0.1164,-0.0689,-0.0085,0.0187,-0.0571,-0.0897,0.0582,0.1831,0.2237,0.0416,-0.1084,-0.0262,0.1169,0.1303,0.1068,0.1137,0.0956,0.0614,0.0577,0.0053,-0.0182,-0.0053,0.032,-0.1041,-0.213,-0.2114,-0.1997,-0.1943,-0.2061,-0.2226,-0.2397,-0.2435,-0.2088,-0.1586,-0.1121,-0.0796,-0.0721,0,0,-0.008,-0.0742,-0.1842,-0.275,-0.2798,-0.2056,-0.1586,-0.1111,-0.0448,0.0448,0.087,0.0828,0,0,0,-0.0459,-0.0998,-0.0742,0.0037,0.2034,0.1634,0.0603,0.0133,0.0091,-0.0048,0,-0.0214,-0.0294,0.0171,0.0651,0,-0.0876,-0.1757,-0.1783,-0.1863,-0.1975,-0.2007,-0.1719,-0.1458,0,0,0,-0.0112,-0.0069,-0.0101,-0.0283,0,-0.0251,-0.0438,-0.0368,0,0,0,0,0,0,0,0.0331,0.0518,0.0203,-0.0481,-0.095,-0.0945,-0.0982,0,0,-0.0267,-0.0112,0.0411,0.0523,0.1239,0.1164,0.0395,0,0,0,0,0,-0.0737,-0.1506,-0.1623,-0.1767,-0.1853,-0.1837,-0.1831,-0.1858,-0.1735,-0.1468,-0.1004,-0.0694,-0.0801,-0.1132,-0.173,-0.1564,-0.0614,0.0112,0.0358,-0.0032,-0.0593,-0.1095,-0.1351,-0.1313,-0.1591,-0.1329,-0.0753,-0.0577,-0.0464,-0.0491,-0.0577,0.0176,0.0934,0.0182,-0.0849,-0.1233,0,0,0,-0.024,0.0101,0.0529,0.0651,0,0,0,0,-0.0587,-0.1361,-0.1687,-0.1965,-0.2221,-0.2077,-0.1799,-0.1709,-0.1506,-0.1217,-0.1041,-0.1121,-0.1388,-0.165,-0.1319,-0.055,-0.0128,-0.0128,-0.04,-0.071,-0.102,-0.1255,-0.1655,-0.2029,-0.181,-0.1351,-0.0918,-0.0545,-0.0336,-0.0091,0.016,0.0059,-0.0069,-0.0053,0.086,0.1783,0.1858,0.1367,0.0187,-0.0203,0.0139,0.0539,0,0,0,0,0,0,0,0,0,-0.0705,-0.1586,-0.1831,-0.1628,-0.1281,-0.1207,-0.1228,-0.1292,-0.1271,-0.0977,-0.0603,-0.0705,-0.0972,-0.1084,-0.1052,-0.0785,-0.0374,-0.0117,0,0,0,0,-0.0048,-0.0059,0.0176,0.0037,-0.0294,0,0,0,0,0,-0.0395,-0.0769,-0.0694,-0.0432,0.0187,0,0,0,0,0,0,0,0,0,0,0,0,-0.0529,-0.1233,-0.1468,-0.157,-0.1612,-0.1522,-0.1233,-0.079,-0.055,0,0,0,0,0,0,0,0,0,0,0,0,0.016,0.0208,0.0096,0,0,0,0,0,-0.0486,-0.0945,-0.0758,-0.04,0.0048,0,0,0,0,0,0,0,0,0,0,0,0,0,0,0,0,0,0,0,0,0,0,0,0,0,0,0,0,0,0,0,0,0,0,0,0,0,0,0,0,0,-0.0481,-0.0849,-0.0539,-0.0208,-0.0048,0,0,0,0,0,0,0,0,0,0,0,0,0,0,0,0,0,0,0,0,0,0,0,0,0,0,0,0,0,0,0,0,0,0,0,0,0,0,0,0,0,-0.0166,-0.0374,-0.0283,-0.0155,-0.0155,0,0,0,0,0,0,0,0,0,0,0,0,0,0,0,0,0,0,0,0,0,0,0,0,0,0,0,0,0,0,0,0,0,0,0,0,0,0,0,0,0,0,-0.0043,-0.0208,-0.0155,-0.0101,0,0,0,0,0,0,0,0,0,0,0,0,0,0,0,0,0,0,0,0,0,0,0,0,0,0,0,0,0,0,0,0,0,0,0,0,0,0,0,0,0,0,-0.0304,-0.0416,-0.0149,-0.0032,0,0,0,0,0,0,0,0,0,0,0,0,0,0,0,0,0,0,0,0,0,0,0,0,0,0,0,0,0,0,0,0,0,0,0,0,0,0,0,0,0,0,-0.0224,-0.0288,-0.0064,-0.0053,0,0,0,0,0,0,0,0,0,0,0,0,0,0,0,0,0,0,0,0,0,0,0,0,0,0,0,0,0,0,0,0,0,0,0,0,0,0,0,0,0,0,-0.0075,-0.008,0.0027,-0.0117,0]}],[{"header":{"parameterUnit":"kt","parameterCategory":2,"dx":1,"dy":1,"la1":29.46422004699707,"la2":30.564109802246094,"lo1":-89.4342041015625,"lo2":-87.934326171875,"nx":46,"ny":34,"refTime":"2022-11-01T00:00:00:Z","depth":"8","parameterNumber":3,"parameterNumberName":"V-component_of_CURRENTS"},"data":[0.0502,0.0614,0.0801,0.1009,0.1308,0.1725,0.205,0,-0.0411,0.2184,0.2269,0.2152,0.2557,0.268,0.2846,0.2776,0.267,0.2707,0.3054,0.3289,0.3145,0.3027,0.2904,0.2718,0.3219,0.3476,0.3278,0.2413,0.2136,0.3086,0.3962,0.3358,0.2029,0.0934,0.0662,0.0993,0.1175,0.1062,0.0844,0.0625,0.04,0.0283,0.0224,0.0256,0.032,0.0278,0.0481,0.0603,0.0753,0.0924,0.1121,0.1329,0.1345,0.0112,0,0.3486,0.3123,0.2002,0.2611,0.2723,0.2819,0.2878,0.2846,0.2776,0.2824,0.2995,0.3054,0.2888,0.2536,0.2141,0.2477,0.3038,0.3396,0.355,0.3097,0.3342,0.4277,0.4213,0.292,0.1388,0.0582,0.063,0.0769,0.0737,0.0619,0.0411,0.0176,0.0091,0.008,0.0048,-0.0133,-0.0331,0.0475,0.0582,0.0705,0.0833,0.0961,0.1052,0.0977,0.0518,0.0523,0.3545,0.3187,0,0.3257,0.2814,0.2616,0.2659,0.2739,0.2787,0.2792,0.2803,0.2798,0.276,0.2605,0.2312,0.2157,0.2184,0.2435,0.2563,0.2792,0.3022,0.3422,0.3663,0.2787,0.1399,0.0438,0.0347,0.0726,0.0897,0.0945,0.0785,0.0352,0.0069,0.0075,0.0139,0.0075,-0.0064,0.0438,0.0555,0.0673,0.0769,0.0886,0.0988,0.1036,0.102,0.1255,0.2477,0.2387,0.0934,0.3444,0.2814,0.2146,0.2082,0.236,0.2557,0.2686,0.2739,0.2723,0.2723,0.267,0.2541,0.2328,0.2125,0.2536,0.1917,0.1874,0.2339,0.2456,0.2643,0.2381,0.1522,0.0763,0.0587,0.0908,0.1036,0.1148,0.1004,0.0683,0.0422,0.0278,0.0235,0.0198,0.0149,0.0304,0.0481,0.063,0.0721,0.0833,0.0993,0.1164,0.1329,0.157,0.205,0.2253,0.2248,0.3225,0.3268,0.1783,0.0972,0.1789,0.2189,0.2456,0.2611,0.268,0.268,0.2654,0.2643,0.2509,0.2328,0.2691,0.2744,0.2141,0.2339,0.2648,0.2547,0.2509,0.2056,0.1479,0.118,0.1148,0.1212,0.1255,0.0929,0.0758,0.0892,0.0812,0.0561,0.031,0.016,0.0069,0.0272,0.0507,0.0657,0.0758,0.0988,0.1255,0.1495,0.1725,0.1997,0.2285,0.2605,0.3187,0.3534,0,0.0224,0.1372,0.1831,0.2205,0.244,0.2568,0.2605,0.2605,0.2589,0.2509,0.2381,0.2675,0.3374,0.2429,0.3022,0.3342,0.3182,0.2979,0.2627,0.2061,0.157,0.134,0.1377,0.1228,0.0817,0.0646,0.086,0.1052,0.0929,0.0603,0.0406,-0.0064,0.0112,0.0219,0.0411,0.0555,0.0886,0.1351,0.1612,0.1799,0.1981,0.2189,0.2419,0.267,0.2771,0.0828,0,0.1244,0.1692,0.2045,0.2306,0.2451,0.2499,0.2493,0.2451,0.2387,0.2296,0.2707,0.3775,0.275,0.2808,0.3422,0.3534,0.323,0.283,0.2216,0.1676,0.1463,0.1474,0.1137,0.0812,0.0726,0.0705,0.0812,0.0806,0.0614,0.0571,0,0.0107,0.0032,0.0085,0.008,0.0806,0.1767,0.1805,0.1842,0.1927,0.2024,0.2104,0.213,0.2013,0.1586,0.063,0,0.1692,0.2104,0.2264,0.2355,0.2392,0.236,0.2285,0.2216,0.2146,0.2584,0.3887,0.355,0.2306,0.2846,0.3262,0.3182,0.2808,0.2258,0.1789,0.1554,0.1399,0.1089,0.0865,0.0817,0.0747,0.0689,0.0593,0.0464,0.047,0,0.016,0,-0.0123,-0.024,0,0.1997,0.1847,0.1789,0.1815,0.1853,0.1853,0.1778,0.1559,0.1426,0.1228,0.0427,0,0.1863,0.2077,0.2221,0.2274,0.2232,0.2141,0.2077,0.2034,0.2322,0.3625,0.4175,0.3001,0.2771,0.3011,0.3123,0.2835,0.2355,0.1853,0.1474,0.1244,0.1057,0.0945,0.0908,0.0812,0.0705,0.0593,0.0502,0.0459,0,0.0214,0.0,-0.0198,0,0.0267,0.1564,0.1596,0.1607,0.166,0.1709,0.1725,0.1692,0.1372,0.1458,0.1303,0.102,0,0.1532,0.1991,0.213,0.2162,0.2114,0.204,0.1991,0.1975,0.2088,0.3006,0.3988,0.386,0.3385,0.3241,0.3113,0.2766,0.2221,0.1634,0.1196,0.1073,0.1004,0.0988,0.0993,0.0897,0.0742,0.0609,0.0518,0.0497,0,0,0,0,0,0.0534,0.1276,0.1399,0.1431,0.15,0.1586,0.166,0.1698,0,0.1463,0.1361,0.1095,0,0,0.189,0.1997,0.2034,0.2007,0.1959,0.1938,0.1943,0.1991,0.2349,0.3209,0.3705,0.3556,0.3289,0.2904,0.2365,0.181,0.1297,0.1009,0.0945,0.0934,0.095,0.0993,0.095,0.079,0.063,0.0518,0.0507,0,0,0,0,0,0,0.1196,0.1255,0.1292,0.134,0.1431,0.1511,0.1447,0.0342,0.1297,0.1484,0.1009,0,0,0.1586,0.1746,0.1869,0.1901,0.1885,0.1874,0.189,0.1927,0.2002,0.2413,0.2878,0.3017,0.2872,0.2403,0.1831,0.1442,0.1143,0.0993,0.0918,0.087,0.0881,0.0929,0.0929,0.0822,0.0651,0.0513,0.0507,0,0,0,0,0,0,0.1004,0.1052,0.1137,0.1148,0.118,0.1276,0.1217,0.087,0.1073,0.1484,0,0,0,0.1426,0.1564,0.1751,0.1815,0.181,0.1799,0.1799,0.1837,0.1874,0.1981,0.2184,0.2371,0.2344,0.1991,0.1564,0.1329,0.1153,0.102,0.0934,0.0876,0.0854,0.0876,0.0892,0.0812,0.0657,0.0518,0.0513,0,0,0,0,0,0,0.0913,0.0929,0.0993,0.1057,0.1057,0.1084,0.1169,0.102,0.0908,0.1095,0.0128,0.0112,0,0.1361,0.1479,0.1692,0.1767,0.1751,0.1698,0.1666,0.1698,0.1767,0.1821,0.1895,0.1981,0.2002,0.1874,0.1628,0.141,0.1207,0.1057,0.0966,0.0913,0.0881,0.0881,0.0881,0.0801,0.0673,0.0545,0.0523,0,0,0,0,0,0,0,0.0908,0.1276,0.1095,0.102,0.0972,0.102,0.0982,0.0945,0.0902,0.0539,0.0342,0,0.1393,0.15,0.1703,0.1757,0.1703,0.158,0.15,0.1527,0.1623,0.1698,0.1735,0.1767,0.1799,0.1767,0.166,0.1479,0.1265,0.1095,0.1004,0.0961,0.0924,0.0902,0.0849,0.0753,0.0667,0.0582,0.0539,0,0,0,0.0406,-0.0288,0,0,0,0.1805,0.1228,0.0966,0.0833,0.0774,0.0844,0.0886,0.0897,0.0828,0.04,0,0.1559,0.1639,0.1773,0.1783,0.1671,0.1495,0.1377,0.1372,0.1447,0.1538,0.1634,0.1639,0.1666,0.165,0.1602,0.1479,0.134,0.1196,0.1116,0.1057,0.0988,0.0908,0.079,0.0673,0.0603,0.0561,0.0523,0,0,0.0278,0.0427,-0.0176,0.0246,0.0,0.0,0.0406,0.0817,0.0694,0.0545,0.0448,0.0497,0.0566,0.0678,0.0763,0.0336,0,0.1949,0.1853,0.1869,0.1826,0.1687,0.1543,0.1388,0.1308,0.1287,0.1372,0.1516,0.1548,0.1586,0.158,0.1543,0.1474,0.1404,0.1319,0.1244,0.1164,0.1052,0.0918,0.0747,0.0598,0.0534,0.0502,0.0481,0,0,0.142,0.0043,0.0224,0.0497,0,0,-0.0844,0.0144,0.0171,0.016,0.0096,0.0139,0.0139,-0.0048,-0.016,0,0.0993,0.1981,0.1927,0.1911,0.1885,0.1821,0.1757,0.1628,0.1479,0.1351,0.1377,0.1484,0.1516,0.1522,0.1452,0.1383,0.1329,0.141,0.1345,0.1303,0.1207,0.1046,0.0892,0.0721,0.0561,0.0513,0.0507,0.047,0.1137,0.0336,0.1767,0,0,0,0,0,0.0112,0.0182,0.0085,0.0053,0.0,-0.0037,-0.0096,-0.0481,-0.0742,-0.0043,0.1554,0.1586,0.1725,0.1789,0.1847,0.1922,0.1981,0.1885,0.1687,0.1527,0.1479,0.1538,0.1575,0.15,0.1393,0.134,0.1196,0.1393,0.1271,0.1249,0.1132,0.0908,0.0699,0.0625,0.0534,0.0513,0.0587,0.0481,0.2274,-0.0294,0.0534,-0.0091,-0.0304,0,0,0,0.1068,0.0614,0.0443,0.0294,0.0171,0.0053,-0.0069,-0.0187,-0.0187,0.0182,0.1078,0.1308,0.1431,0.1495,0.1612,0.1794,0.1869,0.1634,0.1175,0.1068,0.1217,0.1361,0.1281,0.0801,0.0796,0.1078,0.1239,0.1372,0.1292,0.1185,0.0998,0.0817,0.0715,0.0518,0.04,0.055,0.0667,0.0481,0,0.0,0.0091,-0.0272,-0.0769,-0.0593,0,0,0.1949,0.1164,0.0742,0.0518,0.0342,0.0278,0.0096,0.0032,0.0155,0.0705,0.1185,0.1249,0.1185,0.11,0.1132,0.1351,0.1249,0.0737,0.0075,0.0262,0.0123,0.0432,0.0566,-0.0043,0.0294,0.0956,0.1511,0.1415,0.1084,0.1004,0.087,0.0646,0.0171,-0.0262,-0.0427,0.0454,0.0763,0.0475,-0.1313,-0.0053,-0.0246,-0.0523,-0.0822,-0.0865,-0.0112,-0.0059,0.1767,0.0966,0.0657,0.0497,0.0577,0.0774,0.0182,0.0069,-0.0155,0.1095,0.1564,0.1463,0.0849,0.055,0.0545,0.0619,0.0443,-0.0053,0.0037,0.0892,0.0112,-0.0448,-0.0283,0.0032,0.0454,0.0982,0.1687,0.1025,0.0075,0.0422,0.0171,0.0176,-0.0107,0.0021,0.024,0.0166,0.0438,0.0198,-0.2621,-0.1692,-0.1078,-0.0763,-0.0683,-0.0529,-0.0187,0.0128,0.1116,0.0459,0.047,0.04,0.0609,0.1004,0,0,-0.0513,0.1698,0.2205,0.2146,0.0598,0.0219,0.0315,0.0368,0.024,-0.0262,0.0272,0.1564,0,0,0,0.1377,0.0993,0.0534,0.0934,-0.0053,0.0737,0.1046,0.0892,0.0892,0.0593,0,0.055,-0.0278,-0.0283,0.0064,0,-0.2018,-0.142,-0.0886,-0.055,-0.0352,-0.0085,0.0208,0.0523,0,0,0,0.0822,0.0742,0.0021,-0.0272,0,0.2413,0.2242,0.2072,0,0,0,0,0,0,0,0.2205,0.0539,0.0182,-0.0155,0.0833,0.1025,0.1143,0,0,0.1255,0.0876,0.1095,0.1377,0.1628,0.094,0.1698,0,0,0,0,0,-0.1522,-0.1068,-0.0379,-0.0069,0.0085,0.0096,-0.0155,0.0037,0.0107,0.0112,0.0902,0.0571,0.0171,-0.0288,0.0037,0.2024,0.1474,0.1084,0.024,0.0091,-0.0059,-0.0048,-0.0117,-0.031,-0.0219,0.1436,0.0619,0.0182,-0.0251,0.0171,0.0694,0.1244,0.0187,0.0075,0.0747,0.0833,0,0,0,0.1628,0.229,0.0673,0.0235,0,0,0,0,-0.1201,-0.0299,0.0048,0.0192,0.0144,-0.0822,-0.0128,0.0123,0.0117,0.0481,0.0438,0.032,0.0139,0.0246,0.1111,0.095,0.0806,0.0582,0.0347,-0.0027,-0.0166,0.0075,0.023,-0.0443,0.0561,0.016,0.0011,-0.024,0.0032,0.0272,0.0731,0.0406,0.0155,0.0683,0.1217,0.0,0.0,0.0667,0.1393,0.1805,0.142,0.0822,0,0,0,0,0,0,0,0,0,-0.149,-0.0326,0.0037,-0.0534,0.0117,0.0235,0.0246,0.0256,0.0358,0.0646,0.0699,0.0844,0.0678,0.0507,0.0064,-0.023,0.0374,0.1073,0,0,0,0,-0.0288,0.0016,0.0027,0.0256,0.0529,0,0,0,0,0,0.1207,0.1217,0.1143,0.1324,0.1207,0,0,0,0,0,0,0,0,0,0,0,0,-0.1073,-0.0101,0.0091,0.0149,0.0203,0.0304,0.0459,0.0555,0.0817,0,0,0,0,0,0,0,0,0,0,0,0,-0.0059,0.0053,0.0614,0,0,0,0,0,0.1073,0.1127,0.095,0.1116,0.1137,0,0,0,0,0,0,0,0,0,0,0,0,0,0,0,0,0,0,0,0,0,0,0,0,0,0,0,0,0,0,0,0,0,0,0,0,0,0,0,0,0,0.1532,0.1442,0.1185,0.1062,0.0966,0,0,0,0,0,0,0,0,0,0,0,0,0,0,0,0,0,0,0,0,0,0,0,0,0,0,0,0,0,0,0,0,0,0,0,0,0,0,0,0,0,0.1975,0.1655,0.1335,0.1046,0.0929,0,0,0,0,0,0,0,0,0,0,0,0,0,0,0,0,0,0,0,0,0,0,0,0,0,0,0,0,0,0,0,0,0,0,0,0,0,0,0,0,0,0,0.1847,0.1415,0.1111,0.1009,0,0,0,0,0,0,0,0,0,0,0,0,0,0,0,0,0,0,0,0,0,0,0,0,0,0,0,0,0,0,0,0,0,0,0,0,0,0,0,0,0,0,0.1762,0.149,0.1255,0.1105,0,0,0,0,0,0,0,0,0,0,0,0,0,0,0,0,0,0,0,0,0,0,0,0,0,0,0,0,0,0,0,0,0,0,0,0,0,0,0,0,0,0,0.1105,0.141,0.1265,0.1137,0,0,0,0,0,0,0,0,0,0,0,0,0,0,0,0,0,0,0,0,0,0,0,0,0,0,0,0,0,0,0,0,0,0,0,0,0,0,0,0,0,0,0.0737,0.1212,0.1196,0.1143,0]}]],[[{"header":{"parameterUnit":"kt","parameterCategory":2,"dx":1,"dy":1,"la1":29.46422004699707,"la2":30.564109802246094,"lo1":-89.4342041015625,"lo2":-87.934326171875,"nx":46,"ny":34,"refTime":"2022-11-01T00:00:00:Z","depth":"10","parameterNumber":2,"parameterNumberName":"U-component_of_CURRENTS"},"data":[-0.0646,-0.071,-0.0753,-0.0763,-0.0742,-0.0603,-0.0486,0,-0.0176,-0.0838,-0.1511,-0.1634,-0.1575,-0.1527,-0.1463,-0.1388,-0.1367,-0.1335,-0.1116,-0.0737,-0.0956,-0.0918,-0.0454,0.0256,0.0796,0.1458,0.1933,0.149,0.1105,0.1137,0.0998,0.071,0.063,0.0614,0.0406,0.0091,-0.008,-0.0171,-0.0246,-0.023,-0.0149,-0.0037,0.0037,0.0011,-0.0043,0.0037,-0.0529,-0.0566,-0.0593,-0.0587,-0.0523,-0.0336,0.0053,0.0315,0,-0.0673,-0.1922,-0.1821,-0.1212,-0.1319,-0.1249,-0.1084,-0.0886,-0.0774,-0.0667,-0.0491,-0.031,-0.0171,-0.0246,-0.0491,-0.0048,0.0961,0.1431,0.1463,0.1313,0.1345,0.141,0.1185,0.0796,0.0464,0.0192,-0.0059,-0.0117,0.0069,0.024,0.0278,0.0304,0.0363,0.0438,0.0502,0.0523,0.055,-0.039,-0.0432,-0.0459,-0.0475,-0.047,-0.0448,-0.0475,-0.0801,-0.1511,-0.142,-0.0908,0,-0.0529,-0.1185,-0.1239,-0.0977,-0.0657,-0.0368,-0.0192,-0.0069,0.0075,0.0198,0.0224,0.0048,0.0005,0.0144,0.0763,0.1313,0.149,0.1265,0.1143,0.118,0.0956,0.0651,0.0502,0.0464,0.0534,0.0646,0.0609,0.0481,0.0288,0.0037,-0.0101,-0.0128,-0.0139,-0.0224,-0.0267,-0.0283,-0.032,-0.0358,-0.0395,-0.0443,-0.055,-0.0812,-0.1196,-0.1175,-0.0897,-0.1559,-0.2045,-0.181,-0.1591,-0.1095,-0.0571,-0.0171,0.0112,0.0267,0.0347,0.0395,0.0459,0.0475,0.0406,0.047,0.0481,0.0753,0.1303,0.1863,0.1719,0.1468,0.1447,0.1319,0.1249,0.1175,0.0924,0.0571,0.0219,0.0011,-0.0021,-0.0235,-0.0667,-0.0993,-0.118,-0.1361,-0.0005,-0.0021,-0.0101,-0.0192,-0.0251,-0.0304,-0.0395,-0.0539,-0.0731,-0.0854,-0.0988,-0.1442,-0.1927,-0.2499,-0.2349,-0.1223,-0.0427,-0.0005,0.0299,0.0491,0.0593,0.0635,0.0646,0.0646,0.0651,0.0678,0.0881,0.1159,0.158,0.204,0.2328,0.2152,0.1997,0.1938,0.1794,0.1479,0.0961,0.0529,0.0235,0.0027,-0.0096,-0.0208,-0.0256,-0.0416,-0.0646,-0.0801,0.0272,0.031,0.0219,0.0053,-0.0016,-0.0043,-0.0123,-0.024,-0.0347,-0.0427,-0.0491,-0.0566,-0.0486,-0.0368,0,0.0064,0.0203,0.0352,0.0513,0.0662,0.0753,0.0801,0.0822,0.0844,0.0876,0.0908,0.1116,0.1169,0.1676,0.2136,0.2258,0.221,0.2141,0.2018,0.1714,0.1308,0.094,0.0683,0.0507,0.0454,0.0422,0.032,0.0187,0.0037,0.0112,0.024,0.039,0.0427,0.039,0.0326,0.031,0.0352,0.0262,0.0069,-0.0048,-0.008,-0.0048,0.0064,0.0363,0.095,0.1329,0,0.0454,0.0833,0.0747,0.0817,0.086,0.0876,0.0897,0.0945,0.0993,0.1009,0.1111,0.1111,0.141,0.181,0.1778,0.1837,0.1826,0.1692,0.15,0.1345,0.1228,0.102,0.086,0.0849,0.079,0.0721,0.0662,0.0582,0.0497,0.0342,0,0.0203,0.0491,0.0587,0.071,0.1057,0.0897,0.0342,0.0133,0.0101,0.016,0.0288,0.0507,0.0828,0.1041,0.1073,0,0.0603,0.1041,0.0886,0.0892,0.0908,0.0924,0.095,0.095,0.0913,0.0945,0.1078,0.1041,0.118,0.1474,0.1778,0.1837,0.1757,0.1805,0.1799,0.158,0.1287,0.1137,0.1062,0.0966,0.0918,0.0892,0.0876,0.0833,0.0763,0,0.0128,0,0.0219,0.0443,0,0.0,0.0027,0.0069,0.0112,0.0182,0.0283,0.0416,0.0609,0.0763,0.079,0.078,0,0.023,0.0566,0.078,0.0865,0.0892,0.0876,0.0822,0.0737,0.0715,0.095,0.1052,0.1036,0.1175,0.1436,0.1692,0.2013,0.229,0.2104,0.1607,0.1356,0.1223,0.1068,0.1014,0.0988,0.0988,0.1004,0.1004,0.0972,0,0.0256,0.0363,0.0331,0,-0.0288,-0.0379,-0.0101,0.0016,0.008,0.0133,0.0155,0.0053,0.0454,0.078,0.0491,0.0379,0,0.0529,0.0902,0.0774,0.0763,0.0753,0.0705,0.063,0.0539,0.0507,0.071,0.1068,0.1233,0.1351,0.1602,0.1879,0.22,0.2205,0.1676,0.1233,0.1078,0.0998,0.1014,0.1046,0.1062,0.1078,0.11,0.1121,0.1116,0,0,0,0,0,0.016,0.0203,0.0064,0.0059,0.0085,0.0123,0.0128,0.0112,0,-0.0021,-0.0043,-0.0043,0,0,0.0117,0.0326,0.0475,0.0497,0.0454,0.0395,0.0342,0.0315,0.0443,0.0833,0.1212,0.1458,0.158,0.1692,0.1735,0.1415,0.102,0.0876,0.0854,0.0918,0.1004,0.1089,0.1159,0.1196,0.1207,0.1212,0.1212,0,0,0,0,0,0,-0.0011,0.0005,0.0032,0.0043,0.0053,0.0064,0.0176,-0.008,-0.0427,-0.0561,-0.0737,0,0,0.0043,0.0139,0.0235,0.024,0.0214,0.0187,0.0187,0.0198,0.0262,0.0481,0.0822,0.1078,0.1217,0.1249,0.1143,0.0977,0.087,0.086,0.0892,0.095,0.103,0.1132,0.1228,0.1276,0.1281,0.1271,0.126,0,0,0,0,0,0,0.0059,0.0048,-0.0085,-0.0155,-0.0155,-0.0133,-0.0133,-0.0208,-0.0219,-0.016,0,0,0,-0.0005,0.0005,0.0032,0.0016,0.0,0.0005,0.0048,0.0117,0.0187,0.0288,0.0486,0.0747,0.0918,0.0908,0.0838,0.0849,0.0897,0.095,0.0998,0.1041,0.1105,0.1185,0.1255,0.1281,0.1287,0.1287,0.1271,0,0,0,0,0,0,0.0294,0.039,0.0069,-0.0107,-0.0198,-0.023,-0.0267,-0.0326,-0.0294,0.0005,0.0272,0.0294,0,-0.0037,-0.0101,-0.0144,-0.0187,-0.0208,-0.0176,-0.0091,0.0027,0.0133,0.023,0.0358,0.0555,0.0769,0.0929,0.1025,0.1057,0.1062,0.1084,0.1111,0.1148,0.1185,0.1217,0.1233,0.1249,0.1276,0.1276,0.1249,0,0,0,0,0,0,0,0.0326,0.0363,-0.0085,-0.0304,-0.0363,-0.0363,-0.0326,-0.0208,-0.0016,0.0112,0.0128,0,-0.0075,-0.0214,-0.0326,-0.039,-0.0416,-0.0374,-0.0267,-0.0123,0.0027,0.0155,0.0294,0.0491,0.0721,0.0913,0.103,0.1084,0.1089,0.1084,0.1073,0.1062,0.1046,0.1025,0.1036,0.11,0.1175,0.1201,0.118,0,0,0,-0.0198,-0.0395,0,0,0,-0.0235,-0.0427,-0.04,-0.0438,-0.0438,-0.0331,-0.0187,-0.0091,-0.0064,-0.008,0,-0.0139,-0.0379,-0.0555,-0.0625,-0.0641,-0.0603,-0.0507,-0.0368,-0.0187,0.0021,0.0246,0.047,0.0651,0.0796,0.0918,0.1004,0.103,0.1009,0.0945,0.0865,0.0817,0.0806,0.0865,0.0956,0.103,0.1068,0.1084,0,0,-0.0475,-0.0998,-0.1356,-0.1917,-0.2221,-0.2397,-0.1735,-0.086,-0.079,-0.0731,-0.0614,-0.0518,-0.039,-0.023,-0.0304,-0.0481,0,-0.0304,-0.0726,-0.0886,-0.0913,-0.0913,-0.0929,-0.0966,-0.0966,-0.0897,-0.0747,-0.0486,-0.016,0.0187,0.0497,0.0715,0.0833,0.0838,0.0796,0.0742,0.0721,0.0737,0.0769,0.0822,0.0876,0.0924,0.0956,0.0972,0,0,-0.0699,-0.1303,-0.1105,-0.1009,0,0,-0.0326,-0.079,-0.0988,-0.0945,-0.0801,-0.0726,-0.0577,-0.0214,0.0032,0,-0.0774,-0.1447,-0.1415,-0.1319,-0.1228,-0.1223,-0.1319,-0.1399,-0.1372,-0.1292,-0.1143,-0.0881,-0.0571,-0.0256,0.0048,0.0251,0.047,0.0662,0.0694,0.0731,0.0812,0.0844,0.0854,0.0908,0.0945,0.0929,0.0902,0.0892,-0.0427,-0.1148,-0.1442,0,0,0,0,0,-0.0272,-0.0726,-0.0902,-0.0865,-0.0854,-0.0902,-0.0966,-0.1111,-0.1623,-0.236,-0.2429,-0.2029,-0.1842,-0.157,-0.1399,-0.1303,-0.126,-0.1073,-0.0758,-0.0571,-0.0475,-0.0272,0.0069,0.0395,0.0593,0.0646,0.0603,0.0635,0.0715,0.079,0.087,0.0913,0.0918,0.0913,0.0929,0.0886,0.0812,0.0806,-0.2702,-0.1895,-0.1308,-0.0988,-0.087,0,0,0,-0.0219,-0.055,-0.0694,-0.0758,-0.0844,-0.1073,-0.1415,-0.173,-0.2082,-0.244,-0.2413,-0.2242,-0.1943,-0.1709,-0.149,-0.126,-0.0993,-0.0753,-0.0657,-0.0529,-0.031,0.0048,0.039,0.039,0.0171,-0.0032,-0.0053,0.0283,0.0625,0.0726,0.0737,0.0796,0.0988,0.1201,0.1073,0.0753,0.0683,0.071,0,-0.0609,-0.1249,-0.1196,-0.1068,-0.1036,0,0,-0.0171,-0.0459,-0.0683,-0.0838,-0.0945,-0.1271,-0.1719,-0.1991,-0.2152,-0.2312,-0.2296,-0.221,-0.197,-0.1735,-0.1442,-0.1052,-0.0614,-0.0219,0.0107,0.0149,0.008,0.023,0.0561,0.055,0.008,-0.0582,-0.0758,0.0027,0.0657,0.0705,0.0646,0.0758,0.079,0.0609,0.0598,0.0566,0.0475,0.0518,-0.2899,-0.2104,-0.1815,-0.1714,-0.1634,-0.1874,-0.2018,-0.2098,-0.1778,-0.1292,-0.1201,-0.1068,-0.1121,-0.1559,-0.1965,-0.2056,-0.1858,-0.181,-0.2082,-0.2104,-0.2024,-0.1703,-0.1313,-0.0849,-0.0352,0.0069,0.0032,-0.0384,-0.0454,0.055,0.1751,0.0689,-0.0358,-0.0619,-0.0144,0.0406,0.0593,0.0609,0.0406,0.0326,0.0358,0.0176,-0.0037,-0.0192,-0.0192,0.0208,-0.0913,-0.1869,-0.1863,-0.1773,-0.1735,-0.1831,-0.1975,-0.2114,-0.2152,-0.1858,-0.1442,-0.103,-0.0731,-0.0667,0,0,-0.0059,-0.0625,-0.1591,-0.2381,-0.2333,-0.1821,-0.141,-0.0956,-0.0336,0.0406,0.0763,0.0726,0,0,0,-0.0342,-0.071,-0.0491,0.0368,0.1548,0.0464,0.0187,0.0107,0.0043,-0.0096,0,-0.0208,-0.0283,0.0192,0.0619,0,-0.0774,-0.1559,-0.1591,-0.1671,-0.1767,-0.1794,-0.1559,-0.134,0,0,0,-0.0107,-0.0064,-0.0091,-0.0262,0,-0.0214,-0.0374,-0.032,0,0,0,0,0,0,0,0.0283,0.0342,0.0166,-0.023,-0.0705,-0.0774,-0.0812,0,0,-0.0208,-0.0101,0.0219,0.031,0.0998,0.0972,0.0326,0,0,0,0,0,-0.0662,-0.1361,-0.1474,-0.1596,-0.1666,-0.165,-0.1639,-0.1666,-0.1564,-0.134,-0.0934,-0.0646,-0.0737,-0.102,-0.1527,-0.1377,-0.0545,0.0107,0.0352,0.0021,-0.0464,-0.0635,-0.0662,-0.0913,-0.1388,-0.1159,-0.0582,-0.0454,-0.0448,-0.0475,-0.0529,0.0027,0.0513,0.0037,-0.0486,-0.0662,0,0,0,-0.023,0.0043,0.0278,0.0139,0,0,0,0,-0.0545,-0.1255,-0.1538,-0.1773,-0.1975,-0.1853,-0.1618,-0.1532,-0.1356,-0.1105,-0.0945,-0.0998,-0.1212,-0.142,-0.1137,-0.047,-0.0101,-0.0107,-0.0363,-0.0619,-0.0715,-0.0886,-0.1351,-0.1725,-0.1602,-0.1223,-0.0849,-0.0513,-0.0283,-0.0123,0.0011,0.0016,-0.0043,-0.0059,0.0758,0.1591,0.1655,0.1196,0.0133,-0.0235,0.0011,0.0123,0,0,0,0,0,0,0,0,0,-0.0646,-0.1436,-0.1639,-0.1463,-0.1175,-0.11,-0.1105,-0.1137,-0.1105,-0.0838,-0.0518,-0.063,-0.0892,-0.1009,-0.0961,-0.0635,-0.0176,0.0075,0,0,0,0,-0.0037,-0.0043,0.0117,-0.0011,-0.0267,0,0,0,0,0,-0.0304,-0.0635,-0.0593,-0.039,-0.0107,0,0,0,0,0,0,0,0,0,0,0,0,-0.0486,-0.1132,-0.134,-0.1426,-0.1452,-0.1372,-0.1121,-0.0726,-0.0507,0,0,0,0,0,0,0,0,0,0,0,0,0.0155,0.0198,0.0091,0,0,0,0,0,-0.0358,-0.0715,-0.0598,-0.0331,-0.0021,0,0,0,0,0,0,0,0,0,0,0,0,0,0,0,0,0,0,0,0,0,0,0,0,0,0,0,0,0,0,0,0,0,0,0,0,0,0,0,0,0,-0.0304,-0.0561,-0.0395,-0.0171,-0.0043,0,0,0,0,0,0,0,0,0,0,0,0,0,0,0,0,0,0,0,0,0,0,0,0,0,0,0,0,0,0,0,0,0,0,0,0,0,0,0,0,0,-0.0219,-0.0374,-0.023,-0.0149,-0.0144,0,0,0,0,0,0,0,0,0,0,0,0,0,0,0,0,0,0,0,0,0,0,0,0,0,0,0,0,0,0,0,0,0,0,0,0,0,0,0,0,0,0,-0.0166,-0.0219,-0.0155,-0.0096,0,0,0,0,0,0,0,0,0,0,0,0,0,0,0,0,0,0,0,0,0,0,0,0,0,0,0,0,0,0,0,0,0,0,0,0,0,0,0,0,0,0,-0.0219,-0.032,-0.0139,-0.0037,0,0,0,0,0,0,0,0,0,0,0,0,0,0,0,0,0,0,0,0,0,0,0,0,0,0,0,0,0,0,0,0,0,0,0,0,0,0,0,0,0,0,-0.016,-0.0219,-0.0064,-0.0059,0,0,0,0,0,0,0,0,0,0,0,0,0,0,0,0,0,0,0,0,0,0,0,0,0,0,0,0,0,0,0,0,0,0,0,0,0,0,0,0,0,0,-0.0075,-0.0085,0.0011,-0.0117,0]}],[{"header":{"parameterUnit":"kt","parameterCategory":2,"dx":1,"dy":1,"la1":29.46422004699707,"la2":30.564109802246094,"lo1":-89.4342041015625,"lo2":-87.934326171875,"nx":46,"ny":34,"refTime":"2022-11-01T00:00:00:Z","depth":"10","parameterNumber":3,"parameterNumberName":"V-component_of_CURRENTS"},"data":[0.047,0.0571,0.0742,0.0924,0.1185,0.1548,0.1826,0,-0.04,0.1949,0.2007,0.1901,0.2253,0.2371,0.2552,0.2643,0.2568,0.2568,0.2835,0.3123,0.3129,0.2936,0.2648,0.2242,0.2499,0.2739,0.3086,0.2552,0.2178,0.3102,0.3951,0.3353,0.2061,0.0956,0.0683,0.1009,0.1191,0.1084,0.0865,0.0651,0.0432,0.031,0.0251,0.0283,0.0342,0.0294,0.0448,0.0561,0.0694,0.0849,0.103,0.1212,0.1228,0.0101,0,0.3022,0.2718,0.1767,0.2317,0.2403,0.2435,0.2611,0.2696,0.2707,0.2728,0.2867,0.2995,0.2894,0.2536,0.2007,0.1933,0.221,0.2675,0.3177,0.3113,0.3369,0.4287,0.4207,0.2926,0.141,0.0614,0.0651,0.078,0.0747,0.063,0.0427,0.0192,0.0112,0.0107,0.0069,-0.0112,-0.0315,0.0454,0.055,0.0657,0.0774,0.0892,0.0966,0.0897,0.047,0.0464,0.3054,0.2776,0,0.2846,0.2472,0.2306,0.228,0.2483,0.2648,0.2702,0.276,0.2771,0.276,0.2616,0.2333,0.213,0.1709,0.1842,0.1853,0.2392,0.2899,0.3502,0.3673,0.2792,0.1415,0.047,0.0379,0.0737,0.0902,0.0956,0.0796,0.0363,0.008,0.0091,0.0155,0.0096,-0.0043,0.0416,0.0518,0.0625,0.0726,0.0828,0.0913,0.0945,0.0918,0.1111,0.2173,0.2114,0.0822,0.2974,0.2451,0.1879,0.1847,0.2029,0.2328,0.2547,0.2659,0.2675,0.2702,0.2659,0.2552,0.2339,0.2045,0.2184,0.1474,0.1345,0.1741,0.2493,0.2696,0.2397,0.1538,0.0785,0.0619,0.0924,0.1041,0.1153,0.1009,0.0689,0.0432,0.0294,0.0256,0.0224,0.0182,0.0224,0.0358,0.0534,0.0673,0.079,0.0929,0.1068,0.1201,0.1393,0.181,0.1986,0.197,0.2792,0.283,0.1559,0.087,0.1618,0.1895,0.2258,0.2477,0.2589,0.2627,0.2616,0.2621,0.2504,0.2339,0.2355,0.2205,0.1522,0.1666,0.2306,0.2664,0.2531,0.2066,0.1495,0.1201,0.1164,0.1223,0.1265,0.094,0.0763,0.0897,0.0822,0.0577,0.0331,0.0187,0.0005,0.0064,0.0294,0.055,0.0726,0.0929,0.1164,0.1361,0.1543,0.1767,0.2013,0.228,0.2771,0.3065,0,0.0208,0.1265,0.1634,0.1949,0.2264,0.2435,0.2509,0.2536,0.2541,0.2483,0.2371,0.2488,0.2792,0.1612,0.2269,0.2819,0.3214,0.3001,0.2638,0.2077,0.1586,0.1356,0.1388,0.1239,0.0828,0.0651,0.0865,0.1052,0.0934,0.0609,0.0416,-0.0064,-0.0037,0.0069,0.0256,0.0529,0.0844,0.1255,0.1474,0.1623,0.1767,0.1933,0.213,0.2344,0.2435,0.0742,0,0.1153,0.1532,0.1757,0.2104,0.2285,0.2365,0.2397,0.2387,0.2349,0.2285,0.2563,0.3235,0.1975,0.1927,0.2776,0.3305,0.3251,0.284,0.2226,0.1687,0.1474,0.1479,0.1143,0.0817,0.0731,0.071,0.0817,0.0812,0.0619,0.0577,0,0.0059,0.0011,-0.0005,0.0075,0.0763,0.1596,0.1639,0.1666,0.173,0.1805,0.1874,0.1895,0.1794,0.1431,0.0577,0,0.1532,0.1831,0.2007,0.2178,0.2248,0.2253,0.2221,0.2184,0.2136,0.2461,0.3396,0.2814,0.1548,0.2136,0.2696,0.3006,0.2808,0.2269,0.1794,0.1559,0.1404,0.1095,0.087,0.0822,0.0753,0.0694,0.0598,0.047,0.0475,0,0.0155,0,-0.0149,-0.023,0,0.1789,0.1666,0.1623,0.1644,0.1671,0.1666,0.1602,0.141,0.1292,0.1127,0.0406,0,0.1671,0.1783,0.204,0.2141,0.2141,0.2093,0.205,0.2024,0.2264,0.3219,0.3465,0.2317,0.2109,0.2376,0.2723,0.2734,0.2317,0.1847,0.1468,0.1244,0.1057,0.0945,0.0908,0.0812,0.071,0.0603,0.0507,0.0464,0,0.0208,0.0,-0.0235,0,0.0256,0.142,0.1458,0.1468,0.1511,0.1554,0.1564,0.1538,0.1255,0.1319,0.1191,0.095,0,0.1399,0.173,0.1933,0.205,0.2056,0.2007,0.1975,0.197,0.2082,0.2803,0.3438,0.3166,0.267,0.2621,0.268,0.2547,0.2168,0.1623,0.1191,0.1073,0.1004,0.0982,0.0982,0.0892,0.0742,0.0609,0.0523,0.0497,0,0,0,0,0,0.0513,0.1175,0.1287,0.1319,0.1383,0.1452,0.1522,0.1532,0,0.1319,0.1255,0.102,0,0,0.1676,0.1783,0.1943,0.1965,0.1938,0.1922,0.1938,0.1991,0.2306,0.2931,0.3198,0.2953,0.275,0.252,0.2221,0.1783,0.1297,0.1014,0.095,0.0934,0.0945,0.0982,0.094,0.0785,0.0625,0.0518,0.0507,0,0,0,0,0,0,0.11,0.1164,0.1196,0.1239,0.1319,0.1367,0.1271,0.0326,0.1132,0.1345,0.094,0,0,0.1447,0.1554,0.1799,0.1869,0.1869,0.1863,0.1885,0.1922,0.1997,0.2349,0.2675,0.2728,0.2595,0.2237,0.1799,0.1436,0.1143,0.0993,0.0918,0.087,0.0876,0.0924,0.0918,0.0812,0.0646,0.0513,0.0507,0,0,0,0,0,0,0.094,0.0982,0.1052,0.1046,0.1084,0.1036,0.0865,0.0625,0.086,0.1244,0,0,0,0.1313,0.1393,0.1692,0.1789,0.1794,0.1789,0.1794,0.1831,0.1874,0.197,0.2168,0.2317,0.2285,0.1986,0.1559,0.1324,0.1148,0.102,0.0929,0.087,0.0849,0.087,0.0881,0.0806,0.0651,0.0513,0.0507,0,0,0,0,0,0,0.086,0.0865,0.0913,0.0892,0.0844,0.0747,0.063,0.0587,0.063,0.0774,0.0123,0.0096,0,0.1255,0.1324,0.1639,0.1741,0.1735,0.1687,0.166,0.1698,0.1762,0.1815,0.1885,0.197,0.1986,0.1863,0.1618,0.1399,0.1201,0.1052,0.0961,0.0902,0.087,0.087,0.087,0.0796,0.0667,0.0539,0.0518,0,0,0,0,0,0,0,0.0838,0.1127,0.0865,0.0699,0.0651,0.0614,0.0598,0.0625,0.0571,0.0347,0.0315,0,0.1287,0.134,0.1655,0.1735,0.1692,0.1575,0.15,0.1527,0.1618,0.1687,0.1725,0.1757,0.1789,0.1751,0.1644,0.1468,0.1255,0.1084,0.0993,0.095,0.0913,0.0892,0.0844,0.0753,0.0662,0.0577,0.0534,0,0,0,0.0182,-0.0219,0,0,0,0.1511,0.0972,0.0721,0.0619,0.0587,0.0582,0.0571,0.0539,0.0438,0.0374,0,0.1431,0.1468,0.1719,0.1757,0.166,0.149,0.1377,0.1372,0.1442,0.1532,0.1623,0.1623,0.1655,0.1634,0.158,0.1463,0.1324,0.118,0.11,0.1046,0.0982,0.0902,0.079,0.0673,0.0609,0.0561,0.0518,0,0,-0.0027,0.0171,-0.0203,0.0214,0.0,0.0,0.0299,0.0625,0.0561,0.0448,0.0374,0.039,0.0331,0.0315,0.0448,0.0315,0,0.1746,0.1687,0.181,0.1794,0.1671,0.1543,0.1399,0.134,0.1335,0.1399,0.1522,0.1527,0.1543,0.15,0.1463,0.1447,0.1383,0.1297,0.1217,0.1132,0.103,0.0913,0.0747,0.0603,0.0539,0.0502,0.0481,0,0,0.086,-0.0021,0.0032,0.0427,0,0,-0.0641,0.0037,0.0112,0.0117,0.0075,0.0117,0.0064,-0.0187,-0.0192,0,0.086,0.1709,0.1778,0.181,0.1789,0.1741,0.1746,0.1628,0.1538,0.1484,0.1442,0.1468,0.1431,0.1436,0.1372,0.1335,0.1329,0.1404,0.1297,0.1207,0.1111,0.0982,0.0876,0.0715,0.0561,0.0497,0.0497,0.047,0.0961,0.0208,0.1404,0,0,0,0,0,0.0027,-0.0016,0.0032,0.0021,-0.0027,-0.0048,-0.0101,-0.0443,-0.0657,-0.0053,0.1345,0.1324,0.1543,0.1591,0.1639,0.1709,0.1815,0.1676,0.1468,0.1452,0.1393,0.1361,0.1297,0.1121,0.1084,0.1175,0.1239,0.1388,0.1148,0.1036,0.0945,0.0812,0.0657,0.055,0.0406,0.0368,0.0518,0.0475,0.1922,-0.0326,0.0432,-0.0091,-0.0267,0,0,0,0.0721,0.0395,0.0347,0.0246,0.0133,0.0037,-0.008,-0.0192,-0.0187,0.0139,0.0881,0.1111,0.1201,0.1244,0.1308,0.1377,0.1351,0.0886,0.031,0.0315,0.0384,0.0593,0.0299,-0.0059,0.0368,0.0796,0.1116,0.1308,0.1078,0.0796,0.0609,0.0518,0.0374,0.016,-0.0048,0.0166,0.0363,0.0416,0,0.0016,0.0064,-0.0251,-0.0651,-0.0534,0,0,0.1634,0.0998,0.0651,0.0448,0.0304,0.0246,0.0075,0.0016,0.0128,0.0614,0.0982,0.1062,0.0977,0.0897,0.0849,0.0742,0.0694,0.0208,0.0021,0.0342,0.0096,-0.0566,-0.1383,-0.0806,0.0182,0.0865,0.1068,0.1084,0.0491,0.0363,0.0208,0.0149,0.0171,0.0235,0.031,0.0545,0.0555,0.0214,-0.1148,-0.0059,-0.023,-0.0475,-0.0705,-0.0785,-0.0107,-0.0059,0.1506,0.0844,0.0587,0.0438,0.0518,0.0699,0.0155,0.0059,-0.0133,0.0961,0.1372,0.1207,0.0699,0.0443,0.0432,0.0363,0.0251,0.0182,0.0294,0.0689,0.008,-0.0454,-0.1052,0.0796,0.0881,0.0577,0.0598,-0.0315,-0.0347,0.0523,0.0502,0.0166,-0.0107,0.0246,0.0283,0.0139,0.0139,0.0155,-0.2301,-0.1511,-0.0972,-0.0689,-0.0625,-0.0491,-0.0187,0.0091,0.0977,0.039,0.0411,0.0358,0.055,0.0929,0,0,-0.0438,0.1484,0.1922,0.1863,0.047,0.0166,0.0267,0.032,0.023,0.0064,0.0283,0.1313,0,0,0,0.0774,0.0673,0.04,0.0149,-0.0427,0.0753,0.0774,0.0774,0.0689,0.0438,0,0.0523,-0.0267,-0.0262,0.0128,0,-0.1799,-0.1276,-0.0806,-0.0507,-0.0331,-0.0091,0.0171,0.0459,0,0,0,0.0747,0.071,0.0027,-0.0251,0,0.2082,0.1959,0.1831,0,0,0,0,0,0,0,0.1847,0.0304,0.0027,-0.0155,0.0497,0.0763,0.0849,0,0,0.0662,0.0481,0.0881,0.0977,0.1287,0.0849,0.1522,0,0,0,0,0,-0.1372,-0.0977,-0.0352,-0.0075,0.0069,0.008,-0.0144,0.0032,0.0096,0.0101,0.0817,0.0539,0.016,-0.0262,0.0027,0.1741,0.1303,0.0998,0.0219,0.0085,-0.0064,-0.008,-0.0171,-0.0267,-0.0208,0.1207,0.0368,0.0032,-0.0246,0.0166,0.0587,0.0956,0.0192,0.0112,0.0486,0.0561,0,0,0,0.1468,0.2002,0.0438,0.032,0,0,0,0,-0.1105,-0.0283,0.0037,0.0166,0.0128,-0.0737,-0.0117,0.0117,0.0112,0.0443,0.0411,0.0294,0.0128,0.0208,0.0966,0.0849,0.0747,0.0534,0.032,-0.0043,-0.0192,-0.0144,0.0149,-0.0422,0.0475,0.0133,0.0011,-0.0224,0.0043,0.0262,0.0587,0.0358,0.0224,0.0641,0.1041,0.0,0.0,0.0587,0.1137,0.1564,0.0929,0.0619,0,0,0,0,0,0,0,0,0,-0.1335,-0.0299,0.0043,-0.0475,0.0112,0.0224,0.023,0.024,0.0326,0.0571,0.063,0.078,0.0625,0.047,0.0048,-0.0219,0.0053,0.0833,0,0,0,0,-0.0267,0.0032,0.0037,0.0283,0.0459,0,0,0,0,0,0.0881,0.0886,0.0972,0.0881,0.0651,0,0,0,0,0,0,0,0,0,0,0,0,-0.0966,-0.0091,0.0091,0.0139,0.0192,0.0278,0.0416,0.0502,0.0758,0,0,0,0,0,0,0,0,0,0,0,0,-0.0043,0.0182,0.0587,0,0,0,0,0,0.0587,0.0747,0.0731,0.0796,0.0758,0,0,0,0,0,0,0,0,0,0,0,0,0,0,0,0,0,0,0,0,0,0,0,0,0,0,0,0,0,0,0,0,0,0,0,0,0,0,0,0,0,0.0545,0.0758,0.079,0.0817,0.0812,0,0,0,0,0,0,0,0,0,0,0,0,0,0,0,0,0,0,0,0,0,0,0,0,0,0,0,0,0,0,0,0,0,0,0,0,0,0,0,0,0,0.0598,0.0865,0.0876,0.0849,0.0838,0,0,0,0,0,0,0,0,0,0,0,0,0,0,0,0,0,0,0,0,0,0,0,0,0,0,0,0,0,0,0,0,0,0,0,0,0,0,0,0,0,0,0.1009,0.0977,0.0902,0.0913,0,0,0,0,0,0,0,0,0,0,0,0,0,0,0,0,0,0,0,0,0,0,0,0,0,0,0,0,0,0,0,0,0,0,0,0,0,0,0,0,0,0,0.0945,0.1009,0.095,0.0977,0,0,0,0,0,0,0,0,0,0,0,0,0,0,0,0,0,0,0,0,0,0,0,0,0,0,0,0,0,0,0,0,0,0,0,0,0,0,0,0,0,0,0.0769,0.0956,0.0945,0.0998,0,0,0,0,0,0,0,0,0,0,0,0,0,0,0,0,0,0,0,0,0,0,0,0,0,0,0,0,0,0,0,0,0,0,0,0,0,0,0,0,0,0,0.0705,0.0849,0.0902,0.0929,0]}]],[[{"header":{"parameterUnit":"kt","parameterCategory":2,"dx":1,"dy":1,"la1":29.46422004699707,"la2":30.564109802246094,"lo1":-89.4342041015625,"lo2":-87.934326171875,"nx":46,"ny":34,"refTime":"2022-11-01T00:00:00:Z","depth":"12","parameterNumber":2,"parameterNumberName":"U-component_of_CURRENTS"},"data":[0,0,0,0,0,0,0,0,0,0,0,0,0,0,0,-0.1207,-0.1233,-0.1132,-0.0924,-0.0651,-0.0464,-0.078,-0.0491,0.0085,0.0486,0.0918,0.1474,0.142,0.1105,0.1153,0.1175,0.0972,0.0742,0.0625,0.04,0.0085,-0.008,-0.0166,-0.0235,-0.0214,-0.0139,-0.0032,0.0043,0.0011,-0.0043,0.0043,0,0,0,0,0,0,0,0,0,0,0,0,0,0,0,0,-0.0774,-0.0694,-0.0582,-0.0304,-0.0037,0.0048,-0.0123,-0.0534,-0.0427,0.0507,0.1132,0.1372,0.1351,0.1372,0.1426,0.1212,0.0828,0.0481,0.0187,-0.0069,-0.0117,0.0075,0.0251,0.0288,0.031,0.0368,0.0438,0.0507,0.0529,0.055,0,0,0,0,0,0,0,0,0,0,0,0,0,0,0,0,-0.0603,-0.032,-0.0176,-0.0075,0.008,0.0235,0.0278,0.0069,0.0005,-0.016,0.0096,0.0742,0.1281,0.1393,0.1287,0.1228,0.0998,0.0683,0.0502,0.0448,0.0529,0.0646,0.0614,0.0486,0.0288,0.0037,-0.0101,-0.0128,-0.0139,-0.0224,0,0,0,0,0,0,0,0,0,0,0,0,0,0,0,0,0,-0.0155,0.0101,0.024,0.0315,0.0363,0.0438,0.047,0.0406,0.0448,0.0171,-0.0037,0.0438,0.1185,0.1607,0.1612,0.1522,0.1361,0.1244,0.1143,0.0913,0.0566,0.0224,0.0016,-0.0016,-0.023,-0.0662,-0.0988,-0.1169,-0.1335,0,0,0,0,0,0,0,0,0,0,0,0,0,0,0,0,0,0,0.0272,0.0438,0.0539,0.0587,0.0603,0.0619,0.0635,0.0657,0.078,0.0705,0.0961,0.126,0.1837,0.2216,0.2082,0.1949,0.1783,0.1452,0.0945,0.0518,0.0235,0.0032,-0.0091,-0.0198,-0.0251,-0.0406,-0.0625,-0.0758,0,0,0,0,0,0,0,0,0,0,0,0,0,0,0,0,0,0,0,0.0582,0.0673,0.0726,0.0747,0.0785,0.0833,0.086,0.1095,0.0902,0.1143,0.1676,0.2013,0.2184,0.2194,0.2018,0.1692,0.1287,0.0924,0.0678,0.0507,0.0459,0.0422,0.0326,0.0192,0.0048,0.0123,0.0251,0,0,0,0,0,0,0,0,0,0,0,0,0,0,0,0,0,0,0,0.0726,0.0753,0.079,0.0812,0.087,0.0945,0.0977,0.1089,0.0977,0.0844,0.1228,0.1596,0.1874,0.1901,0.1687,0.1484,0.1324,0.1212,0.1014,0.086,0.0849,0.079,0.0721,0.0667,0.0587,0.0502,0.0347,0,0,0,0,0,0,0,0,0,0,0,0,0,0,0,0,0,0,0,0,0.0763,0.0812,0.0838,0.0876,0.0913,0.0892,0.0918,0.103,0.0651,0.0347,0.0753,0.1292,0.1468,0.1532,0.1698,0.1757,0.1564,0.1276,0.1132,0.1057,0.0966,0.0918,0.0892,0.0881,0.0833,0.0769,0,0,0,0,0,0,0,0,0,0,0,0,0,0,0,0,0,0,0,0,0.0667,0.0763,0.0817,0.0828,0.0801,0.0721,0.0689,0.0929,0.086,0.0374,0.0262,0.0518,0.0908,0.1447,0.1965,0.1997,0.1586,0.1351,0.1217,0.1062,0.1014,0.0993,0.0988,0.1004,0.1004,0.0972,0,0,0,0,0,0,0,0,0,0,0,0,0,0,0,0,0,0,0,0,0.0694,0.0667,0.0705,0.0678,0.0614,0.0529,0.0491,0.071,0.1025,0.0897,0.0715,0.0854,0.1191,0.166,0.1895,0.1586,0.1223,0.1078,0.0993,0.1014,0.1046,0.1062,0.1073,0.11,0.1116,0.1116,0,0,0,0,0,0,0,0,0,0,0,0,0,0,0,0,0,0,0,0,0,0.0411,0.047,0.0438,0.0384,0.0336,0.031,0.0416,0.0785,0.11,0.1196,0.1207,0.1297,0.1431,0.1287,0.1004,0.087,0.0849,0.0913,0.1004,0.1089,0.1153,0.1191,0.1201,0.1207,0.1207,0,0,0,0,0,0,0,0,0,0,0,0,0,0,0,0,0,0,0,0,0,0.0203,0.0224,0.0198,0.0176,0.0176,0.0192,0.0256,0.0448,0.0763,0.0998,0.1105,0.1132,0.1084,0.0966,0.0865,0.0854,0.0892,0.0945,0.1025,0.1127,0.1223,0.1271,0.1271,0.1265,0.1255,0,0,0,0,0,0,0,0,0,0,0,0,0,0,0,0,0,0,0,0,0,0.0021,0.0011,-0.0011,-0.0005,0.0043,0.0107,0.0176,0.0278,0.047,0.0705,0.0865,0.0876,0.0833,0.0844,0.0892,0.094,0.0988,0.1036,0.1095,0.1175,0.1244,0.1276,0.1281,0.1281,0.1265,0,0,0,0,0,0,0,0,0,0,0,0,0,0,0,0,0,0,0,0,0,-0.0144,-0.0187,-0.0214,-0.0187,-0.0101,0.0016,0.0123,0.0219,0.0347,0.0545,0.0758,0.0918,0.1009,0.1041,0.1046,0.1068,0.11,0.1132,0.1169,0.1207,0.1228,0.1244,0.1271,0.1276,0.1249,0,0,0,0,0,0,0,0,0,0,0,0,0,0,0,0,0,0,0,0,0,-0.0315,-0.0384,-0.0416,-0.0384,-0.0278,-0.0133,0.0011,0.0144,0.0283,0.0475,0.0705,0.0886,0.0998,0.1057,0.1068,0.1062,0.1057,0.1052,0.1041,0.1025,0.1041,0.1105,0.118,0.1201,0.118,0,0,0,0,0,0,0,0,0,0,0,0,0,0,0,0,0,0,0,0,0,-0.0534,-0.0614,-0.0641,-0.0609,-0.0523,-0.0379,-0.0198,0.0011,0.023,0.0427,0.0593,0.0742,0.0876,0.0972,0.1009,0.0993,0.094,0.0876,0.0838,0.0844,0.0897,0.0982,0.1046,0.1078,0.1084,0,0,0,0,0,0,0,0,0,0,0,0,0,0,0,0,0,0,0,0,-0.0683,-0.0849,-0.0897,-0.0902,-0.0929,-0.0977,-0.0966,-0.0844,-0.0625,-0.0326,0.0011,0.031,0.0529,0.0694,0.0801,0.0828,0.0822,0.0812,0.0822,0.0854,0.0876,0.0886,0.0897,0.0929,0.0956,0.0966,0,0,0,0,0,0,0,0,0,0,0,0,0,0,0,0,0,0,0,0,-0.1265,-0.1244,-0.1148,-0.1095,-0.1153,-0.1207,-0.1089,-0.095,-0.0796,-0.0523,-0.0214,0.0101,0.0368,0.0438,0.0529,0.0689,0.0774,0.0886,0.0977,0.102,0.0961,0.0924,0.094,0.0924,0.0897,0.0886,0,0,0,0,0,0,0,0,0,0,0,0,0,0,0,0,0,0,0,0,-0.1602,-0.142,-0.1228,-0.1068,-0.079,-0.055,-0.0358,-0.0085,0.0144,0.0278,0.0459,0.0641,0.0731,0.078,0.0699,0.063,0.0678,0.0758,0.0833,0.0876,0.0854,0.0763,0.0731,0.071,0.0715,0.0796,0,0,0,0,0,0,0,0,0,0,0,0,0,0,0,0,0,0,0,-0.1997,-0.1623,-0.1463,-0.1276,-0.0998,-0.0507,-0.0198,-0.016,-0.0005,0.0112,0.0235,0.0294,0.039,0.0432,0.0278,0.0171,0.0331,0.0571,0.0598,0.0566,0.0539,0.0598,0.0683,0.0619,0.0545,0.0481,0.0566,0,0,0,0,0,0,0,0,0,0,0,0,0,0,0,0,0,0,0,-0.1927,-0.1596,-0.1442,-0.1239,-0.0892,-0.0545,-0.0283,-0.0155,-0.0171,-0.0085,0.0267,0.0502,0.0214,-0.0149,-0.0149,-0.0048,0.0347,0.063,0.0411,0.0379,0.0422,0.0497,0.0368,0.0315,0.0299,0.0272,0.04,0,0,0,0,0,0,0,0,0,0,0,0,0,0,0,0,0,0,0,0,-0.1799,-0.1458,-0.1148,-0.0763,-0.032,-0.008,-0.0053,0,-0.0374,0.0331,0.086,0.0411,-0.0342,-0.055,-0.0192,0.024,0.0203,0.0091,0.0139,0.032,0,0.0149,0,-0.0182,-0.0182,0.0192,0,0,0,0,0,0,0,0,0,0,0,0,0,0,0,0,0,0,0,0,0,-0.1676,-0.1276,-0.0876,-0.032,0,0,0,0,0,0,0,0,0,0.0133,0.0593,0,0,0,0,0,0,0,0,0,0,0,0,0,0,0,0,0,0,0,0,0,0,0,0,0,0,0,0,0,0,0,0,0,0,0,0,0,0,0,0,0,0,0,0,0,0,0,0,0,0,0,0,0,0,0,0,0,0,0,0,0,0,0,0,0,0,0,0,0,0,0,0,0,0,0,0,0,0,0,0,0,0,0,0,0,0,0,0,0,0,0,0,0,0,0,0,0,0,0,0,0,0,0,0,0,0,0,0,0,0,0,0,0,0,0,0,0,0,0,0,0,0,0,0,0,0,0,0,0,0,0,0,0,0,0,0,0,0,0,0,0,0,0,0,0,0,0,0,0,0,0,0,0,0,0,0,0,0,0,0,0,0,0,0,0,0,0,0,0,0,0,0,0,0,0,0,0,0,0,0,0,0,0,0,0,0,0,0,0,0,0,0,0,0,0,0,0,0,0,0,0,0,0,0,0,0,0,0,0,0,0,0,0,0,0,0,0,0,0,0,0,0,0,0,0,0,0,0,0,0,0,0,0,0,0,0,0,0,0,0,0,0,0,0,0,0,0,0,0,0,0,0,0,0,0,0,0,0,0,0,0,0,0,0,0,0,0,0,0,0,0,0,0,0,0,0,0,0,0,0,0,0,0,0,0,0,0,0,0,0,0,0,0,0,0,0,0,0,0,0,0,0,0,0,0,0,0,0,0,0,0,0,0,0,0,0,0,0,0,0,0,0,0,0,0,0,0,0,0,0,0,0,0,0,0,0,0,0,0,0,0,0,0,0,0,0,0,0,0,0,0,0,0,0,0,0,0,0,0,0,0,0,0,0,0,0,0,0,0,0,0,0,0,0,0,0,0,0,0,0,0,0,0,0,0,0,0,0,0,0,0,0,0,0,0,0,0,0,0,0,0,0,0,0,0,0,0,0,0,0,0,0,0,0,0,0,0,0,0,0,0,0,0,0,0,0,0,0,0,0,0,0,0,0,0,0,0,0,0,0,0,0,0,0,0,0,0,0,0,0,0,0,0,0,0,0,0,0,0,0,0,0,0,0,0,0,0,0,0,0,0,0,0,0,0,0,0,0,0,0,0,0,0,0,0,0,0,0,0,0,0,0,0,0,0,0,0,0,0,0,0,0,0,0,0,0,0,0,0,0,0,0,0,0,0,0]}],[{"header":{"parameterUnit":"kt","parameterCategory":2,"dx":1,"dy":1,"la1":29.46422004699707,"la2":30.564109802246094,"lo1":-89.4342041015625,"lo2":-87.934326171875,"nx":46,"ny":34,"refTime":"2022-11-01T00:00:00:Z","depth":"12","parameterNumber":3,"parameterNumberName":"V-component_of_CURRENTS"},"data":[0,0,0,0,0,0,0,0,0,0,0,0,0,0,0,0.229,0.2349,0.2339,0.2435,0.2691,0.2808,0.2776,0.2328,0.1709,0.1741,0.2013,0.2595,0.268,0.2306,0.3123,0.3898,0.331,0.2093,0.0993,0.071,0.1025,0.1201,0.1105,0.0892,0.0678,0.0459,0.0342,0.0283,0.0304,0.0358,0.031,0,0,0,0,0,0,0,0,0,0,0,0,0,0,0,0,0.2322,0.2451,0.2515,0.2584,0.2712,0.2776,0.2488,0.1965,0.1495,0.1442,0.1885,0.2472,0.2985,0.3492,0.4293,0.4197,0.2926,0.1436,0.0646,0.0678,0.079,0.0763,0.0646,0.0443,0.0214,0.0133,0.0128,0.0091,-0.0091,-0.0294,0,0,0,0,0,0,0,0,0,0,0,0,0,0,0,0,0.2285,0.229,0.2435,0.2605,0.2659,0.2707,0.2632,0.2349,0.2136,0.1495,0.1345,0.126,0.1863,0.2872,0.3695,0.3711,0.2792,0.1436,0.0507,0.0416,0.0753,0.0913,0.0961,0.0801,0.0368,0.0091,0.0101,0.0171,0.0112,-0.0021,0,0,0,0,0,0,0,0,0,0,0,0,0,0,0,0,0,0.213,0.2226,0.2451,0.2552,0.26,0.2616,0.2557,0.2349,0.2082,0.1863,0.1116,0.1014,0.1564,0.2568,0.2867,0.2413,0.1554,0.0822,0.0662,0.0934,0.1052,0.1159,0.1014,0.0694,0.0443,0.031,0.0272,0.0251,0.0219,0,0,0,0,0,0,0,0,0,0,0,0,0,0,0,0,0,0,0.2024,0.2194,0.2419,0.2509,0.252,0.2579,0.2493,0.2349,0.2077,0.1714,0.0892,0.1506,0.1986,0.2723,0.2595,0.2088,0.1522,0.1233,0.118,0.1233,0.1276,0.0945,0.0769,0.0902,0.0828,0.0587,0.0347,0.0219,0,0,0,0,0,0,0,0,0,0,0,0,0,0,0,0,0,0,0,0.1965,0.2189,0.2349,0.2413,0.2467,0.244,0.2355,0.2328,0.2312,0.0956,0.1602,0.2178,0.2947,0.3081,0.2648,0.2088,0.1607,0.1372,0.1404,0.1249,0.0833,0.0657,0.0865,0.1052,0.0934,0.0614,0.0422,0,0,0,0,0,0,0,0,0,0,0,0,0,0,0,0,0,0,0,0.1869,0.1997,0.2173,0.2242,0.228,0.2285,0.2264,0.2397,0.2771,0.1431,0.1116,0.1906,0.2728,0.3145,0.2851,0.2242,0.1709,0.1484,0.149,0.1153,0.0822,0.0737,0.0715,0.0817,0.0806,0.0619,0.0577,0,0,0,0,0,0,0,0,0,0,0,0,0,0,0,0,0,0,0,0,0.1874,0.204,0.2098,0.212,0.2125,0.212,0.2306,0.2926,0.221,0.095,0.1538,0.2157,0.2638,0.2707,0.228,0.1799,0.1559,0.1404,0.11,0.087,0.0822,0.0758,0.0699,0.0603,0.0475,0.0475,0,0,0,0,0,0,0,0,0,0,0,0,0,0,0,0,0,0,0,0,0.1783,0.1933,0.2007,0.2018,0.2013,0.2013,0.2184,0.2819,0.2803,0.1719,0.1586,0.1938,0.2328,0.2515,0.2274,0.1826,0.1468,0.1239,0.1057,0.094,0.0908,0.0812,0.071,0.0609,0.0507,0.0464,0,0,0,0,0,0,0,0,0,0,0,0,0,0,0,0,0,0,0,0,0.1757,0.1837,0.1949,0.1959,0.1954,0.1959,0.2066,0.2563,0.2894,0.2499,0.2007,0.2056,0.2237,0.229,0.205,0.1596,0.1191,0.1073,0.1004,0.0977,0.0977,0.0886,0.0737,0.0614,0.0523,0.0497,0,0,0,0,0,0,0,0,0,0,0,0,0,0,0,0,0,0,0,0,0,0.1741,0.1885,0.1906,0.1906,0.1927,0.1981,0.2232,0.2621,0.268,0.2355,0.2168,0.2056,0.1981,0.1714,0.1292,0.1014,0.095,0.0929,0.094,0.0972,0.0929,0.078,0.0625,0.0518,0.0507,0,0,0,0,0,0,0,0,0,0,0,0,0,0,0,0,0,0,0,0,0,0.1628,0.1805,0.1837,0.1847,0.1874,0.1917,0.1991,0.2253,0.244,0.2381,0.2237,0.1981,0.1698,0.1431,0.1143,0.0993,0.0918,0.087,0.087,0.0913,0.0908,0.0801,0.0635,0.0513,0.0502,0,0,0,0,0,0,0,0,0,0,0,0,0,0,0,0,0,0,0,0,0,0.1543,0.1735,0.1773,0.1773,0.1783,0.1826,0.1869,0.1959,0.2125,0.2205,0.2162,0.1917,0.1548,0.1319,0.1148,0.1014,0.0924,0.086,0.0838,0.086,0.087,0.079,0.0641,0.0507,0.0502,0,0,0,0,0,0,0,0,0,0,0,0,0,0,0,0,0,0,0,0,0,0.1506,0.1698,0.1714,0.1676,0.165,0.1687,0.1757,0.181,0.1874,0.1954,0.197,0.1837,0.1602,0.1388,0.1196,0.1046,0.095,0.0892,0.086,0.086,0.086,0.078,0.0657,0.0529,0.0513,0,0,0,0,0,0,0,0,0,0,0,0,0,0,0,0,0,0,0,0,0,0.1532,0.1692,0.1671,0.1564,0.1495,0.1522,0.1612,0.1682,0.1719,0.1746,0.1762,0.1725,0.1618,0.1447,0.1244,0.1073,0.0977,0.0934,0.0902,0.0881,0.0833,0.0742,0.0657,0.0566,0.0529,0,0,0,0,0,0,0,0,0,0,0,0,0,0,0,0,0,0,0,0,0,0.1612,0.1719,0.1639,0.1484,0.1372,0.1372,0.1442,0.1516,0.1607,0.1586,0.1575,0.1554,0.1527,0.1431,0.1297,0.1159,0.1073,0.102,0.095,0.0881,0.078,0.0673,0.0609,0.0555,0.0513,0,0,0,0,0,0,0,0,0,0,0,0,0,0,0,0,0,0,0,0,0.1564,0.1703,0.1746,0.1639,0.1532,0.141,0.1372,0.1377,0.141,0.1468,0.1399,0.1372,0.1324,0.1345,0.1404,0.1335,0.1233,0.1143,0.1052,0.0956,0.087,0.0737,0.0598,0.0545,0.0502,0.0475,0,0,0,0,0,0,0,0,0,0,0,0,0,0,0,0,0,0,0,0,0.1559,0.1676,0.1682,0.1607,0.1698,0.158,0.1527,0.1516,0.1436,0.1361,0.126,0.1212,0.1185,0.1207,0.1303,0.1351,0.1169,0.1052,0.095,0.0876,0.0801,0.0689,0.0555,0.0486,0.0491,0.0464,0,0,0,0,0,0,0,0,0,0,0,0,0,0,0,0,0,0,0,0,0.1303,0.141,0.1442,0.1377,0.1527,0.1164,0.0897,0.0881,0.0833,0.063,0.0459,0.0416,0.0689,0.0934,0.1111,0.1265,0.1046,0.0806,0.0715,0.0683,0.0582,0.0481,0.0432,0.0358,0.04,0.0459,0,0,0,0,0,0,0,0,0,0,0,0,0,0,0,0,0,0,0,0.0972,0.0988,0.1046,0.1089,0.0988,0.0897,0.0448,0.0267,0.0374,0.0256,-0.0075,-0.0443,-0.0166,0.0555,0.1014,0.1068,0.0833,0.0662,0.047,0.0395,0.0432,0.0368,0.0336,0.0315,0.0368,0.0235,0.0283,0,0,0,0,0,0,0,0,0,0,0,0,0,0,0,0,0,0,0,0.0934,0.0796,0.0731,0.0705,0.0555,0.0342,0.0395,0.0416,0.0486,0.0299,-0.0021,-0.0155,0.0416,0.078,0.086,0.0929,0.0326,0.0171,0.0384,0.023,0.0123,0.0256,0.0294,0.0363,0.0448,0.0331,0.0139,0,0,0,0,0,0,0,0,0,0,0,0,0,0,0,0,0,0,0,0,0.0614,0.0363,0.0363,0.0315,0.0214,0.0149,0.0235,0,0.0123,-0.0133,-0.0283,0.0566,0.0705,0.047,0.0448,0.0384,0.0416,0.0619,0.0432,0.0166,0,0.024,0,0.0128,0.0112,0.0149,0,0,0,0,0,0,0,0,0,0,0,0,0,0,0,0,0,0,0,0,0,0.0144,0.024,0.0299,0.023,0,0,0,0,0,0,0,0,0,0.0256,0.0235,0,0,0,0,0,0,0,0,0,0,0,0,0,0,0,0,0,0,0,0,0,0,0,0,0,0,0,0,0,0,0,0,0,0,0,0,0,0,0,0,0,0,0,0,0,0,0,0,0,0,0,0,0,0,0,0,0,0,0,0,0,0,0,0,0,0,0,0,0,0,0,0,0,0,0,0,0,0,0,0,0,0,0,0,0,0,0,0,0,0,0,0,0,0,0,0,0,0,0,0,0,0,0,0,0,0,0,0,0,0,0,0,0,0,0,0,0,0,0,0,0,0,0,0,0,0,0,0,0,0,0,0,0,0,0,0,0,0,0,0,0,0,0,0,0,0,0,0,0,0,0,0,0,0,0,0,0,0,0,0,0,0,0,0,0,0,0,0,0,0,0,0,0,0,0,0,0,0,0,0,0,0,0,0,0,0,0,0,0,0,0,0,0,0,0,0,0,0,0,0,0,0,0,0,0,0,0,0,0,0,0,0,0,0,0,0,0,0,0,0,0,0,0,0,0,0,0,0,0,0,0,0,0,0,0,0,0,0,0,0,0,0,0,0,0,0,0,0,0,0,0,0,0,0,0,0,0,0,0,0,0,0,0,0,0,0,0,0,0,0,0,0,0,0,0,0,0,0,0,0,0,0,0,0,0,0,0,0,0,0,0,0,0,0,0,0,0,0,0,0,0,0,0,0,0,0,0,0,0,0,0,0,0,0,0,0,0,0,0,0,0,0,0,0,0,0,0,0,0,0,0,0,0,0,0,0,0,0,0,0,0,0,0,0,0,0,0,0,0,0,0,0,0,0,0,0,0,0,0,0,0,0,0,0,0,0,0,0,0,0,0,0,0,0,0,0,0,0,0,0,0,0,0,0,0,0,0,0,0,0,0,0,0,0,0,0,0,0,0,0,0,0,0,0,0,0,0,0,0,0,0,0,0,0,0,0,0,0,0,0,0,0,0,0,0,0,0,0,0,0,0,0,0,0,0,0,0,0,0,0,0,0,0,0,0,0,0,0,0,0,0,0,0,0,0,0,0,0,0,0,0,0,0,0,0,0,0,0,0,0,0,0,0,0,0,0,0,0,0,0,0,0,0,0,0,0,0,0,0,0,0,0,0,0,0,0,0,0,0,0,0,0,0,0,0,0,0,0,0,0,0,0,0,0,0,0]}]],[[{"header":{"parameterUnit":"kt","parameterCategory":2,"dx":1,"dy":1,"la1":29.46422004699707,"la2":30.564109802246094,"lo1":-89.4342041015625,"lo2":-87.934326171875,"nx":46,"ny":34,"refTime":"2022-11-01T00:00:00:Z","depth":"15","parameterNumber":2,"parameterNumberName":"U-component_of_CURRENTS"},"data":[0,0,0,0,0,0,0,0,0,0,0,0,0,0,0,0,0,-0.063,-0.0518,-0.0566,-0.04,-0.0107,-0.0139,-0.0422,-0.0368,-0.024,0.0267,0.0945,0.1217,0.1271,0.1516,0.1554,0.1169,0.0721,0.0379,0.008,-0.008,-0.0155,-0.0214,-0.0182,-0.0112,-0.0021,0.0043,0.0011,-0.0037,0.0048,0,0,0,0,0,0,0,0,0,0,0,0,0,0,0,0,0,0,-0.0384,-0.0016,0.0278,0.0486,0.0352,-0.0267,-0.0913,-0.0534,0.0123,0.0555,0.1185,0.1586,0.1575,0.1399,0.102,0.0582,0.0182,-0.0085,-0.0117,0.008,0.0267,0.031,0.0331,0.0379,0.0443,0.0513,0.0539,0.0555,0,0,0,0,0,0,0,0,0,0,0,0,0,0,0,0,0,0,0,-0.0075,0.0053,0.0331,0.0614,0.0432,0.0048,-0.0438,-0.0929,-0.0507,0.0379,0.1287,0.1634,0.1495,0.1265,0.094,0.0571,0.039,0.0518,0.0646,0.0619,0.0497,0.0299,0.0037,-0.0101,-0.0133,-0.0144,-0.0224,0,0,0,0,0,0,0,0,0,0,0,0,0,0,0,0,0,0,0,0,0.0256,0.023,0.0267,0.0443,0.0416,0.0416,-0.0011,-0.0635,-0.0518,0.0294,0.1377,0.2034,0.2034,0.1799,0.1329,0.103,0.0886,0.0555,0.0224,0.0027,-0.0011,-0.0224,-0.0657,-0.0982,-0.1153,-0.1276,0,0,0,0,0,0,0,0,0,0,0,0,0,0,0,0,0,0,0,0,0,0.0491,0.047,0.0497,0.0587,0.0635,0.0662,0.0219,-0.0075,0.0235,0.0796,0.1869,0.2589,0.2312,0.1725,0.134,0.0902,0.0507,0.0235,0.0037,-0.0085,-0.0192,-0.0235,-0.0374,-0.055,-0.0609,0,0,0,0,0,0,0,0,0,0,0,0,0,0,0,0,0,0,0,0,0,0.0619,0.0593,0.0651,0.0742,0.078,0.0924,0.0529,0.0155,0.0545,0.0763,0.1329,0.205,0.1986,0.1618,0.1228,0.0897,0.0667,0.0507,0.0464,0.0427,0.0331,0.0208,0.0069,0.0139,0.0272,0,0,0,0,0,0,0,0,0,0,0,0,0,0,0,0,0,0,0,0,0,0.0683,0.0641,0.0705,0.0822,0.0876,0.0945,0.0742,0.0176,0.0027,0.0235,0.0603,0.1116,0.1367,0.1308,0.1223,0.1175,0.0998,0.086,0.0849,0.079,0.0721,0.0673,0.0598,0.0507,0.0352,0,0,0,0,0,0,0,0,0,0,0,0,0,0,0,0,0,0,0,0,0,0,0.0667,0.0721,0.0812,0.0833,0.0822,0.0865,0.0224,-0.0459,-0.0539,-0.0336,0.0005,0.0486,0.1046,0.15,0.1506,0.126,0.1121,0.1052,0.0966,0.0918,0.0892,0.0881,0.0838,0.0769,0,0,0,0,0,0,0,0,0,0,0,0,0,0,0,0,0,0,0,0,0,0,0.0673,0.0705,0.0737,0.0689,0.063,0.0828,0.0566,-0.0379,-0.0881,-0.0699,-0.0347,0.0283,0.1105,0.1602,0.1511,0.1329,0.1212,0.1057,0.1014,0.0993,0.0988,0.1004,0.1004,0.0966,0,0,0,0,0,0,0,0,0,0,0,0,0,0,0,0,0,0,0,0,0,0,0.0598,0.0593,0.0571,0.0507,0.0448,0.0641,0.0854,0.0363,-0.0278,-0.0448,-0.016,0.0513,0.1116,0.1287,0.1191,0.1068,0.0988,0.1009,0.1041,0.1062,0.1073,0.1095,0.1111,0.1111,0,0,0,0,0,0,0,0,0,0,0,0,0,0,0,0,0,0,0,0,0,0,0.0406,0.0384,0.0358,0.0315,0.0288,0.0358,0.0646,0.0828,0.0673,0.0379,0.0379,0.0747,0.095,0.0929,0.086,0.0844,0.0908,0.0998,0.1084,0.1148,0.118,0.1191,0.1201,0.1196,0,0,0,0,0,0,0,0,0,0,0,0,0,0,0,0,0,0,0,0,0,0,0.0192,0.0171,0.0155,0.0155,0.0176,0.024,0.0384,0.0614,0.0774,0.0806,0.0817,0.0892,0.0913,0.086,0.0849,0.0881,0.094,0.1014,0.1116,0.1207,0.1255,0.1255,0.1249,0.1244,0,0,0,0,0,0,0,0,0,0,0,0,0,0,0,0,0,0,0,0,0,0,-0.0005,-0.0027,-0.0021,0.0021,0.0091,0.0166,0.0267,0.0422,0.0603,0.0726,0.078,0.0801,0.0833,0.0876,0.0924,0.0972,0.1014,0.1073,0.1153,0.1223,0.1255,0.1265,0.1265,0.1255,0,0,0,0,0,0,0,0,0,0,0,0,0,0,0,0,0,0,0,0,0,0,-0.0182,-0.0219,-0.0203,-0.0117,-0.0005,0.0107,0.0203,0.0331,0.0518,0.0721,0.087,0.0956,0.0993,0.1014,0.1036,0.1068,0.1105,0.1143,0.1175,0.1201,0.1233,0.1265,0.1265,0.1239,0,0,0,0,0,0,0,0,0,0,0,0,0,0,0,0,0,0,0,0,0,0,-0.0363,-0.0416,-0.0395,-0.0299,-0.016,-0.0011,0.0128,0.0267,0.0448,0.0635,0.0763,0.086,0.0945,0.0993,0.1014,0.102,0.102,0.102,0.1025,0.1068,0.1143,0.1207,0.1212,0.118,0,0,0,0,0,0,0,0,0,0,0,0,0,0,0,0,0,0,0,0,0,0,-0.0571,-0.063,-0.0614,-0.0539,-0.0406,-0.0219,-0.0021,0.0155,0.0315,0.0475,0.0625,0.0758,0.0854,0.0902,0.0913,0.0902,0.0902,0.0924,0.0956,0.103,0.1095,0.1121,0.1105,0.1084,0,0,0,0,0,0,0,0,0,0,0,0,0,0,0,0,0,0,0,0,0,0,-0.0822,-0.086,-0.0897,-0.0982,-0.0961,-0.0774,-0.0464,-0.0128,0.0149,0.0352,0.0523,0.0662,0.0747,0.078,0.0828,0.0886,0.0934,0.0998,0.1068,0.1089,0.1068,0.1014,0.0956,0.0956,0,0,0,0,0,0,0,0,0,0,0,0,0,0,0,0,0,0,0,0,0,-0.1111,-0.0993,-0.0902,-0.0742,-0.0662,-0.0593,-0.0374,-0.0176,0.0011,0.024,0.0438,0.0694,0.0817,0.0731,0.0705,0.0801,0.0897,0.0934,0.0956,0.0956,0.0918,0.0902,0.0897,0.0876,0.087,0,0,0,0,0,0,0,0,0,0,0,0,0,0,0,0,0,0,0,0,0,-0.1244,-0.1014,-0.086,-0.0641,-0.0438,-0.0384,-0.0256,0.0048,0.0326,0.0422,0.0352,0.0363,0.0464,0.047,0.0481,0.0593,0.0689,0.0763,0.0801,0.0774,0.0667,0.0646,0.0651,0.0678,0.0758,0,0,0,0,0,0,0,0,0,0,0,0,0,0,0,0,0,0,0,0,0,0,-0.1046,-0.0817,-0.0593,-0.0454,-0.0363,-0.0235,-0.0011,0.0246,0.0336,0.0224,0.0123,0.0053,-0.0053,0.0005,0.024,0.0432,0.0497,0.0497,0.0555,0.0625,0.0518,0.0374,0.0347,0.0502,0,0,0,0,0,0,0,0,0,0,0,0,0,0,0,0,0,0,0,0,0,0,0,-0.0801,-0.0518,0,0,0,0,0,0,0.0203,-0.0187,-0.0294,-0.0203,0.0016,0.0182,0.0262,0.032,0.0395,0,0,0,0,0,0,0,0,0,0,0,0,0,0,0,0,0,0,0,0,0,0,0,0,0,0,0,0,0,0,0,0,0,0,0,0,0,0,0,0,0,0.0016,0.0075,0,0,0,0,0,0,0,0,0,0,0,0,0,0,0,0,0,0,0,0,0,0,0,0,0,0,0,0,0,0,0,0,0,0,0,0,0,0,0,0,0,0,0,0,0,0,0,0,0,0,0,0,0,0,0,0,0,0,0,0,0,0,0,0,0,0,0,0,0,0,0,0,0,0,0,0,0,0,0,0,0,0,0,0,0,0,0,0,0,0,0,0,0,0,0,0,0,0,0,0,0,0,0,0,0,0,0,0,0,0,0,0,0,0,0,0,0,0,0,0,0,0,0,0,0,0,0,0,0,0,0,0,0,0,0,0,0,0,0,0,0,0,0,0,0,0,0,0,0,0,0,0,0,0,0,0,0,0,0,0,0,0,0,0,0,0,0,0,0,0,0,0,0,0,0,0,0,0,0,0,0,0,0,0,0,0,0,0,0,0,0,0,0,0,0,0,0,0,0,0,0,0,0,0,0,0,0,0,0,0,0,0,0,0,0,0,0,0,0,0,0,0,0,0,0,0,0,0,0,0,0,0,0,0,0,0,0,0,0,0,0,0,0,0,0,0,0,0,0,0,0,0,0,0,0,0,0,0,0,0,0,0,0,0,0,0,0,0,0,0,0,0,0,0,0,0,0,0,0,0,0,0,0,0,0,0,0,0,0,0,0,0,0,0,0,0,0,0,0,0,0,0,0,0,0,0,0,0,0,0,0,0,0,0,0,0,0,0,0,0,0,0,0,0,0,0,0,0,0,0,0,0,0,0,0,0,0,0,0,0,0,0,0,0,0,0,0,0,0,0,0,0,0,0,0,0,0,0,0,0,0,0,0,0,0,0,0,0,0,0,0,0,0,0,0,0,0,0,0,0,0,0,0,0,0,0,0,0,0,0,0,0,0,0,0,0,0,0,0,0,0,0,0,0,0,0,0,0,0,0,0,0,0,0,0,0,0,0,0,0,0,0,0,0,0,0,0,0,0,0,0,0,0,0,0,0,0,0,0,0,0,0,0,0,0,0,0,0,0,0,0,0,0,0,0,0,0,0,0,0,0,0,0,0,0,0,0,0,0,0,0,0,0,0,0,0,0,0,0,0,0,0,0,0,0,0,0,0,0,0,0,0,0,0,0,0,0,0,0,0,0,0,0,0,0,0,0,0,0,0,0,0,0,0,0,0,0,0,0,0,0,0,0,0,0,0,0,0,0,0,0,0,0,0,0,0,0,0,0,0,0,0,0,0,0,0,0,0,0,0,0,0,0,0,0,0,0,0,0,0,0]}],[{"header":{"parameterUnit":"kt","parameterCategory":2,"dx":1,"dy":1,"la1":29.46422004699707,"la2":30.564109802246094,"lo1":-89.4342041015625,"lo2":-87.934326171875,"nx":46,"ny":34,"refTime":"2022-11-01T00:00:00:Z","depth":"15","parameterNumber":3,"parameterNumberName":"V-component_of_CURRENTS"},"data":[0,0,0,0,0,0,0,0,0,0,0,0,0,0,0,0,0,0.1474,0.1548,0.1757,0.213,0.2269,0.1853,0.1127,0.0694,0.095,0.1938,0.2718,0.2985,0.3273,0.3737,0.307,0.2024,0.118,0.0763,0.1052,0.1223,0.1137,0.0934,0.0726,0.0523,0.0406,0.0336,0.0336,0.0384,0.0331,0,0,0,0,0,0,0,0,0,0,0,0,0,0,0,0,0,0,0.1794,0.158,0.2136,0.2141,0.2232,0.197,0.1281,0.071,0.0881,0.165,0.3006,0.3801,0.4319,0.4063,0.284,0.1564,0.0753,0.0726,0.0806,0.078,0.0667,0.0464,0.0251,0.0171,0.0182,0.0128,-0.0059,-0.0262,0,0,0,0,0,0,0,0,0,0,0,0,0,0,0,0,0,0,0,0.2077,0.1837,0.2013,0.2365,0.2248,0.2104,0.1463,0.0881,0.0753,0.1725,0.2947,0.378,0.3743,0.2728,0.1452,0.0742,0.0555,0.0774,0.0924,0.0966,0.0806,0.0384,0.0107,0.0123,0.0198,0.0144,0.0016,0,0,0,0,0,0,0,0,0,0,0,0,0,0,0,0,0,0,0,0,0.22,0.2018,0.2056,0.244,0.2355,0.2162,0.1484,0.078,0.0673,0.1746,0.2616,0.2872,0.2376,0.1506,0.1196,0.086,0.0961,0.1062,0.1169,0.102,0.0699,0.0454,0.0331,0.0304,0.0304,0.0294,0,0,0,0,0,0,0,0,0,0,0,0,0,0,0,0,0,0,0,0,0,0.2173,0.213,0.2274,0.244,0.2339,0.1826,0.1313,0.031,0.1212,0.204,0.2461,0.2483,0.2082,0.1735,0.1367,0.1212,0.1244,0.1287,0.095,0.0774,0.0908,0.0838,0.0609,0.039,0.0283,0,0,0,0,0,0,0,0,0,0,0,0,0,0,0,0,0,0,0,0,0,0.2061,0.2061,0.2178,0.2306,0.2296,0.2109,0.1821,0.0411,0.071,0.1655,0.2472,0.2691,0.2654,0.2248,0.1703,0.1399,0.1415,0.126,0.0844,0.0662,0.087,0.1046,0.0934,0.0614,0.0438,0,0,0,0,0,0,0,0,0,0,0,0,0,0,0,0,0,0,0,0,0,0.1906,0.1885,0.2007,0.212,0.2184,0.2104,0.2184,0.086,0.0342,0.1281,0.22,0.2499,0.268,0.2488,0.1789,0.1506,0.15,0.1159,0.0828,0.0747,0.0726,0.0812,0.0801,0.0614,0.0577,0,0,0,0,0,0,0,0,0,0,0,0,0,0,0,0,0,0,0,0,0,0,0.1757,0.1858,0.1975,0.2061,0.2061,0.2274,0.1474,0.0529,0.1046,0.1805,0.2109,0.2296,0.2467,0.1847,0.1564,0.141,0.11,0.087,0.0828,0.0763,0.071,0.0603,0.0475,0.0475,0,0,0,0,0,0,0,0,0,0,0,0,0,0,0,0,0,0,0,0,0,0,0.1709,0.1789,0.1906,0.1975,0.205,0.2253,0.1975,0.1084,0.0977,0.1543,0.1965,0.2152,0.2242,0.1778,0.1452,0.1239,0.1052,0.094,0.0902,0.0812,0.0715,0.0614,0.0513,0.0464,0,0,0,0,0,0,0,0,0,0,0,0,0,0,0,0,0,0,0,0,0,0,0.1698,0.1778,0.1879,0.1933,0.2024,0.221,0.2178,0.1692,0.1217,0.141,0.1794,0.2007,0.1874,0.1516,0.118,0.1068,0.0998,0.0966,0.0961,0.087,0.0737,0.0614,0.0523,0.0497,0,0,0,0,0,0,0,0,0,0,0,0,0,0,0,0,0,0,0,0,0,0,0.1671,0.1757,0.1847,0.1901,0.1965,0.2109,0.2194,0.1997,0.158,0.1431,0.1522,0.1628,0.1564,0.1265,0.1009,0.095,0.0929,0.0929,0.0956,0.0908,0.0763,0.0614,0.0518,0.0502,0,0,0,0,0,0,0,0,0,0,0,0,0,0,0,0,0,0,0,0,0,0,0.1612,0.1719,0.1799,0.1847,0.1901,0.197,0.2104,0.2093,0.1874,0.1735,0.1602,0.1468,0.1393,0.1143,0.0993,0.0918,0.0865,0.086,0.0892,0.0881,0.078,0.0619,0.0502,0.0497,0,0,0,0,0,0,0,0,0,0,0,0,0,0,0,0,0,0,0,0,0,0,0.1554,0.1671,0.173,0.1762,0.181,0.1853,0.1938,0.2029,0.2002,0.1943,0.1735,0.15,0.1308,0.1137,0.1009,0.0918,0.0849,0.0822,0.0833,0.0838,0.0763,0.0619,0.0497,0.0491,0,0,0,0,0,0,0,0,0,0,0,0,0,0,0,0,0,0,0,0,0,0,0.1516,0.1634,0.1639,0.1634,0.1676,0.1741,0.1794,0.1847,0.1911,0.1895,0.1746,0.1538,0.1351,0.1175,0.103,0.0929,0.0865,0.0828,0.0822,0.0817,0.0747,0.063,0.0513,0.0497,0,0,0,0,0,0,0,0,0,0,0,0,0,0,0,0,0,0,0,0,0,0,0.1516,0.1607,0.1538,0.1479,0.1506,0.1596,0.1666,0.1698,0.1709,0.1671,0.1596,0.1495,0.1361,0.1201,0.1041,0.0945,0.0886,0.0833,0.0806,0.0769,0.0699,0.0614,0.0539,0.0507,0,0,0,0,0,0,0,0,0,0,0,0,0,0,0,0,0,0,0,0,0,0,0.1554,0.1586,0.1452,0.1361,0.1367,0.1426,0.149,0.1522,0.1463,0.1426,0.1399,0.1377,0.1319,0.1175,0.1057,0.095,0.087,0.0796,0.0737,0.0667,0.0598,0.0539,0.0513,0.0497,0,0,0,0,0,0,0,0,0,0,0,0,0,0,0,0,0,0,0,0,0,0,0.1575,0.1532,0.1447,0.1431,0.141,0.1426,0.1388,0.1345,0.1244,0.1212,0.1191,0.1207,0.1287,0.1148,0.0977,0.0865,0.0747,0.0635,0.0566,0.0561,0.0529,0.047,0.047,0.047,0,0,0,0,0,0,0,0,0,0,0,0,0,0,0,0,0,0,0,0,0,0.1468,0.1452,0.1345,0.1329,0.1399,0.1239,0.1159,0.1009,0.0844,0.0753,0.0683,0.0726,0.0956,0.11,0.1121,0.0956,0.0753,0.0667,0.0641,0.0603,0.0529,0.0529,0.0459,0.0464,0.0459,0,0,0,0,0,0,0,0,0,0,0,0,0,0,0,0,0,0,0,0,0,0.1207,0.1169,0.1046,0.0865,0.1009,0.0934,0.0865,0.0769,0.0667,0.0662,0.0769,0.087,0.0972,0.0956,0.0892,0.0886,0.0641,0.0577,0.0582,0.0518,0.0422,0.0432,0.0331,0.0358,0.0422,0,0,0,0,0,0,0,0,0,0,0,0,0,0,0,0,0,0,0,0,0,0,0.0876,0.0763,0.0555,0.0555,0.0625,0.0635,0.055,0.0395,0.0374,0.0641,0.0849,0.0902,0.0849,0.0726,0.0603,0.04,0.0368,0.0395,0.0352,0.0331,0.0315,0.0288,0.0187,0.0246,0,0,0,0,0,0,0,0,0,0,0,0,0,0,0,0,0,0,0,0,0,0,0,0.0481,0.0331,0,0,0,0,0,0,0.0422,0.0801,0.0769,0.0699,0.0641,0.0448,0.0374,0.0224,0.0123,0,0,0,0,0,0,0,0,0,0,0,0,0,0,0,0,0,0,0,0,0,0,0,0,0,0,0,0,0,0,0,0,0,0,0,0,0,0,0,0,0,0.039,0.0438,0,0,0,0,0,0,0,0,0,0,0,0,0,0,0,0,0,0,0,0,0,0,0,0,0,0,0,0,0,0,0,0,0,0,0,0,0,0,0,0,0,0,0,0,0,0,0,0,0,0,0,0,0,0,0,0,0,0,0,0,0,0,0,0,0,0,0,0,0,0,0,0,0,0,0,0,0,0,0,0,0,0,0,0,0,0,0,0,0,0,0,0,0,0,0,0,0,0,0,0,0,0,0,0,0,0,0,0,0,0,0,0,0,0,0,0,0,0,0,0,0,0,0,0,0,0,0,0,0,0,0,0,0,0,0,0,0,0,0,0,0,0,0,0,0,0,0,0,0,0,0,0,0,0,0,0,0,0,0,0,0,0,0,0,0,0,0,0,0,0,0,0,0,0,0,0,0,0,0,0,0,0,0,0,0,0,0,0,0,0,0,0,0,0,0,0,0,0,0,0,0,0,0,0,0,0,0,0,0,0,0,0,0,0,0,0,0,0,0,0,0,0,0,0,0,0,0,0,0,0,0,0,0,0,0,0,0,0,0,0,0,0,0,0,0,0,0,0,0,0,0,0,0,0,0,0,0,0,0,0,0,0,0,0,0,0,0,0,0,0,0,0,0,0,0,0,0,0,0,0,0,0,0,0,0,0,0,0,0,0,0,0,0,0,0,0,0,0,0,0,0,0,0,0,0,0,0,0,0,0,0,0,0,0,0,0,0,0,0,0,0,0,0,0,0,0,0,0,0,0,0,0,0,0,0,0,0,0,0,0,0,0,0,0,0,0,0,0,0,0,0,0,0,0,0,0,0,0,0,0,0,0,0,0,0,0,0,0,0,0,0,0,0,0,0,0,0,0,0,0,0,0,0,0,0,0,0,0,0,0,0,0,0,0,0,0,0,0,0,0,0,0,0,0,0,0,0,0,0,0,0,0,0,0,0,0,0,0,0,0,0,0,0,0,0,0,0,0,0,0,0,0,0,0,0,0,0,0,0,0,0,0,0,0,0,0,0,0,0,0,0,0,0,0,0,0,0,0,0,0,0,0,0,0,0,0,0,0,0,0,0,0,0,0,0,0,0,0,0,0,0,0,0,0,0,0,0,0,0,0,0,0,0,0,0,0,0,0,0,0,0,0,0,0,0,0,0,0,0,0,0,0,0,0,0,0,0,0,0,0,0,0,0,0,0,0,0,0,0,0,0,0,0,0,0,0,0,0,0,0,0,0,0,0,0,0,0,0,0,0,0,0,0,0,0,0,0,0,0,0,0]}]],[[{"header":{"parameterUnit":"kt","parameterCategory":2,"dx":1,"dy":1,"la1":29.46422004699707,"la2":30.564109802246094,"lo1":-89.4342041015625,"lo2":-87.934326171875,"nx":46,"ny":34,"refTime":"2022-11-01T00:00:00:Z","depth":"20","parameterNumber":2,"parameterNumberName":"U-component_of_CURRENTS"},"data":[0,0,0,0,0,0,0,0,0,0,0,0,0,0,0,0,0,0,0,0.024,0.0149,-0.0085,-0.0117,-0.0598,-0.1719,-0.1949,-0.1046,0.0459,0.1474,0.1783,0.2056,0.1911,0.1287,0.0731,0.0336,0.0043,-0.0091,-0.0128,-0.0112,-0.0016,0.0064,0.0085,0.0069,0.0016,-0.0021,0.0096,0,0,0,0,0,0,0,0,0,0,0,0,0,0,0,0,0,0,0,0,0,0.047,0.095,0.0726,-0.0331,-0.1276,-0.1426,-0.0673,0.0699,0.181,0.2157,0.1901,0.1442,0.078,0.0182,-0.0117,-0.0123,0.0123,0.0342,0.0443,0.047,0.0454,0.0464,0.0555,0.0651,0.0619,0,0,0,0,0,0,0,0,0,0,0,0,0,0,0,0,0,0,0,0,0,0,0.0379,0.0865,0.0598,-0.0176,-0.1121,-0.126,-0.0459,0.0908,0.1986,0.236,0.221,0.1527,0.0635,0.0358,0.0502,0.0641,0.0673,0.0614,0.0518,0.023,-0.0059,-0.0096,-0.0096,-0.0187,0,0,0,0,0,0,0,0,0,0,0,0,0,0,0,0,0,0,0,0,0,0,0,0,0.0481,0.0422,0.0101,-0.0486,-0.0609,0.0069,0.1132,0.197,0.2301,0.1831,0.1105,0.0865,0.0758,0.0534,0.0224,0.0053,0.0027,-0.0214,-0.0657,-0.0966,-0.1105,-0.1132,0,0,0,0,0,0,0,0,0,0,0,0,0,0,0,0,0,0,0,0,0,0,0,0,0.0326,0.0502,0.0507,0.008,-0.0481,-0.0219,0.0395,0.1078,0.1468,0.1377,0.1116,0.0988,0.0753,0.0475,0.023,0.0048,-0.0069,-0.0166,-0.0192,-0.0214,-0.016,-0.0059,0,0,0,0,0,0,0,0,0,0,0,0,0,0,0,0,0,0,0,0,0,0,0,0,0,0.055,0.0529,0.0032,-0.0507,-0.0246,-0.0053,0.031,0.0673,0.0774,0.0838,0.0908,0.0806,0.0635,0.0502,0.047,0.0432,0.0336,0.0256,0.0149,0.0198,0.0406,0,0,0,0,0,0,0,0,0,0,0,0,0,0,0,0,0,0,0,0,0,0,0,0,0,0.0651,0.0555,0.0352,-0.0411,-0.04,-0.0128,-0.0187,0.0,0.0198,0.0427,0.079,0.1014,0.0966,0.0849,0.0849,0.0785,0.0721,0.0683,0.0619,0.0529,0.0379,0,0,0,0,0,0,0,0,0,0,0,0,0,0,0,0,0,0,0,0,0,0,0,0,0,0.0625,0.0593,0.0539,-0.0139,-0.0742,-0.0475,-0.0464,-0.0507,-0.0411,-0.0096,0.0667,0.1212,0.1217,0.1105,0.1041,0.0961,0.0913,0.0892,0.0886,0.0844,0.0774,0,0,0,0,0,0,0,0,0,0,0,0,0,0,0,0,0,0,0,0,0,0,0,0,0,0.0545,0.0513,0.0571,0.0208,-0.0763,-0.1078,-0.0796,-0.071,-0.0593,-0.0032,0.071,0.1148,0.1276,0.1185,0.1046,0.1009,0.0988,0.0982,0.0998,0.0998,0.0961,0,0,0,0,0,0,0,0,0,0,0,0,0,0,0,0,0,0,0,0,0,0,0,0,0,0.0411,0.0368,0.0443,0.0464,-0.0128,-0.094,-0.0977,-0.0678,-0.0395,0.0043,0.0614,0.1004,0.1041,0.0972,0.0998,0.1036,0.1052,0.1062,0.1084,0.11,0.1095,0,0,0,0,0,0,0,0,0,0,0,0,0,0,0,0,0,0,0,0,0,0,0,0,0.0288,0.0246,0.024,0.0267,0.0379,0.0358,-0.0011,-0.0363,-0.0347,0.0005,0.0427,0.0753,0.0844,0.0833,0.0897,0.0982,0.1062,0.1116,0.1143,0.1164,0.1175,0.1175,0,0,0,0,0,0,0,0,0,0,0,0,0,0,0,0,0,0,0,0,0,0,0,0,0.0107,0.0096,0.0139,0.0192,0.0278,0.0379,0.0422,0.0406,0.0448,0.0646,0.0822,0.0844,0.0833,0.087,0.0924,0.0993,0.1073,0.1137,0.118,0.1207,0.1217,0.1217,0,0,0,0,0,0,0,0,0,0,0,0,0,0,0,0,0,0,0,0,0,0,0,0,-0.0059,-0.0032,0.0048,0.0128,0.023,0.0342,0.0443,0.0529,0.0635,0.0737,0.0801,0.0849,0.0886,0.0929,0.0966,0.1014,0.1068,0.1116,0.1164,0.1207,0.1228,0.1228,0,0,0,0,0,0,0,0,0,0,0,0,0,0,0,0,0,0,0,0,0,0,0,0,-0.0219,-0.016,-0.0048,0.0064,0.0166,0.0278,0.04,0.0523,0.0603,0.0651,0.0731,0.0828,0.0886,0.0924,0.094,0.095,0.0982,0.1046,0.1132,0.1191,0.1207,0.1201,0,0,0,0,0,0,0,0,0,0,0,0,0,0,0,0,0,0,0,0,0,0,0,0,-0.0395,-0.0326,-0.0203,-0.0059,0.0085,0.0208,0.0304,0.0374,0.0448,0.0534,0.0603,0.0699,0.078,0.0812,0.0817,0.0844,0.0924,0.1041,0.1137,0.1164,0.1153,0.1148,0,0,0,0,0,0,0,0,0,0,0,0,0,0,0,0,0,0,0,0,0,0,0,0,-0.0598,-0.0577,-0.0459,-0.0256,-0.0053,0.0112,0.0251,0.0384,0.0481,0.0529,0.0566,0.0603,0.0657,0.0731,0.0812,0.0876,0.095,0.1014,0.103,0.1025,0.103,0.1041,0,0,0,0,0,0,0,0,0,0,0,0,0,0,0,0,0,0,0,0,0,0,0,0,-0.0737,-0.0683,-0.0635,-0.0486,-0.0315,-0.0166,-0.0016,0.0123,0.0246,0.0368,0.0497,0.0598,0.0678,0.0769,0.0833,0.087,0.0908,0.0924,0.0913,0.0892,0.0881,0.0892,0,0,0,0,0,0,0,0,0,0,0,0,0,0,0,0,0,0,0,0,0,0,0,0,0,-0.0555,-0.0507,-0.0368,-0.0139,0.0091,0.0235,0.0278,0.0256,0.0283,0.0406,0.0539,0.0662,0.0758,0.0812,0.0844,0.0854,0,0,0,0,0,0,0,0,0,0,0,0,0,0,0,0,0,0,0,0,0,0,0,0,0,0,0,0,0,0,0,0,0,0,0,0,0,0,0.023,0.0272,0.0384,0,0,0,0,0,0,0,0,0,0,0,0,0,0,0,0,0,0,0,0,0,0,0,0,0,0,0,0,0,0,0,0,0,0,0,0,0,0,0,0,0,0,0,0,0,0,0,0,0,0,0,0,0,0,0,0,0,0,0,0,0,0,0,0,0,0,0,0,0,0,0,0,0,0,0,0,0,0,0,0,0,0,0,0,0,0,0,0,0,0,0,0,0,0,0,0,0,0,0,0,0,0,0,0,0,0,0,0,0,0,0,0,0,0,0,0,0,0,0,0,0,0,0,0,0,0,0,0,0,0,0,0,0,0,0,0,0,0,0,0,0,0,0,0,0,0,0,0,0,0,0,0,0,0,0,0,0,0,0,0,0,0,0,0,0,0,0,0,0,0,0,0,0,0,0,0,0,0,0,0,0,0,0,0,0,0,0,0,0,0,0,0,0,0,0,0,0,0,0,0,0,0,0,0,0,0,0,0,0,0,0,0,0,0,0,0,0,0,0,0,0,0,0,0,0,0,0,0,0,0,0,0,0,0,0,0,0,0,0,0,0,0,0,0,0,0,0,0,0,0,0,0,0,0,0,0,0,0,0,0,0,0,0,0,0,0,0,0,0,0,0,0,0,0,0,0,0,0,0,0,0,0,0,0,0,0,0,0,0,0,0,0,0,0,0,0,0,0,0,0,0,0,0,0,0,0,0,0,0,0,0,0,0,0,0,0,0,0,0,0,0,0,0,0,0,0,0,0,0,0,0,0,0,0,0,0,0,0,0,0,0,0,0,0,0,0,0,0,0,0,0,0,0,0,0,0,0,0,0,0,0,0,0,0,0,0,0,0,0,0,0,0,0,0,0,0,0,0,0,0,0,0,0,0,0,0,0,0,0,0,0,0,0,0,0,0,0,0,0,0,0,0,0,0,0,0,0,0,0,0,0,0,0,0,0,0,0,0,0,0,0,0,0,0,0,0,0,0,0,0,0,0,0,0,0,0,0,0,0,0,0,0,0,0,0,0,0,0,0,0,0,0,0,0,0,0,0,0,0,0,0,0,0,0,0,0,0,0,0,0,0,0,0,0,0,0,0,0,0,0,0,0,0,0,0,0,0,0,0,0,0,0,0,0,0,0,0,0,0,0,0,0,0,0,0,0,0,0,0,0,0,0,0,0,0,0,0,0,0,0,0,0,0,0,0,0,0,0,0,0,0,0,0,0,0,0,0,0,0,0,0,0,0,0,0,0,0,0,0,0,0,0,0,0,0,0,0,0,0,0,0,0,0,0,0,0,0,0,0,0,0,0,0,0,0,0,0,0,0,0,0,0,0,0,0,0,0,0,0,0,0,0,0,0,0,0,0,0,0,0,0,0,0,0,0,0,0,0,0,0,0,0,0,0,0,0,0,0,0,0,0,0,0,0,0,0,0,0,0,0,0,0,0,0,0,0,0,0,0,0,0,0,0,0,0,0,0,0,0,0,0,0,0,0,0,0,0,0,0,0,0,0,0,0,0,0,0,0,0,0,0,0,0,0,0,0,0,0,0,0,0,0,0,0,0,0,0,0,0,0,0,0,0,0,0,0,0,0,0,0]}],[{"header":{"parameterUnit":"kt","parameterCategory":2,"dx":1,"dy":1,"la1":29.46422004699707,"la2":30.564109802246094,"lo1":-89.4342041015625,"lo2":-87.934326171875,"nx":46,"ny":34,"refTime":"2022-11-01T00:00:00:Z","depth":"20","parameterNumber":3,"parameterNumberName":"V-component_of_CURRENTS"},"data":[0,0,0,0,0,0,0,0,0,0,0,0,0,0,0,0,0,0,0,0.04,0.063,0.0988,0.1062,0.0769,0.0331,0.0464,0.166,0.2969,0.3652,0.3588,0.3241,0.2333,0.15,0.1111,0.1372,0.118,0.1271,0.1303,0.1132,0.0918,0.079,0.0662,0.0555,0.0443,0.047,0.0422,0,0,0,0,0,0,0,0,0,0,0,0,0,0,0,0,0,0,0,0,0,0.0731,0.1062,0.1324,0.1292,0.0571,0.0534,0.1564,0.2942,0.3887,0.4159,0.3422,0.2173,0.0726,0.165,0.1121,0.0844,0.0817,0.0699,0.0481,0.0347,0.031,0.0379,0.0315,0.0128,-0.0085,0,0,0,0,0,0,0,0,0,0,0,0,0,0,0,0,0,0,0,0,0,0,0.1169,0.1607,0.181,0.1442,0.0726,0.0523,0.1351,0.2782,0.3599,0.3097,0.1858,0.0214,0.1415,0.1447,0.0902,0.0918,0.0886,0.0641,0.0123,0.0027,0.0187,0.0267,0.0251,0.0149,0,0,0,0,0,0,0,0,0,0,0,0,0,0,0,0,0,0,0,0,0,0,0,0,0.1933,0.2178,0.1377,0.0721,0.0555,0.141,0.2648,0.2509,0.1559,0.0785,0.1725,0.2157,0.1217,0.1078,0.1175,0.1014,0.0657,0.0475,0.0374,0.0374,0.0443,0.0459,0,0,0,0,0,0,0,0,0,0,0,0,0,0,0,0,0,0,0,0,0,0,0,0,0.1826,0.212,0.1847,0.1052,0.0283,0.0582,0.2141,0.2691,0.22,0.1911,0.236,0.2408,0.1447,0.1271,0.1303,0.0956,0.0774,0.0908,0.0838,0.0641,0.0443,0.0358,0,0,0,0,0,0,0,0,0,0,0,0,0,0,0,0,0,0,0,0,0,0,0,0,0,0.1885,0.1831,0.1137,0.0139,0.0016,0.1458,0.252,0.2472,0.2371,0.2659,0.2477,0.1628,0.1442,0.1281,0.086,0.0673,0.0865,0.0988,0.0886,0.0529,0.0358,0,0,0,0,0,0,0,0,0,0,0,0,0,0,0,0,0,0,0,0,0,0,0,0,0,0.1831,0.166,0.1324,0.0331,0.0005,0.086,0.2034,0.2274,0.2424,0.2541,0.2435,0.1698,0.1522,0.1175,0.0838,0.0753,0.0731,0.0796,0.0769,0.0534,0.047,0,0,0,0,0,0,0,0,0,0,0,0,0,0,0,0,0,0,0,0,0,0,0,0,0,0.1741,0.1687,0.142,0.0566,0.0283,0.0796,0.1666,0.197,0.2205,0.2168,0.212,0.1586,0.141,0.1095,0.087,0.0828,0.0774,0.0715,0.0609,0.047,0.0459,0,0,0,0,0,0,0,0,0,0,0,0,0,0,0,0,0,0,0,0,0,0,0,0,0,0.1709,0.1815,0.1538,0.0908,0.0395,0.0715,0.1447,0.1725,0.1933,0.1869,0.1666,0.134,0.1223,0.1041,0.0924,0.0881,0.0806,0.0721,0.0619,0.0518,0.047,0,0,0,0,0,0,0,0,0,0,0,0,0,0,0,0,0,0,0,0,0,0,0,0,0,0.1719,0.189,0.1751,0.1313,0.0689,0.0566,0.1014,0.1399,0.1692,0.1735,0.1356,0.1105,0.1057,0.0982,0.0945,0.0913,0.0833,0.0721,0.0609,0.0523,0.0497,0,0,0,0,0,0,0,0,0,0,0,0,0,0,0,0,0,0,0,0,0,0,0,0,0.1655,0.1709,0.1879,0.1922,0.1682,0.1212,0.0838,0.094,0.1265,0.1426,0.1522,0.1212,0.1004,0.0945,0.0918,0.0897,0.0892,0.0822,0.0715,0.0593,0.0507,0.0491,0,0,0,0,0,0,0,0,0,0,0,0,0,0,0,0,0,0,0,0,0,0,0,0,0.1618,0.1666,0.1821,0.1901,0.1879,0.1676,0.1372,0.1319,0.1393,0.1356,0.134,0.1132,0.0988,0.0908,0.0854,0.0828,0.0822,0.0763,0.0683,0.0571,0.0486,0.0475,0,0,0,0,0,0,0,0,0,0,0,0,0,0,0,0,0,0,0,0,0,0,0,0,0.1559,0.1596,0.173,0.1805,0.1869,0.1853,0.1698,0.158,0.1468,0.1393,0.1271,0.1116,0.0982,0.0886,0.0806,0.0763,0.0742,0.0694,0.063,0.0534,0.0464,0.0454,0,0,0,0,0,0,0,0,0,0,0,0,0,0,0,0,0,0,0,0,0,0,0,0,0.149,0.1495,0.1602,0.1692,0.1751,0.1767,0.1709,0.1591,0.142,0.1308,0.1201,0.1095,0.0961,0.0844,0.0742,0.0662,0.0614,0.0571,0.0534,0.0448,0.0416,0.0432,0,0,0,0,0,0,0,0,0,0,0,0,0,0,0,0,0,0,0,0,0,0,0,0,0.141,0.1361,0.1436,0.1554,0.1623,0.1639,0.1559,0.1436,0.1281,0.1164,0.1084,0.1009,0.0897,0.0758,0.0614,0.0518,0.0448,0.0416,0.0384,0.0315,0.0331,0.04,0,0,0,0,0,0,0,0,0,0,0,0,0,0,0,0,0,0,0,0,0,0,0,0,0.1308,0.1185,0.1249,0.1393,0.1436,0.1452,0.1367,0.1297,0.1191,0.1095,0.102,0.0886,0.0758,0.0635,0.0523,0.0464,0.0416,0.0384,0.0352,0.032,0.032,0.0379,0,0,0,0,0,0,0,0,0,0,0,0,0,0,0,0,0,0,0,0,0,0,0,0,0.1121,0.0945,0.0993,0.1116,0.1132,0.1116,0.1073,0.1068,0.1052,0.1004,0.0945,0.0865,0.0721,0.0609,0.0545,0.0502,0.0459,0.0438,0.0448,0.0406,0.0384,0.04,0,0,0,0,0,0,0,0,0,0,0,0,0,0,0,0,0,0,0,0,0,0,0,0,0,0.0753,0.0801,0.0854,0.0817,0.0774,0.0817,0.0913,0.0972,0.0945,0.0892,0.087,0.0812,0.0651,0.0593,0.0582,0.0545,0,0,0,0,0,0,0,0,0,0,0,0,0,0,0,0,0,0,0,0,0,0,0,0,0,0,0,0,0,0,0,0,0,0,0,0,0,0,0.0908,0.0849,0.0785,0,0,0,0,0,0,0,0,0,0,0,0,0,0,0,0,0,0,0,0,0,0,0,0,0,0,0,0,0,0,0,0,0,0,0,0,0,0,0,0,0,0,0,0,0,0,0,0,0,0,0,0,0,0,0,0,0,0,0,0,0,0,0,0,0,0,0,0,0,0,0,0,0,0,0,0,0,0,0,0,0,0,0,0,0,0,0,0,0,0,0,0,0,0,0,0,0,0,0,0,0,0,0,0,0,0,0,0,0,0,0,0,0,0,0,0,0,0,0,0,0,0,0,0,0,0,0,0,0,0,0,0,0,0,0,0,0,0,0,0,0,0,0,0,0,0,0,0,0,0,0,0,0,0,0,0,0,0,0,0,0,0,0,0,0,0,0,0,0,0,0,0,0,0,0,0,0,0,0,0,0,0,0,0,0,0,0,0,0,0,0,0,0,0,0,0,0,0,0,0,0,0,0,0,0,0,0,0,0,0,0,0,0,0,0,0,0,0,0,0,0,0,0,0,0,0,0,0,0,0,0,0,0,0,0,0,0,0,0,0,0,0,0,0,0,0,0,0,0,0,0,0,0,0,0,0,0,0,0,0,0,0,0,0,0,0,0,0,0,0,0,0,0,0,0,0,0,0,0,0,0,0,0,0,0,0,0,0,0,0,0,0,0,0,0,0,0,0,0,0,0,0,0,0,0,0,0,0,0,0,0,0,0,0,0,0,0,0,0,0,0,0,0,0,0,0,0,0,0,0,0,0,0,0,0,0,0,0,0,0,0,0,0,0,0,0,0,0,0,0,0,0,0,0,0,0,0,0,0,0,0,0,0,0,0,0,0,0,0,0,0,0,0,0,0,0,0,0,0,0,0,0,0,0,0,0,0,0,0,0,0,0,0,0,0,0,0,0,0,0,0,0,0,0,0,0,0,0,0,0,0,0,0,0,0,0,0,0,0,0,0,0,0,0,0,0,0,0,0,0,0,0,0,0,0,0,0,0,0,0,0,0,0,0,0,0,0,0,0,0,0,0,0,0,0,0,0,0,0,0,0,0,0,0,0,0,0,0,0,0,0,0,0,0,0,0,0,0,0,0,0,0,0,0,0,0,0,0,0,0,0,0,0,0,0,0,0,0,0,0,0,0,0,0,0,0,0,0,0,0,0,0,0,0,0,0,0,0,0,0,0,0,0,0,0,0,0,0,0,0,0,0,0,0,0,0,0,0,0,0,0,0,0,0,0,0,0,0,0,0,0,0,0,0,0,0,0,0,0,0,0,0,0,0,0,0,0,0,0,0,0,0,0,0,0,0,0,0,0,0,0,0,0,0,0,0,0,0,0,0,0,0,0,0,0,0,0,0,0,0,0,0,0,0,0,0,0,0,0,0,0,0,0,0,0,0,0,0,0,0,0,0,0,0,0,0,0,0,0,0,0,0,0,0,0,0,0,0,0,0,0,0,0,0,0,0,0,0,0,0,0,0,0,0,0,0,0,0,0,0,0,0,0,0,0,0,0,0,0,0,0,0,0,0,0,0,0,0,0,0,0,0,0,0,0,0,0,0,0,0,0,0,0,0,0,0,0,0,0,0]}]],[[{"header":{"parameterUnit":"kt","parameterCategory":2,"dx":1,"dy":1,"la1":29.46422004699707,"la2":30.564109802246094,"lo1":-89.4342041015625,"lo2":-87.934326171875,"nx":46,"ny":34,"refTime":"2022-11-01T00:00:00:Z","depth":"25","parameterNumber":2,"parameterNumberName":"U-component_of_CURRENTS"},"data":[0,0,0,0,0,0,0,0,0,0,0,0,0,0,0,0,0,0,0,0,0,0.0406,-0.0352,-0.0609,-0.1618,-0.2242,-0.1479,-0.0096,0.1078,0.158,0.1623,0.0966,0.0064,-0.0064,0.0208,0.0176,0.0091,0.0246,0.0609,0.0902,0.0966,0.0886,0.0657,0.0267,0.0021,0.0048,0,0,0,0,0,0,0,0,0,0,0,0,0,0,0,0,0,0,0,0,0,0,0,0.0961,0.0448,-0.0812,-0.1618,-0.1212,0.0171,0.1447,0.2205,0.2093,0.1228,0.0406,0.0176,0.0214,0.0187,0.0144,0.0251,0.04,0.0571,0.0796,0.103,0.1436,0.1719,0.1639,0,0,0,0,0,0,0,0,0,0,0,0,0,0,0,0,0,0,0,0,0,0,0,0,0.0822,0.0406,-0.0571,-0.1046,-0.0545,0.0582,0.1644,0.2173,0.181,0.095,0.0486,0.0432,0.0598,0.0678,0.0464,0.0182,0.0112,0.0315,0.0384,0.0422,0.0502,0.0395,0,0,0,0,0,0,0,0,0,0,0,0,0,0,0,0,0,0,0,0,0,0,0,0,0,0.0497,0.0283,-0.0299,-0.0513,-0.0048,0.0715,0.1116,0.11,0.0828,0.0513,0.0603,0.0726,0.0422,0.0235,0.0091,-0.0107,-0.0059,-0.0187,-0.0561,-0.0694,-0.0582,0,0,0,0,0,0,0,0,0,0,0,0,0,0,0,0,0,0,0,0,0,0,0,0,0,0,0.0363,0.0027,-0.0486,-0.0379,0.0043,0.032,0.0427,0.0342,0.0187,0.039,0.063,0.047,0.0235,0.0085,0.0064,0.0016,-0.0048,0.0064,0.0235,0.0529,0,0,0,0,0,0,0,0,0,0,0,0,0,0,0,0,0,0,0,0,0,0,0,0,0,0,0.0304,0.0053,-0.0726,-0.0545,-0.0155,-0.0032,-0.0027,-0.0128,-0.023,-0.0016,0.0497,0.0598,0.0502,0.0481,0.0432,0.0358,0.0326,0.0139,-0.0198,-0.0358,0,0,0,0,0,0,0,0,0,0,0,0,0,0,0,0,0,0,0,0,0,0,0,0,0,0,0,0.0192,-0.0539,-0.0828,-0.0368,-0.0336,-0.039,-0.0427,-0.0507,-0.0358,0.0283,0.0715,0.0849,0.0844,0.078,0.0715,0.071,0.0694,0.0566,0.0272,0,0,0,0,0,0,0,0,0,0,0,0,0,0,0,0,0,0,0,0,0,0,0,0,0,0,0,0.0326,-0.0192,-0.0913,-0.0924,-0.0769,-0.0683,-0.0774,-0.0929,-0.0566,0.023,0.0731,0.0998,0.1014,0.095,0.0908,0.0886,0.0881,0.0844,0.0763,0,0,0,0,0,0,0,0,0,0,0,0,0,0,0,0,0,0,0,0,0,0,0,0,0,0,0,0.0374,0.0133,-0.0689,-0.1271,-0.1239,-0.1095,-0.1137,-0.0998,-0.0443,0.0278,0.0838,0.1014,0.102,0.0998,0.0982,0.0977,0.0988,0.0988,0.095,0,0,0,0,0,0,0,0,0,0,0,0,0,0,0,0,0,0,0,0,0,0,0,0,0,0,0.0299,0.0294,0.0246,-0.0128,-0.0881,-0.1372,-0.1217,-0.095,-0.063,-0.0069,0.0555,0.0849,0.0924,0.0966,0.1004,0.102,0.1036,0.1062,0.1078,0.1068,0,0,0,0,0,0,0,0,0,0,0,0,0,0,0,0,0,0,0,0,0,0,0,0,0,0,0.0192,0.0182,0.0224,0.0144,-0.0182,-0.0523,-0.0758,-0.055,0.0059,0.0571,0.0758,0.0812,0.0876,0.0945,0.0988,0.1009,0.1041,0.1095,0.1127,0.1132,0,0,0,0,0,0,0,0,0,0,0,0,0,0,0,0,0,0,0,0,0,0,0,0,0,0,0,0.0123,0.0182,0.0246,0.024,0.0166,0.0182,0.0379,0.0635,0.0758,0.0812,0.0849,0.0897,0.094,0.095,0.0934,0.0961,0.1046,0.1116,0.1143,0,0,0,0,0,0,0,0,0,0,0,0,0,0,0,0,0,0,0,0,0,0,0,0,0,0,0,0.0069,0.0155,0.024,0.0272,0.0336,0.0497,0.0657,0.0747,0.079,0.0812,0.0828,0.0849,0.086,0.0849,0.086,0.0929,0.1009,0.1078,0.1111,0,0,0,0,0,0,0,0,0,0,0,0,0,0,0,0,0,0,0,0,0,0,0,0,0,0,0,0.0005,0.0091,0.0171,0.0214,0.0251,0.0304,0.0368,0.0438,0.0529,0.0598,0.0635,0.0651,0.0667,0.071,0.0801,0.0908,0.0977,0.102,0.1041,0,0,0,0,0,0,0,0,0,0,0,0,0,0,0,0,0,0,0,0,0,0,0,0,0,0,0,-0.0101,0.0016,0.0091,0.0117,0.0144,0.0214,0.0283,0.0342,0.0411,0.0481,0.0545,0.0609,0.0667,0.0753,0.086,0.0945,0.0982,0.0988,0.0993,0,0,0,0,0,0,0,0,0,0,0,0,0,0,0,0,0,0,0,0,0,0,0,0,0,0,0,-0.0347,-0.0128,0.0027,0.0133,0.0246,0.0326,0.0347,0.0358,0.04,0.0486,0.0593,0.0699,0.0785,0.0876,0,0,0,0,0,0,0,0,0,0,0,0,0,0,0,0,0,0,0,0,0,0,0,0,0,0,0,0,0,0,0,0,0,0,-0.0171,-0.0032,0.0085,0.0171,0.0278,0.04,0.0518,0,0,0,0,0,0,0,0,0,0,0,0,0,0,0,0,0,0,0,0,0,0,0,0,0,0,0,0,0,0,0,0,0,0,0,0,0,0,0,0,0,0,0,0,0,0,0,0,0,0,0,0,0,0,0,0,0,0,0,0,0,0,0,0,0,0,0,0,0,0,0,0,0,0,0,0,0,0,0,0,0,0,0,0,0,0,0,0,0,0,0,0,0,0,0,0,0,0,0,0,0,0,0,0,0,0,0,0,0,0,0,0,0,0,0,0,0,0,0,0,0,0,0,0,0,0,0,0,0,0,0,0,0,0,0,0,0,0,0,0,0,0,0,0,0,0,0,0,0,0,0,0,0,0,0,0,0,0,0,0,0,0,0,0,0,0,0,0,0,0,0,0,0,0,0,0,0,0,0,0,0,0,0,0,0,0,0,0,0,0,0,0,0,0,0,0,0,0,0,0,0,0,0,0,0,0,0,0,0,0,0,0,0,0,0,0,0,0,0,0,0,0,0,0,0,0,0,0,0,0,0,0,0,0,0,0,0,0,0,0,0,0,0,0,0,0,0,0,0,0,0,0,0,0,0,0,0,0,0,0,0,0,0,0,0,0,0,0,0,0,0,0,0,0,0,0,0,0,0,0,0,0,0,0,0,0,0,0,0,0,0,0,0,0,0,0,0,0,0,0,0,0,0,0,0,0,0,0,0,0,0,0,0,0,0,0,0,0,0,0,0,0,0,0,0,0,0,0,0,0,0,0,0,0,0,0,0,0,0,0,0,0,0,0,0,0,0,0,0,0,0,0,0,0,0,0,0,0,0,0,0,0,0,0,0,0,0,0,0,0,0,0,0,0,0,0,0,0,0,0,0,0,0,0,0,0,0,0,0,0,0,0,0,0,0,0,0,0,0,0,0,0,0,0,0,0,0,0,0,0,0,0,0,0,0,0,0,0,0,0,0,0,0,0,0,0,0,0,0,0,0,0,0,0,0,0,0,0,0,0,0,0,0,0,0,0,0,0,0,0,0,0,0,0,0,0,0,0,0,0,0,0,0,0,0,0,0,0,0,0,0,0,0,0,0,0,0,0,0,0,0,0,0,0,0,0,0,0,0,0,0,0,0,0,0,0,0,0,0,0,0,0,0,0,0,0,0,0,0,0,0,0,0,0,0,0,0,0,0,0,0,0,0,0,0,0,0,0,0,0,0,0,0,0,0,0,0,0,0,0,0,0,0,0,0,0,0,0,0,0,0,0,0,0,0,0,0,0,0,0,0,0,0,0,0,0,0,0,0,0,0,0,0,0,0,0,0,0,0,0,0,0,0,0,0,0,0,0,0,0,0,0,0,0,0,0,0,0,0,0,0,0,0,0,0,0,0,0,0,0,0,0,0,0,0,0,0,0,0,0,0,0,0,0,0,0,0,0,0,0,0,0,0,0,0,0,0,0,0,0,0,0,0,0,0,0,0,0,0,0,0,0,0,0,0,0,0,0,0,0,0,0,0,0,0,0,0,0,0,0,0,0,0,0,0,0,0,0,0,0,0,0,0,0,0,0,0,0,0,0,0,0,0,0,0,0,0,0,0,0,0,0,0,0,0,0,0,0,0,0,0,0,0,0,0,0,0,0,0,0,0,0,0,0,0,0,0,0,0,0,0,0,0,0,0,0,0,0,0,0,0,0,0,0,0,0,0,0,0,0,0,0,0,0,0,0,0,0,0,0,0,0,0,0,0,0,0,0,0,0,0,0,0,0,0,0,0,0,0,0,0,0,0,0,0,0,0,0,0,0,0,0]}],[{"header":{"parameterUnit":"kt","parameterCategory":2,"dx":1,"dy":1,"la1":29.46422004699707,"la2":30.564109802246094,"lo1":-89.4342041015625,"lo2":-87.934326171875,"nx":46,"ny":34,"refTime":"2022-11-01T00:00:00:Z","depth":"25","parameterNumber":3,"parameterNumberName":"V-component_of_CURRENTS"},"data":[0,0,0,0,0,0,0,0,0,0,0,0,0,0,0,0,0,0,0,0,0,0.0358,-0.0005,0.0064,0.032,0.0459,0.1436,0.2803,0.3721,0.3604,0.2851,0.1853,0.078,0.1014,0.1639,0.1404,0.1196,0.1201,0.1105,0.0801,0.071,0.0902,0.1036,0.0892,0.0758,0.0625,0,0,0,0,0,0,0,0,0,0,0,0,0,0,0,0,0,0,0,0,0,0,0,0.0651,0.0801,0.0464,0.0432,0.1143,0.236,0.3364,0.3166,0.2146,0.0529,0.0603,0.1783,0.1586,0.0854,0.0577,0.0497,0.0347,0.0251,0.0336,0.0625,0.0678,0.0491,0.0235,0,0,0,0,0,0,0,0,0,0,0,0,0,0,0,0,0,0,0,0,0,0,0,0,0.095,0.1404,0.0892,0.0555,0.0881,0.1991,0.2654,0.2093,0.0924,0.0977,0.2002,0.1965,0.1041,0.0774,0.063,0.039,0.0075,-0.0048,0.016,0.0379,0.0438,0.0411,0,0,0,0,0,0,0,0,0,0,0,0,0,0,0,0,0,0,0,0,0,0,0,0,0,0.1458,0.1522,0.0966,0.0806,0.1175,0.2333,0.2616,0.205,0.2066,0.2531,0.236,0.1532,0.1084,0.0972,0.0614,0.0304,0.0262,0.0358,0.0571,0.0619,0.0683,0,0,0,0,0,0,0,0,0,0,0,0,0,0,0,0,0,0,0,0,0,0,0,0,0,0,0.1522,0.0763,0.0587,0.0699,0.1879,0.2798,0.2691,0.2611,0.2696,0.2552,0.1858,0.1452,0.1335,0.0913,0.0587,0.0689,0.0502,0.039,0.0192,0.0304,0,0,0,0,0,0,0,0,0,0,0,0,0,0,0,0,0,0,0,0,0,0,0,0,0,0,0.142,0.0689,0.0299,0.0187,0.1095,0.2221,0.2493,0.2557,0.2675,0.2483,0.1842,0.1607,0.1324,0.0865,0.0673,0.0731,0.0529,0.0251,-0.0166,-0.0208,0,0,0,0,0,0,0,0,0,0,0,0,0,0,0,0,0,0,0,0,0,0,0,0,0,0,0,0.0763,0.0219,0.0187,0.0806,0.1767,0.2098,0.236,0.2477,0.2152,0.1463,0.1313,0.118,0.0838,0.0758,0.0737,0.0694,0.0464,0.0085,-0.0021,0,0,0,0,0,0,0,0,0,0,0,0,0,0,0,0,0,0,0,0,0,0,0,0,0,0,0,0.0929,0.024,0.0294,0.0854,0.1639,0.1842,0.2077,0.1986,0.1554,0.1073,0.0956,0.1009,0.086,0.0822,0.0774,0.0721,0.0598,0.0454,0.0352,0,0,0,0,0,0,0,0,0,0,0,0,0,0,0,0,0,0,0,0,0,0,0,0,0,0,0,0.1132,0.047,0.0187,0.0475,0.1303,0.1586,0.1639,0.1399,0.1121,0.0854,0.087,0.094,0.0902,0.0844,0.0785,0.0721,0.0619,0.0518,0.0464,0,0,0,0,0,0,0,0,0,0,0,0,0,0,0,0,0,0,0,0,0,0,0,0,0,0,0.1719,0.142,0.0924,0.031,0.0112,0.0518,0.1159,0.1244,0.1121,0.1036,0.087,0.0918,0.095,0.0902,0.0801,0.0726,0.0689,0.0598,0.0513,0.0486,0,0,0,0,0,0,0,0,0,0,0,0,0,0,0,0,0,0,0,0,0,0,0,0,0,0,0.1714,0.166,0.1367,0.0881,0.0454,0.0459,0.0886,0.1159,0.1116,0.1046,0.0972,0.0934,0.0902,0.0844,0.071,0.0593,0.0582,0.0539,0.0481,0.0464,0,0,0,0,0,0,0,0,0,0,0,0,0,0,0,0,0,0,0,0,0,0,0,0,0,0,0,0.1692,0.1634,0.1404,0.1111,0.0956,0.103,0.1223,0.1175,0.1073,0.0972,0.0892,0.0828,0.0758,0.0625,0.0475,0.0443,0.0432,0.0438,0.0416,0,0,0,0,0,0,0,0,0,0,0,0,0,0,0,0,0,0,0,0,0,0,0,0,0,0,0,0.1628,0.1671,0.1612,0.141,0.1223,0.1223,0.1255,0.1201,0.1062,0.0934,0.0812,0.0715,0.063,0.0523,0.039,0.0342,0.0315,0.0363,0.0347,0,0,0,0,0,0,0,0,0,0,0,0,0,0,0,0,0,0,0,0,0,0,0,0,0,0,0,0.1538,0.1575,0.1564,0.1388,0.1217,0.1121,0.1084,0.1041,0.0945,0.0822,0.0673,0.0545,0.0459,0.0379,0.0288,0.024,0.0208,0.0262,0.0262,0,0,0,0,0,0,0,0,0,0,0,0,0,0,0,0,0,0,0,0,0,0,0,0,0,0,0,0.141,0.1463,0.1463,0.1303,0.1153,0.1041,0.0934,0.086,0.0796,0.0694,0.0561,0.0443,0.0379,0.0326,0.0278,0.024,0.0208,0.0219,0.024,0,0,0,0,0,0,0,0,0,0,0,0,0,0,0,0,0,0,0,0,0,0,0,0,0,0,0,0.1169,0.1271,0.1281,0.1164,0.1073,0.0998,0.0881,0.0774,0.0694,0.0603,0.0518,0.0454,0.0422,0.039,0,0,0,0,0,0,0,0,0,0,0,0,0,0,0,0,0,0,0,0,0,0,0,0,0,0,0,0,0,0,0,0,0,0,0.1009,0.0972,0.0956,0.0945,0.0886,0.0822,0.0758,0,0,0,0,0,0,0,0,0,0,0,0,0,0,0,0,0,0,0,0,0,0,0,0,0,0,0,0,0,0,0,0,0,0,0,0,0,0,0,0,0,0,0,0,0,0,0,0,0,0,0,0,0,0,0,0,0,0,0,0,0,0,0,0,0,0,0,0,0,0,0,0,0,0,0,0,0,0,0,0,0,0,0,0,0,0,0,0,0,0,0,0,0,0,0,0,0,0,0,0,0,0,0,0,0,0,0,0,0,0,0,0,0,0,0,0,0,0,0,0,0,0,0,0,0,0,0,0,0,0,0,0,0,0,0,0,0,0,0,0,0,0,0,0,0,0,0,0,0,0,0,0,0,0,0,0,0,0,0,0,0,0,0,0,0,0,0,0,0,0,0,0,0,0,0,0,0,0,0,0,0,0,0,0,0,0,0,0,0,0,0,0,0,0,0,0,0,0,0,0,0,0,0,0,0,0,0,0,0,0,0,0,0,0,0,0,0,0,0,0,0,0,0,0,0,0,0,0,0,0,0,0,0,0,0,0,0,0,0,0,0,0,0,0,0,0,0,0,0,0,0,0,0,0,0,0,0,0,0,0,0,0,0,0,0,0,0,0,0,0,0,0,0,0,0,0,0,0,0,0,0,0,0,0,0,0,0,0,0,0,0,0,0,0,0,0,0,0,0,0,0,0,0,0,0,0,0,0,0,0,0,0,0,0,0,0,0,0,0,0,0,0,0,0,0,0,0,0,0,0,0,0,0,0,0,0,0,0,0,0,0,0,0,0,0,0,0,0,0,0,0,0,0,0,0,0,0,0,0,0,0,0,0,0,0,0,0,0,0,0,0,0,0,0,0,0,0,0,0,0,0,0,0,0,0,0,0,0,0,0,0,0,0,0,0,0,0,0,0,0,0,0,0,0,0,0,0,0,0,0,0,0,0,0,0,0,0,0,0,0,0,0,0,0,0,0,0,0,0,0,0,0,0,0,0,0,0,0,0,0,0,0,0,0,0,0,0,0,0,0,0,0,0,0,0,0,0,0,0,0,0,0,0,0,0,0,0,0,0,0,0,0,0,0,0,0,0,0,0,0,0,0,0,0,0,0,0,0,0,0,0,0,0,0,0,0,0,0,0,0,0,0,0,0,0,0,0,0,0,0,0,0,0,0,0,0,0,0,0,0,0,0,0,0,0,0,0,0,0,0,0,0,0,0,0,0,0,0,0,0,0,0,0,0,0,0,0,0,0,0,0,0,0,0,0,0,0,0,0,0,0,0,0,0,0,0,0,0,0,0,0,0,0,0,0,0,0,0,0,0,0,0,0,0,0,0,0,0,0,0,0,0,0,0,0,0,0,0,0,0,0,0,0,0,0,0,0,0,0,0,0,0,0,0,0,0,0,0,0,0,0,0,0,0,0,0,0,0,0,0,0,0,0,0,0,0,0,0,0,0,0,0,0,0,0,0,0,0,0,0,0,0,0,0,0,0,0,0,0,0,0,0,0,0,0,0,0,0,0,0,0,0,0,0,0,0,0,0,0,0,0,0,0,0,0,0,0,0,0,0,0,0,0,0,0,0,0,0,0,0,0,0,0,0,0,0,0,0,0,0,0,0,0,0,0,0,0,0,0,0,0,0,0,0,0,0,0,0,0,0,0,0,0,0,0,0,0,0,0,0,0,0,0,0,0,0,0,0,0,0,0,0,0,0,0,0,0,0,0,0,0,0,0,0,0,0,0,0,0,0,0,0,0,0,0,0,0,0,0,0,0,0,0,0,0,0,0,0,0,0,0,0]}]]]